[[{"header":{"parameterUnit":"m.s-1","parameterCategory":1,"la1":30.6,"la2":29.2853,"lo1":-89.7004,"lo2":-87.6739,"dy":0.0162,"dx":0.0183,"nx":112,"ny":82,"refTime":"2023-06-22T12:00:00:Z","depth":0,"parameterNumber":2,"parameterNumberName":"U-component_of_WINDS"},"data":[0.0,0.0,0.0,0.0,0.0,0.0,0.0,0.0,0.0,0.0,0.0,0.0,0.0,0.0,0.0,0.0,0.0,0.0,0.0,0.0,0.0,0.0,0.0,0.0,0.0,0.0,0.0,0.0,0.0,0.0,0.0,0.0,0.0,0.0,0.0,0.0,0.0,0.0,0.0,0.0,0.0,0.0,0.0,0.0,0.0,0.0,0.0,0.0,0.0,0.0,0.0,0.0,0.0,0.0,0.0,0.0,0.0,0.0,0.0,0.0,0.0,0.0,0.0,0.0,0.0,0.0,0.0,0.0,0.0,0.0,0.0,0.0,0.0,0.0,0.0,0.0,0.0,0.0,0.0,0.0,0.0,0.0,0.0,0.0,0.0,0.0,0.0,0.0,0.0,0.0,-1.6171,-1.8478,-2.1161,-2.3068,-2.3551,-2.3415,-2.2847,-2.1769,0.0,0.0,0.0,0.0,0.0,0.0,0.0,0.0,0.0,0.0,0.0,0.0,0.0,0.0,0.0,0.0,0.0,0.0,0.0,0.0,0.0,0.0,0.0,0.0,0.0,0.0,0.0,0.0,0.0,0.0,0.0,0.0,0.0,0.0,0.0,0.0,0.0,0.0,0.0,0.0,0.0,0.0,0.0,0.0,0.0,0.0,0.0,0.0,0.0,0.0,0.0,0.0,0.0,0.0,0.0,0.0,0.0,0.0,0.0,0.0,0.0,0.0,0.0,0.0,0.0,0.0,0.0,0.0,0.0,0.0,0.0,0.0,0.0,0.0,0.0,0.0,0.0,0.0,0.0,0.0,0.0,0.0,0.0,0.0,0.0,0.0,0.0,0.0,0.0,0.0,0.0,0.0,0.0,0.0,0.0,0.0,0.0,0.0,0.0,0.0,0.0,0.0,0.0,0.0,-1.7919,-2.0261,-2.2264,-2.3508,-2.3595,-2.2607,-2.1904,-2.171,0.0,0.0,0.0,0.0,0.0,0.0,0.0,0.0,0.0,0.0,0.0,0.0,0.0,0.0,0.0,0.0,0.0,0.0,0.0,0.0,0.0,0.0,0.0,0.0,0.0,0.0,0.0,0.0,0.0,0.0,0.0,0.0,0.0,0.0,0.0,0.0,0.0,0.0,0.0,0.0,0.0,0.0,0.0,0.0,0.0,0.0,0.0,0.0,0.0,0.0,0.0,0.0,0.0,0.0,0.0,0.0,0.0,0.0,0.0,0.0,0.0,0.0,0.0,0.0,0.0,0.0,0.0,0.0,0.0,0.0,0.0,0.0,0.0,0.0,0.0,0.0,0.0,0.0,0.0,0.0,0.0,0.0,0.0,0.0,0.0,0.0,0.0,0.0,0.0,0.0,0.0,0.0,0.0,0.0,0.0,0.0,0.0,0.0,0.0,0.0,0.0,0.0,0.0,-1.7954,-1.8979,-2.0711,-2.2236,-2.3098,-2.3131,-2.2233,-2.1545,-2.1186,-2.0812,0.0,0.0,0.0,0.0,0.0,0.0,0.0,0.0,0.0,0.0,0.0,0.0,0.0,0.0,0.0,0.0,0.0,0.0,0.0,0.0,0.0,0.0,0.0,0.0,0.0,0.0,0.0,0.0,0.0,0.0,0.0,0.0,0.0,0.0,0.0,0.0,0.0,0.0,0.0,0.0,0.0,0.0,0.0,0.0,0.0,0.0,0.0,0.0,0.0,0.0,0.0,0.0,0.0,0.0,0.0,0.0,0.0,0.0,0.0,0.0,0.0,0.0,0.0,0.0,0.0,0.0,0.0,0.0,0.0,0.0,0.0,0.0,0.0,0.0,0.0,0.0,0.0,0.0,0.0,0.0,0.0,0.0,0.0,0.0,0.0,0.0,0.0,0.0,0.0,0.0,0.0,0.0,0.0,0.0,0.0,0.0,0.0,0.0,0.0,0.0,0.0,0.0,-1.9015,-1.9935,-2.0966,-2.2164,-2.2849,-2.2727,-2.2084,-2.1485,-2.0976,-2.0303,0.0,0.0,0.0,0.0,0.0,0.0,0.0,0.0,0.0,0.0,0.0,0.0,0.0,0.0,0.0,0.0,0.0,0.0,0.0,0.0,0.0,0.0,0.0,0.0,0.0,0.0,0.0,0.0,0.0,0.0,0.0,0.0,0.0,0.0,0.0,0.0,0.0,0.0,0.0,0.0,0.0,0.0,0.0,0.0,0.0,0.0,0.0,0.0,0.0,0.0,0.0,0.0,0.0,0.0,0.0,0.0,0.0,0.0,0.0,0.0,0.0,0.0,0.0,0.0,0.0,0.0,0.0,0.0,0.0,0.0,0.0,0.0,0.0,0.0,0.0,0.0,0.0,0.0,0.0,0.0,0.0,0.0,0.0,0.0,0.0,0.0,0.0,0.0,0.0,0.0,0.0,0.0,0.0,0.0,0.0,0.0,0.0,0.0,0.0,0.0,0.0,0.0,-1.9963,-2.0995,-2.1585,-2.2775,-2.3298,-2.2727,-2.2084,-2.168,-2.1635,-2.1006,0.0,0.0,0.0,0.0,0.0,0.0,0.0,0.0,0.0,0.0,0.0,0.0,0.0,0.0,0.0,0.0,0.0,0.0,0.0,0.0,0.0,0.0,0.0,0.0,0.0,0.0,0.0,0.0,0.0,0.0,0.0,0.0,0.0,0.0,0.0,0.0,0.0,0.0,0.0,0.0,0.0,0.0,0.0,0.0,0.0,0.0,0.0,0.0,0.0,0.0,0.0,0.0,0.0,0.0,0.0,0.0,0.0,0.0,0.0,0.0,0.0,0.0,0.0,0.0,0.0,0.0,0.0,0.0,0.0,0.0,0.0,0.0,0.0,0.0,0.0,0.0,0.0,0.0,0.0,0.0,0.0,0.0,0.0,0.0,0.0,0.0,0.0,0.0,0.0,0.0,0.0,0.0,0.0,0.0,0.0,0.0,0.0,0.0,0.0,0.0,0.0,0.0,-1.9984,-2.0698,0.0,-2.2061,-2.2586,-2.1535,-2.1598,-2.1515,-2.1111,0.0,0.0,0.0,0.0,0.0,0.0,0.0,0.0,0.0,0.0,0.0,0.0,0.0,0.0,0.0,0.0,0.0,0.0,0.0,0.0,0.0,0.0,0.0,0.0,0.0,0.0,0.0,0.0,0.0,0.0,0.0,0.0,0.0,0.0,0.0,0.0,0.0,0.0,0.0,0.0,0.0,0.0,0.0,0.0,0.0,0.0,0.0,0.0,0.0,0.0,0.0,0.0,0.0,0.0,0.0,0.0,0.0,0.0,0.0,0.0,0.0,0.0,0.0,0.0,0.0,0.0,0.0,0.0,0.0,0.0,0.0,0.0,0.0,0.0,0.0,0.0,0.0,0.0,0.0,0.0,0.0,0.0,0.0,0.0,0.0,0.0,0.0,0.0,0.0,0.0,0.0,0.0,0.0,0.0,0.0,0.0,0.0,0.0,0.0,0.0,0.0,0.0,-1.8968,-1.9812,-2.0288,0.0,-2.1245,-2.1725,-2.0782,-2.0962,-2.1104,-2.0998,0.0,0.0,0.0,0.0,0.0,0.0,0.0,0.0,0.0,0.0,0.0,0.0,0.0,0.0,0.0,0.0,0.0,0.0,0.0,0.0,0.0,0.0,0.0,0.0,0.0,0.0,0.0,0.0,0.0,0.0,0.0,0.0,0.0,0.0,0.0,0.0,0.0,0.0,0.0,0.0,0.0,0.0,0.0,0.0,0.0,0.0,0.0,0.0,0.0,0.0,0.0,0.0,0.0,0.0,0.0,0.0,0.0,0.0,0.0,0.0,0.0,0.0,0.0,0.0,0.0,0.0,0.0,0.0,0.0,0.0,0.0,0.0,0.0,0.0,0.0,0.0,0.0,0.0,0.0,0.0,0.0,0.0,0.0,0.0,0.0,0.0,0.0,0.0,0.0,0.0,0.0,0.0,0.0,0.0,0.0,0.0,0.0,0.0,0.0,0.0,0.0,0.0,-1.8893,-1.9473,-1.9874,-1.9887,-2.0454,-2.0845,-2.0683,-2.0217,-2.04,0.0,0.0,0.0,0.0,0.0,0.0,0.0,0.0,0.0,0.0,0.0,0.0,0.0,0.0,0.0,0.0,0.0,0.0,0.0,0.0,0.0,0.0,0.0,0.0,0.0,0.0,0.0,0.0,0.0,0.0,0.0,0.0,0.0,0.0,0.0,0.0,0.0,0.0,0.0,0.0,0.0,0.0,0.0,0.0,0.0,0.0,0.0,0.0,0.0,0.0,0.0,0.0,0.0,0.0,0.0,0.0,0.0,0.0,0.0,0.0,0.0,0.0,0.0,0.0,0.0,0.0,0.0,0.0,0.0,0.0,0.0,0.0,0.0,0.0,0.0,0.0,0.0,0.0,0.0,0.0,0.0,0.0,0.0,0.0,0.0,0.0,0.0,0.0,0.0,0.0,0.0,0.0,0.0,0.0,0.0,0.0,0.0,0.0,0.0,0.0,0.0,0.0,0.0,-1.7813,-1.7921,-1.8057,-1.8111,-1.935,-1.9972,-1.9489,-2.0052,-2.0822,-2.165,0.0,0.0,0.0,0.0,0.0,0.0,0.0,0.0,0.0,0.0,0.0,0.0,0.0,0.0,0.0,0.0,0.0,0.0,0.0,0.0,0.0,0.0,0.0,0.0,0.0,0.0,0.0,0.0,0.0,0.0,0.0,0.0,0.0,0.0,0.0,0.0,0.0,0.0,0.0,0.0,0.0,0.0,0.0,0.0,0.0,0.0,0.0,0.0,0.0,0.0,0.0,0.0,0.0,0.0,0.0,0.0,0.0,0.0,0.0,0.0,0.0,0.0,0.0,0.0,0.0,0.0,0.0,0.0,0.0,0.0,0.0,0.0,0.0,0.0,0.0,0.0,0.0,0.0,0.0,0.0,0.0,0.0,0.0,0.0,0.0,0.0,0.0,0.0,0.0,0.0,0.0,0.0,0.0,0.0,0.0,0.0,0.0,0.0,0.0,0.0,0.0,0.0,-1.7341,-1.7313,-1.7367,-1.7383,-1.8513,-1.9148,-1.8906,-1.9573,-2.0253,-2.0956,0.0,0.0,0.0,0.0,0.0,0.0,0.0,0.0,0.0,0.0,0.0,0.0,0.0,0.0,0.0,0.0,0.0,0.0,0.0,0.0,0.0,0.0,0.0,0.0,0.0,0.0,0.0,0.0,0.0,0.0,0.0,0.0,0.0,0.0,0.0,0.0,0.0,0.0,0.0,0.0,0.0,0.0,0.0,0.0,0.0,0.0,0.0,0.0,0.0,0.0,0.0,0.0,0.0,0.0,0.0,0.0,0.0,0.0,0.0,0.0,0.0,0.0,0.0,0.0,0.0,0.0,0.0,0.0,0.0,0.0,0.0,0.0,0.0,0.0,0.0,0.0,0.0,0.0,0.0,0.0,0.0,0.0,0.0,0.0,0.0,0.0,0.0,0.0,0.0,0.0,0.0,0.0,0.0,0.0,0.0,0.0,0.0,0.0,0.0,0.0,0.0,0.0,-1.7229,-1.7217,-1.725,-1.73,-1.7839,-1.8374,-1.8796,-1.8938,-1.9257,-1.9843,0.0,0.0,0.0,0.0,0.0,0.0,0.0,0.0,0.0,0.0,0.0,0.0,0.0,0.0,0.0,0.0,0.0,0.0,0.0,0.0,0.0,0.0,0.0,0.0,0.0,0.0,0.0,0.0,0.0,0.0,0.0,0.0,0.0,0.0,0.0,0.0,0.0,0.0,0.0,0.0,0.0,0.0,0.0,0.0,0.0,0.0,0.0,0.0,0.0,0.0,0.0,0.0,0.0,0.0,0.0,0.0,0.0,0.0,0.0,0.0,-2.3714,0.0,0.0,0.0,0.0,0.0,0.0,0.0,0.0,0.0,0.0,0.0,0.0,0.0,0.0,0.0,0.0,0.0,0.0,0.0,0.0,0.0,0.0,0.0,0.0,0.0,0.0,0.0,0.0,0.0,0.0,0.0,0.0,0.0,0.0,0.0,0.0,0.0,0.0,0.0,0.0,0.0,-1.6659,-1.6317,-1.622,-1.666,-1.7552,-1.8139,-1.8245,-1.904,-1.9664,-1.9883,-1.9514,0.0,0.0,0.0,0.0,0.0,0.0,0.0,0.0,0.0,0.0,0.0,0.0,0.0,0.0,0.0,0.0,0.0,0.0,0.0,0.0,0.0,0.0,0.0,0.0,0.0,0.0,0.0,0.0,0.0,0.0,0.0,0.0,0.0,0.0,0.0,0.0,0.0,0.0,0.0,0.0,0.0,0.0,0.0,0.0,0.0,0.0,0.0,0.0,0.0,0.0,0.0,0.0,0.0,0.0,0.0,0.0,0.0,0.0,0.0,0.0,-2.3658,0.0,0.0,0.0,0.0,0.0,0.0,0.0,0.0,0.0,0.0,0.0,0.0,0.0,0.0,0.0,0.0,0.0,0.0,0.0,0.0,0.0,0.0,0.0,0.0,0.0,0.0,0.0,0.0,0.0,0.0,0.0,0.0,0.0,0.0,0.0,0.0,0.0,0.0,0.0,0.0,-1.6527,-1.6271,-1.6195,-1.6484,-1.7229,-1.7706,-1.7706,-1.8458,-1.8831,-1.8656,-1.8617,0.0,0.0,0.0,0.0,0.0,0.0,0.0,0.0,0.0,0.0,0.0,0.0,0.0,0.0,0.0,0.0,0.0,0.0,0.0,0.0,0.0,0.0,0.0,0.0,0.0,0.0,0.0,0.0,0.0,0.0,0.0,0.0,0.0,0.0,0.0,0.0,0.0,0.0,0.0,0.0,0.0,0.0,0.0,0.0,0.0,0.0,0.0,0.0,0.0,0.0,0.0,0.0,0.0,-3.306,-3.3163,-3.1794,-3.2395,-3.1874,-3.0283,-2.6971,-2.5252,-2.4757,0.0,0.0,0.0,0.0,0.0,0.0,0.0,0.0,0.0,0.0,0.0,0.0,0.0,0.0,0.0,0.0,0.0,0.0,0.0,0.0,0.0,0.0,0.0,0.0,0.0,-1.8204,-1.816,0.0,0.0,0.0,0.0,0.0,0.0,0.0,0.0,0.0,0.0,0.0,0.0,-1.6522,-1.6522,-1.6522,-1.6522,-1.6993,-1.7312,-1.7312,-1.7787,-1.7867,-1.7353,-1.7787,-1.7857,0.0,0.0,0.0,0.0,0.0,0.0,0.0,0.0,0.0,0.0,0.0,0.0,0.0,0.0,0.0,0.0,0.0,0.0,0.0,0.0,0.0,0.0,0.0,0.0,0.0,0.0,0.0,0.0,0.0,0.0,0.0,0.0,-1.691,-1.5404,0.0,0.0,0.0,0.0,0.0,0.0,0.0,0.0,0.0,0.0,0.0,0.0,0.0,-2.6913,-2.8507,-3.0212,-3.1381,-3.2054,-3.3944,-3.4558,-3.4049,-3.3296,-3.3183,-3.3501,-3.1312,0.0,-2.6366,-2.456,0.0,0.0,0.0,0.0,0.0,0.0,0.0,0.0,0.0,0.0,0.0,0.0,0.0,0.0,0.0,0.0,0.0,0.0,0.0,0.0,0.0,0.0,-1.7614,-1.8091,-1.8204,-1.8213,0.0,-1.788,-1.7435,-1.6926,-1.6888,0.0,0.0,0.0,0.0,0.0,0.0,0.0,-1.6522,-1.6522,-1.6522,-1.6522,-1.6993,-1.7312,-1.7312,-1.7787,-1.7867,-1.7353,-1.7378,-1.7427,-1.7408,-1.7451,0.0,0.0,0.0,0.0,0.0,0.0,0.0,0.0,0.0,0.0,0.0,0.0,0.0,0.0,0.0,0.0,0.0,0.0,0.0,0.0,0.0,0.0,0.0,0.0,0.0,0.0,0.0,0.0,0.0,-2.0243,-1.9197,-1.7907,-1.8823,-1.9313,0.0,0.0,0.0,0.0,0.0,0.0,0.0,0.0,0.0,-2.5471,-2.6023,-2.7274,-2.9264,-3.1534,-3.3284,-3.4574,-3.6258,-3.6897,-3.6554,-3.5559,-3.5145,-3.5073,-3.3709,-3.1583,-2.8921,-2.6634,-2.4906,-2.3578,0.0,0.0,0.0,0.0,-2.1844,-2.1979,-2.2682,-2.2864,0.0,0.0,0.0,0.0,0.0,0.0,0.0,0.0,0.0,0.0,0.0,0.0,0.0,-1.961,-1.9823,-1.9874,-1.9246,-1.8907,-1.8493,0.0,-1.7714,-1.7827,-1.7526,0.0,0.0,0.0,0.0,-1.6522,-1.6522,-1.6522,-1.6522,-1.6522,-1.671,-1.6837,-1.6837,-1.7076,-1.7118,-1.6879,-1.6837,-1.6867,-1.6886,-1.7212,-1.7752,0.0,0.0,0.0,0.0,0.0,0.0,0.0,0.0,0.0,0.0,0.0,0.0,0.0,0.0,0.0,0.0,0.0,0.0,0.0,0.0,0.0,0.0,0.0,0.0,0.0,0.0,0.0,0.0,-2.1594,-2.1597,-2.0003,-2.1798,-2.2474,0.0,0.0,0.0,0.0,0.0,0.0,-2.3901,-2.4468,-2.5171,-2.608,-2.6845,-2.8179,-3.0223,-3.2688,-3.4857,-3.6726,-3.783,-3.8331,-3.8189,-3.7312,-3.6671,-3.6191,-3.5172,-3.3615,-3.155,-2.8847,-2.6539,-2.4664,-2.359,-2.2849,-2.2503,-2.2996,-2.3355,-2.367,-2.4178,-2.4313,-2.4373,-2.4716,0.0,-2.4268,-2.3615,0.0,0.0,0.0,0.0,-2.0756,-2.0894,-2.1079,-2.1297,-2.1377,-2.1445,-2.1352,-2.0914,-2.0474,-1.9823,0.0,-1.853,-1.8643,-1.8091,0.0,0.0,0.0,0.0,-1.6735,-1.6735,-1.6735,-1.6685,-1.6534,-1.6522,-1.6522,-1.6522,-1.6522,-1.6522,-1.6522,-1.6522,-1.6522,-1.6522,-1.7074,-1.7639,-1.8191,0.0,0.0,0.0,0.0,0.0,0.0,0.0,0.0,0.0,0.0,0.0,0.0,0.0,0.0,0.0,0.0,0.0,0.0,0.0,0.0,0.0,0.0,0.0,0.0,0.0,0.0,0.0,0.0,0.0,-1.9642,-2.3622,0.0,0.0,0.0,0.0,-2.476,-2.5141,-2.5636,-2.6282,-2.6848,-2.7377,-2.7978,-2.8807,-3.0038,-3.1694,-3.3394,-3.5326,-3.7455,-3.7541,-3.7825,-3.8252,-3.7532,-3.7159,-3.7086,-3.5889,-3.4871,-3.3862,-3.0675,-2.8136,-2.6222,-2.5682,-2.5031,-2.4448,-2.4462,-2.4133,-2.3595,-2.364,-2.3655,-2.3864,-2.5151,-2.5959,-2.6325,-2.5639,-2.4515,0.0,0.0,-2.1263,-2.0844,-2.1305,-2.1079,-2.117,-2.2887,-2.2382,-2.1886,-2.3221,-2.2378,-2.0778,0.0,-1.8229,-1.8078,-1.7513,0.0,-1.7388,-1.7388,-1.735,-1.7338,-1.7338,-1.7338,-1.7137,-1.6572,-1.6522,-1.6522,-1.6522,-1.6522,-1.6522,-1.6522,-1.6522,-1.6522,-1.6522,-1.7074,-1.7639,-1.8191,-1.8229,0.0,0.0,0.0,0.0,0.0,0.0,0.0,0.0,0.0,0.0,0.0,0.0,0.0,0.0,0.0,0.0,0.0,0.0,0.0,0.0,0.0,0.0,0.0,0.0,0.0,0.0,0.0,0.0,-2.5021,-2.7647,0.0,-2.541,-2.5908,-2.671,-2.7405,-2.765,-2.8298,-2.9566,-2.9817,-3.0018,-3.0218,-3.0176,-3.0755,-3.1956,-3.3321,-3.4927,-3.6782,-3.7397,-3.7942,-3.8448,-3.6933,-3.6141,-3.5915,-3.4754,-3.3616,-3.2512,-3.1773,-3.0261,-2.8261,-2.6799,-2.6093,-2.5944,-2.6363,-2.6363,-2.6228,-2.6662,-2.6527,-2.6093,-2.5734,-2.5764,-2.5801,-2.5125,-2.4521,-2.4024,-2.3442,-2.3064,-2.3103,-2.4175,-2.4341,-2.436,-2.5124,-2.4576,-2.3817,-2.3553,-2.2704,-2.1681,-2.0539,-1.9723,-1.9058,-1.853,-1.8141,-1.8028,-1.8392,-1.8141,-1.7903,-1.7903,-1.7903,-1.7827,-1.7626,-1.7601,-1.7601,-1.7601,-1.7601,-1.7451,-1.7099,-1.7074,-1.6911,-1.6534,-1.6722,-1.7087,-1.7664,-1.7677,-1.8129,0.0,0.0,0.0,0.0,0.0,0.0,0.0,0.0,0.0,0.0,0.0,0.0,0.0,0.0,0.0,0.0,0.0,0.0,0.0,0.0,0.0,0.0,0.0,0.0,0.0,0.0,-2.9026,-2.8441,-3.0526,-3.0988,-2.8216,-2.8482,-2.9223,-2.9955,-3.0382,-3.1085,-3.2177,-3.2064,-3.1951,-3.1951,-3.126,-3.1223,-3.1961,-3.3038,-3.4389,-3.6014,-3.6626,-3.728,-3.7932,-3.6399,-3.544,-3.5015,-3.4026,-3.2939,-3.1951,-3.2143,-3.1435,-2.9999,-2.8493,-2.7649,-2.732,-2.7754,-2.7769,-2.7634,-2.8098,-2.7949,-2.7475,-2.6557,-2.6113,-2.5806,-2.5329,-2.4777,-2.4351,-2.4443,-2.4214,-2.4343,-2.5988,-2.6215,-2.6323,-2.7179,-2.628,-2.5122,-2.4857,-2.3602,-2.248,-2.2184,-2.1056,-1.9924,-1.9384,-1.8844,-1.8668,-1.9208,-1.8832,-1.8543,-1.8719,-1.8593,-1.8405,-1.8229,-1.8204,-1.8204,-1.8204,-1.838,-1.8242,-1.7689,-1.784,-1.7677,-1.7112,-1.7262,-1.7626,-1.8191,-1.8204,-1.848,-1.8983,0.0,0.0,0.0,0.0,0.0,0.0,0.0,0.0,0.0,0.0,0.0,0.0,0.0,0.0,0.0,0.0,0.0,0.0,0.0,0.0,0.0,0.0,0.0,-2.5849,-2.8637,-3.0242,-2.943,-3.22,-3.3292,-3.1005,-3.2436,-3.3178,-3.2399,-3.3319,-3.3922,-3.3922,-3.342,-3.3106,-3.3081,-3.2014,-3.1631,-3.2027,-3.2806,-3.386,-3.5126,-3.5202,-3.5716,-3.6637,-3.5896,-3.5211,-3.4542,-3.3786,-3.3135,-3.2523,-3.1811,-3.1482,-3.1407,-3.0776,-2.9744,-2.8667,-2.8637,-2.8188,-2.7655,-2.7655,-2.764,-2.7625,-2.7625,-2.7086,-2.651,-2.6457,-2.5481,-2.4464,-2.4971,-2.4622,-2.4557,-2.6488,-2.6608,-2.6748,-2.8822,-2.7239,-2.5684,-2.7185,-2.5226,-2.3191,-2.3385,-2.2008,-2.0552,-1.9936,-1.9422,-1.9271,-1.9761,-1.9397,0.0,-1.9761,-1.9371,-1.8857,-1.8342,-1.8279,-1.8279,-1.8279,-1.8769,-1.8844,-1.8267,-1.8731,-1.8781,-1.8229,-1.8719,-1.9233,-1.9748,-1.9773,-1.9522,-1.8983,0.0,0.0,0.0,0.0,0.0,0.0,0.0,0.0,0.0,0.0,0.0,0.0,0.0,0.0,0.0,0.0,0.0,0.0,0.0,0.0,0.0,0.0,-2.8332,-2.9127,-3.0416,-3.1653,-3.2919,-3.4299,-3.4682,-3.3665,-3.4096,-3.4452,-3.46,-3.455,-3.45,-3.45,-3.4349,-3.3897,-3.3106,-3.278,-3.2495,-3.2148,-3.2266,-3.2799,-3.3748,-3.4756,-3.5334,-3.5599,-3.5577,-3.5236,-3.444,-3.3304,-3.2672,-3.2475,-3.1777,-3.1482,-3.1407,-3.0776,-3.0298,-2.9924,-2.9475,-2.8891,-2.8323,-2.8323,-2.7993,-2.7625,-2.7625,-2.7086,-2.6404,-2.5837,-2.5592,-2.5363,-2.5025,-2.5769,-2.6973,-2.8102,-2.8754,-2.9305,-3.0043,-2.8724,-2.7349,-2.7276,-2.5699,-2.4255,-2.3933,-2.3056,-2.202,-2.0665,-2.0639,-2.0727,-2.0464,-2.03,0.0,-2.0401,-1.9936,-1.9698,-1.9962,-1.9987,-1.9987,-1.9987,-2.0125,-1.9811,-1.8869,-1.8895,-1.8781,-1.8229,-1.8355,-1.8493,-1.8643,-1.9032,-1.9171,0.0,0.0,0.0,0.0,0.0,0.0,0.0,0.0,0.0,0.0,0.0,0.0,0.0,0.0,0.0,0.0,0.0,0.0,0.0,0.0,0.0,0.0,-2.8656,-3.008,-3.1688,-3.2288,-3.3079,-3.4766,-3.5221,-3.5481,-3.5445,-3.5416,-3.5542,-3.5868,-3.5592,-3.5416,-3.5416,-3.519,-3.4663,-3.3796,-3.3545,-3.3031,-3.2227,-3.2107,-3.2254,-3.2719,-3.3508,-3.4128,-3.4714,-3.4827,-3.4573,0.0,-3.3181,-3.2571,-3.1867,-3.1604,-3.1482,0.0,0.0,0.0,0.0,0.0,-2.8502,-2.8173,-2.8173,-2.7904,-2.7625,-2.7625,-2.7277,-2.6791,-2.6009,-2.5851,-2.591,-2.5755,-2.6479,-2.7679,-2.9185,-2.995,-3.0422,-3.0845,-2.9799,-2.8598,-2.8231,-2.6647,-2.5255,-2.4934,0.0,0.0,-2.2272,-2.1744,-2.1455,-2.1368,-2.0966,-2.0806,-2.1033,-2.03,-1.9924,-2.0275,-2.03,-2.03,-2.03,-2.0526,0.0,0.0,0.0,-1.9459,-1.8894,-1.9108,0.0,0.0,0.0,-1.9949,-1.971,0.0,0.0,0.0,-2.1355,-2.1694,0.0,0.0,0.0,0.0,0.0,0.0,0.0,0.0,0.0,0.0,0.0,0.0,0.0,0.0,0.0,0.0,-2.9783,-3.0708,-3.3671,-3.4186,-3.4587,-3.5441,-3.5542,-3.5768,-3.6307,-3.642,-3.6458,-3.6458,-3.6458,-3.642,-3.6358,0.0,0.0,0.0,0.0,-3.3571,-3.2503,-3.2378,-3.2199,-3.2109,-3.2067,-3.2643,-3.377,-3.3837,-3.3522,-3.3059,-3.3284,-3.2559,-3.1262,-3.1442,-3.1437,-3.136,-3.0836,-3.0238,-2.9535,-2.8263,-2.7805,-2.773,-2.7655,0.0,0.0,-2.7679,-2.763,-2.7437,-2.6678,-2.6408,-2.6454,-2.691,-2.7173,-2.7764,-2.9746,-3.0447,-3.0731,-3.1366,-3.0558,-2.9594,-2.9522,-2.788,-2.6427,-2.6361,-2.5625,-2.4861,-2.4305,-2.2858,-2.1907,-2.2334,-2.1518,-2.1004,-2.143,-2.0564,-1.9924,-1.9987,0.0,0.0,-1.9999,-2.0464,-2.0489,-1.9849,-2.0351,-2.0439,-1.9924,-2.0451,-2.0514,-1.9999,-2.0978,-2.1255,-2.0806,-2.1255,-2.1744,-2.2221,-2.2284,-2.2347,0.0,0.0,0.0,0.0,0.0,0.0,0.0,0.0,0.0,0.0,0.0,0.0,0.0,0.0,0.0,-3.0161,-3.26,-3.4487,-3.514,-3.5994,-3.6295,-3.5617,-3.5542,-3.5768,-3.6307,-3.6759,-3.7023,-3.7023,-3.7023,-3.6835,-3.6383,-3.6257,0.0,-3.4751,-3.5052,-3.4914,-3.4248,-3.3357,-3.2877,-3.2891,0.0,0.0,-3.2367,-3.2742,-3.2821,-3.2653,-3.2448,-3.2211,-3.1881,-3.1634,-3.121,-3.0746,-3.1165,-3.0926,-3.0238,-2.9475,-2.8861,-2.8323,-2.7769,-2.7934,-2.8412,-2.8412,-2.8307,-2.8166,-2.8053,-2.7902,0.0,-2.7941,-2.8759,-2.9732,-3.0179,-3.1158,-3.2005,-3.1601,-3.1175,-3.0719,-3.0242,-2.9237,-2.8318,-2.7899,-2.7073,-2.6345,-2.5769,-2.4487,-2.3389,-2.3025,-2.2422,-2.187,-2.1531,-2.0903,-2.0665,-2.1117,-2.1154,-2.1154,-2.1154,-2.1267,-2.0891,-1.9874,-2.0351,-2.0668,-2.0555,-2.1029,-2.128,-2.1167,-2.138,-2.1443,-2.133,-2.1443,-2.1543,-2.1656,-2.2108,-2.2548,0.0,0.0,0.0,0.0,0.0,0.0,0.0,0.0,0.0,0.0,0.0,-2.7219,0.0,0.0,-3.0708,-3.2403,-3.4286,-3.5742,-3.6282,-3.6835,-3.6973,-3.6433,-3.637,-3.6584,-3.7136,-3.6813,-3.6466,-3.6466,-3.5829,-3.5609,-3.6075,-3.5807,-3.5692,-3.5567,-3.5542,-3.5278,-3.4726,-3.4173,-3.3621,-3.3068,-3.2689,-3.2369,-3.2024,-3.2171,-3.2171,-3.192,-3.2419,-3.2288,-3.1829,-3.1496,-3.0969,-3.0368,-3.0259,-3.0178,-2.9998,-2.9699,-2.916,-2.8547,-2.8203,-2.8308,-2.8607,-2.8607,-2.9005,-2.9356,-2.8944,-2.904,-2.9238,-2.9238,-2.9768,-3.0462,-3.1232,-3.1946,-3.2512,-3.2512,-3.242,-3.2294,-3.1999,-3.0945,-3.0043,-2.9732,-2.8375,-2.7208,-2.6931,-2.5717,-2.4519,-2.369,-2.2849,-2.2209,-2.1933,-2.1418,-2.1179,-2.1455,-2.1493,-2.138,-2.1104,-2.1079,-2.0953,-2.0665,-2.0916,-2.1079,-2.1079,-2.1343,-2.1493,-2.1493,-2.1757,-2.1895,-2.1895,-2.2184,-2.2309,-2.2322,-2.2598,-2.2723,0.0,0.0,0.0,0.0,0.0,0.0,0.0,0.0,-2.7148,-2.7987,-2.8659,-2.9481,-3.0398,-3.1386,-3.2667,-3.4575,-3.5441,-3.6132,-3.691,-3.7111,-3.7186,-3.7186,-3.7186,-3.7302,-3.7543,-3.6638,-3.5856,-3.5535,-3.4471,-3.4215,-3.5395,-3.5211,-3.5412,-3.5978,-3.5843,-3.5604,-3.5052,-3.4926,-3.4437,-3.3558,-3.3232,-3.2759,-3.2241,-3.1901,-3.1509,-3.1176,-3.2111,-3.2148,-3.1378,-3.1174,-3.0811,-3.0306,-2.9477,-2.9327,-2.9628,-2.9574,-2.9307,-2.8951,-2.8831,-2.8861,-2.8966,-2.8966,-2.9849,-3.0783,-3.0119,-3.0379,-3.0887,-3.0887,-3.0887,-3.12,-3.2377,-3.2796,-3.2991,-3.3395,-3.3589,-3.3649,-3.3529,-3.2517,-3.1675,-3.1675,-2.9987,-2.8542,-2.8421,-2.7078,-2.5673,-2.452,-2.3351,-2.2598,-2.2485,-2.1995,-2.1644,-2.1644,-2.1644,-2.1468,-2.1071,-2.0945,-2.1016,-2.1455,-2.1594,-2.1644,-2.1644,-2.1757,-2.1807,-2.1807,-2.2246,-2.2472,-2.2472,-2.2865,-2.3078,-2.3078,-2.3251,-2.3012,-2.4846,-2.4905,-2.5739,-2.7293,-2.6877,-2.7322,0.0,0.0,-3.0296,-3.3067,-3.3039,-3.2714,-3.3319,-3.3935,-3.46,-3.5328,-3.632,-3.6872,-3.6508,-3.6872,-3.7186,-3.7186,-3.7186,-3.6886,-3.6075,-3.6335,-3.6063,-3.4662,-3.4448,-3.4258,-3.4042,-3.513,-3.5396,-3.4617,-3.6183,-3.6734,-3.6182,-3.5705,-3.5391,-3.5253,-3.3771,-3.3066,-3.2912,-3.1435,-3.0716,-3.0681,-3.0603,-3.0573,-3.0692,-3.0689,-3.066,-3.0482,-2.9945,-2.9721,-2.9728,-2.9442,-2.9708,-3.0208,-2.9669,-2.9834,-3.0298,-3.0298,-3.1195,-3.2228,-3.2169,-3.2616,-3.3138,-3.3138,-3.3138,-3.3168,-3.3365,-3.3814,-3.4128,-3.3619,-3.3933,-3.4203,-3.3619,-3.3363,-3.3242,-3.3242,-3.2392,-3.1482,-3.0897,-2.9022,-2.7157,-2.563,-2.4506,-2.3627,-2.3113,-2.256,-2.2221,-2.2221,-2.2221,-2.2196,-2.2133,-2.1681,-2.143,-2.1493,-2.1945,-2.2221,-2.2221,-2.2686,-2.289,-2.289,-2.2952,-2.2977,-2.2977,-2.304,-2.3078,-2.3078,-2.3665,-2.359,-2.6557,-2.6638,-2.7126,-2.7869,-2.8836,-3.0093,-3.1776,-3.179,-3.1928,-3.3751,-3.4059,-3.4211,-3.4751,-3.5303,-3.5755,0.0,-3.6671,-3.7098,-3.6872,-3.6759,-3.6709,-3.6709,-3.642,-3.6397,-3.7059,-3.606,-3.5062,-3.4419,-3.3183,-3.3035,-3.4575,-3.4819,-3.5641,-3.7009,-3.7406,-3.74,-3.6847,-3.6609,-3.6182,-3.5449,-3.4851,-3.4173,-3.352,-3.2516,-3.1813,-3.1448,-3.1323,-3.0957,-3.0462,-3.0462,-3.0247,-2.9829,-2.9131,-2.9426,-3.0141,-2.9387,-2.9671,-3.0382,-3.0061,-3.0452,-3.1165,-3.1554,-3.2048,-3.2587,-3.2961,-3.3275,-3.3499,-3.3499,-3.3499,-3.3589,-3.3963,-3.4262,-3.4502,-3.4637,-3.4876,-3.4996,-3.4726,-3.4352,-3.4068,-3.4068,-3.3069,-3.2118,-3.1844,-3.0597,-2.9187,-2.7626,-2.5753,-2.4393,-2.4142,-2.3916,-2.3653,-2.3326,-2.2711,-2.2447,-2.2761,-2.2284,-2.2108,-2.2422,-2.2661,-2.2786,-2.2786,-2.2952,-2.3288,-2.3627,-2.364,-2.3791,-2.4117,-2.4117,-2.4117,-2.413,-2.4368,-2.4343,-2.7051,-2.7319,-2.7865,-2.8393,-3.031,-3.208,-3.1991,-3.262,-3.3418,-3.4539,-3.4876,-3.5064,-3.5466,-3.5868,-3.6132,-3.6132,-3.6596,-3.696,-3.696,-3.6345,-3.5968,-3.6119,-3.5516,-3.5617,-3.6973,-3.5573,-3.4286,-3.368,-3.2188,-3.2189,-3.4241,-3.4578,-3.5698,-3.7999,-3.8166,-3.7902,-3.7199,-3.7186,-3.6709,-3.5768,-3.5617,-3.5127,-3.4324,-3.347,-3.2721,-3.2045,-3.1746,-3.1148,-3.0468,-3.0325,-2.9926,-2.945,-2.8594,-2.9073,-3.0046,-2.9094,-2.9435,-3.0401,-3.0711,-3.1168,-3.1767,-3.2497,-3.2901,-3.314,-3.3619,-3.3903,-3.4053,-3.4053,-3.4053,-3.4158,-3.4637,-3.4756,-3.4891,-3.5385,-3.5504,-3.5504,-3.5504,-3.5115,-3.4756,-3.4756,-3.3878,-3.3033,-3.2844,-3.2125,-3.1174,-2.9847,-2.7643,-2.5866,-2.5096,-2.4908,-2.4607,-2.4054,-2.3263,-2.2874,-2.3053,-2.2761,-2.2711,-2.3053,-2.3078,-2.314,-2.3364,-2.3376,-2.364,-2.4217,-2.423,-2.4418,-2.482,-2.482,-2.482,-2.482,-2.4971,-2.4958,-2.5169,-2.5983,-2.721,-2.9353,-3.0663,-3.2122,-3.4751,-3.4977,-3.509,-3.6747,-3.6257,-3.5437,-3.5542,-3.5554,-3.5567,-3.5567,-3.6031,-3.6383,-3.6383,-3.5454,-3.4964,-3.5504,-3.4613,-3.4173,0.0,-3.4884,-3.4051,-3.1888,-3.2023,-3.2086,-3.1874,-3.4,-3.5477,-3.6057,-3.7913,-3.8316,-3.7199,-3.7186,-3.6897,-3.6332,-3.5805,-3.5437,-3.5441,-3.3822,-3.2742,-3.2102,-3.106,-3.0595,-3.052,-3.007,-2.9831,-2.9768,-2.9114,-2.89,-2.89,-2.8333,-2.9201,-3.0742,-3.1681,-3.2083,-3.2225,-3.3193,-3.3903,-3.4412,-3.4442,-3.4906,-3.5444,-3.5444,-3.5444,-3.5444,-3.5474,-3.5474,-3.5474,-3.5504,-3.5504,-3.5504,-3.5504,-3.5489,-3.5474,-3.5474,-3.5459,-3.5155,-3.4562,-3.368,-3.2912,-3.2213,-3.0527,-2.8477,-2.5908,-2.5134,-2.4607,-2.4054,-2.3966,-2.3728,-2.3175,-2.3065,-2.3053,-2.3078,-2.3078,-2.3389,-2.3954,-2.3966,-2.423,-2.4795,-2.4795,-2.4808,-2.482,-2.482,-2.482,-2.4833,-2.5335,-2.531,-2.7575,-2.8691,-2.9842,-3.1772,-3.3206,-3.4387,-3.5328,-3.5968,-3.6307,-3.6132,-3.5215,-3.4349,-3.3972,-3.3596,-3.3583,-3.4336,-3.4914,-3.5529,-3.6257,-3.6044,-3.5479,-3.4562,-3.4449,0.0,0.0,0.0,0.0,-3.331,-3.3155,-3.3686,-3.5024,-3.6117,-3.731,-3.8378,-3.9091,-3.9057,-3.8316,-3.8304,-3.7839,-3.6897,-3.6345,-3.5893,-3.5437,-3.4964,-3.401,-3.2767,-3.2403,-3.1625,-3.0608,-3.0419,-3.0118,-2.9779,-2.9578,-2.9503,-2.9478,-2.9289,-2.9579,-3.022,-3.1475,-3.2298,-3.3006,-3.4411,-3.4666,-3.4562,-3.5026,-3.5325,-3.5504,-3.5504,-3.5504,-3.5504,-3.5504,-3.5504,-3.5504,-3.5504,-3.5504,-3.5504,-3.5504,-3.5504,-3.5504,-3.5504,-3.5504,-3.5429,-3.519,-3.4937,-3.4083,-3.2249,-3.0242,-2.8412,-2.6918,-2.59,-2.5259,-2.5071,-2.4745,-2.4469,-2.428,-2.4384,-2.4442,-2.4442,-2.4442,-2.4533,-2.4741,-2.4583,-2.4795,-2.5322,-2.5335,-2.5523,-2.5912,-2.5912,-2.5912,-2.5912,-2.6088,-2.6076,-2.9309,-3.042,-3.1459,-3.3373,-3.4679,-3.5604,-3.5793,-3.6081,-3.6044,-3.514,-3.3771,-3.2554,-3.2001,-3.1273,-3.1185,-3.2503,-3.3031,-3.3847,-3.5542,-3.5441,-3.509,-3.4813,-3.4738,-3.46,0.0,0.0,0.0,-3.3967,-3.3937,-3.4441,-3.555,-3.5784,-3.6595,-3.8043,-3.8149,-3.8105,-3.8107,-3.791,-3.7481,-3.6885,-3.6734,-3.637,-3.583,-3.5642,-3.4851,-3.3646,-3.3257,-3.2365,-3.116,-3.0771,-3.0407,-3.0068,-2.9867,-2.9792,-2.9792,-2.9792,-2.9792,-2.9947,-3.1181,-3.218,-3.3172,-3.4493,-3.4916,-3.4921,-3.537,-3.5504,-3.5504,-3.5504,-3.5504,-3.5504,-3.5504,-3.5504,-3.5504,-3.5504,-3.5504,-3.5504,-3.5504,-3.5504,-3.5504,-3.5504,-3.5504,-3.5504,-3.5504,-3.5504,-3.4853,-3.2857,-3.132,-2.9591,-2.7531,-2.6726,-2.6266,-2.6061,-2.6039,-2.5931,-2.5709,-2.5834,-2.5907,-2.5907,-2.5907,-2.6001,-2.617,-2.5764,-2.5793,-2.633,-2.6101,-2.6189,-2.6753,-2.6753,-2.6753,-2.6753,-2.6753,-2.6653,-3.0306,-3.1248,-3.2164,-3.4311,-3.524,-3.5742,-3.6263,-3.5429,-3.4462,-3.3897,-3.1926,-3.0231,0.0,0.0,-2.8574,-3.0256,-3.0645,-3.1687,-3.4424,-3.396,-3.4098,0.0,0.0,0.0,0.0,0.0,0.0,-3.3588,0.0,-3.4196,-3.3877,-3.3461,-3.3856,-3.53,-3.5288,-3.5717,-3.6623,-3.6113,-3.6057,-3.6408,-3.6935,-3.6897,-3.6345,-3.583,-3.529,-3.47,-3.3633,-3.2817,-3.2177,-3.1097,-3.0633,-3.0557,-3.0005,-2.9792,-2.9792,-2.9792,-2.9792,-2.9934,-3.0833,-3.1742,-3.2749,-3.3671,-3.4691,-3.5504,-3.5504,-3.5504,-3.5504,-3.5504,-3.5504,-3.5504,-3.5504,-3.5504,-3.5504,-3.5504,-3.5504,-3.5504,-3.5504,-3.5504,-3.5504,-3.5424,-3.5359,-3.5359,-3.5504,-3.5439,-3.5133,-3.4163,-3.3561,-3.1836,-2.8036,-2.7725,-2.7657,-2.7152,-2.783,-2.8061,-2.7423,-2.7398,-2.7371,-2.7371,-2.7384,-2.7589,-2.8199,-2.7337,-2.7117,-2.7657,-2.6943,-2.6753,-2.7281,-2.7306,-2.7318,-2.7318,-2.7318,-2.7042,-3.3013,-3.4426,-3.5328,-3.6307,-3.6659,-3.6647,-3.6238,-3.478,-3.3224,-3.207,-2.9538,-2.7218,0.0,0.0,0.0,-2.9089,-3.1097,0.0,-3.5617,-3.6408,0.0,-3.696,0.0,-3.696,-3.642,-3.5781,0.0,0.0,-3.4119,-3.3983,-3.4229,-3.4515,-3.4958,-3.53,-3.5288,-3.5452,-3.5643,-3.6215,-3.6703,-3.6973,-3.7111,-3.6897,-3.6358,-3.6219,-3.5855,-3.5303,-3.46,-3.3759,-3.2767,-3.165,-3.0972,-3.0557,-3.0005,-2.9792,-2.9792,-2.9792,-2.9792,-2.9869,-3.0075,-3.1193,-3.2749,-3.3671,-3.4691,-3.5504,-3.5504,-3.5504,-3.5504,-3.5504,-3.5504,-3.5504,-3.5504,-3.5504,-3.5504,-3.5504,-3.5504,-3.5504,-3.5504,-3.5504,-3.5279,-3.4543,-3.3822,-3.3822,-3.5213,-3.4905,-3.4312,-3.4027,-3.3561,-3.2549,-3.0869,-3.0378,-2.991,-2.9306,-2.9444,-2.9259,-2.8637,-2.8725,-2.8767,-2.8767,-2.8158,-2.7864,-2.803,-2.7105,-2.671,-2.6769,-2.6993,-2.7143,-2.7281,-2.7695,-2.7896,-2.7896,-2.7896,-2.7821,-3.4891,-3.6069,-3.6797,-3.7111,-3.6646,-3.5777,-3.4341,-3.2606,-3.0703,-2.8769,-2.6582,-2.4732,-2.3879,-2.4418,0.0,0.0,0.0,0.0,-3.4901,-3.6232,-3.7174,0.0,-3.8191,0.0,-3.7864,-3.647,-3.5421,0.0,-3.4077,-3.3388,-3.3443,-3.3375,-3.3314,-3.3314,-3.3314,-3.3871,-3.4843,-3.6307,-3.7127,-3.7186,-3.7425,-3.7123,-3.6358,-3.6358,-3.6056,-3.5516,0.0,-3.4236,-3.3345,-3.2215,-3.1574,-3.126,-3.0708,-3.0357,-3.0156,-3.0156,-2.9993,-2.9792,-2.9792,-3.0784,-3.2177,-3.3101,-3.4041,-3.4905,-3.5359,-3.5504,-3.5504,-3.5504,-3.5504,-3.5504,-3.5504,-3.5504,-3.5504,-3.5504,-3.5504,-3.5504,-3.5504,-3.5133,-3.4543,-3.3602,-3.2961,-3.2961,-3.4056,-3.4109,-3.4027,-3.4027,-3.4089,-3.4003,-3.3523,-3.2051,-3.0912,-3.0573,-3.062,-3.052,-3.0115,-3.019,-3.0294,-3.0294,-2.9795,-2.9557,-2.9557,-2.8315,-2.7722,-2.7917,-2.7513,-2.7519,-2.8009,-2.831,-2.8461,-2.8461,-2.8461,-2.8335,-3.6257,-3.6923,-3.7274,-3.7199,-3.5943,-3.4098,-3.1864,-2.9907,-2.7808,-2.5176,-2.3651,-2.2636,-2.2083,-2.256,-2.359,-2.5322,0.0,-3.0118,-3.352,-3.4964,-3.6458,-3.8617,-3.8931,-3.9157,-3.9415,-3.7,-3.5256,-3.5079,-3.3685,-3.2633,-3.2043,-3.1337,-3.0889,-3.0889,-3.0889,-3.1879,-3.4095,-3.6044,-3.7036,-3.6883,-3.7565,-3.7362,-3.6358,-3.6358,-3.6094,-3.5617,0.0,0.0,-3.3922,-3.2792,-3.2277,-3.2152,-3.1599,-3.1072,-3.062,-3.062,-3.0269,-2.9792,-2.9792,-3.0355,-3.118,-3.2105,-3.3101,-3.4177,-3.5052,-3.5359,-3.5504,-3.5504,-3.5504,-3.5504,-3.5504,-3.5504,-3.5504,-3.5504,-3.5564,-3.5609,-3.5534,-3.4683,-3.3646,-3.286,-3.2571,-3.2526,-3.266,-3.3368,-3.3908,-3.3959,-3.4839,-3.5504,-3.5504,-3.3338,-3.1666,-3.1492,-3.1663,-3.1719,-3.1497,-3.1482,-3.1482,-3.1482,-3.1409,-3.138,-3.147,-2.9803,-2.9196,-2.9748,-2.8252,-2.7971,-2.8925,-2.9001,-2.9038,-2.9038,-2.9038,-2.8787,-3.7299,-3.7789,-3.7751,-3.7299,-3.5943,-3.406,-3.1785,-2.9019,0.0,0.0,-2.2395,-2.0928,-2.0338,-2.1443,-2.3138,-2.5247,-2.7469,-3.0256,-3.4048,-3.5554,-3.691,0.0,-3.927,-3.9146,-3.8007,-3.6639,0.0,0.0,0.0,-3.1554,-3.1129,-3.0956,-3.0889,-3.0889,-3.0889,-3.1441,-3.2585,-3.4183,-3.5085,-3.5445,-3.6665,-3.6985,-3.6358,-3.6358,-3.6307,-3.6194,-3.5642,0.0,-3.45,-3.3382,-3.2641,-3.2152,-3.1599,-3.1072,-3.062,-3.062,-3.0269,-2.9792,-2.9792,-2.9934,-3.0216,-3.1119,-3.2593,-3.4027,-3.4177,-3.4839,-3.5504,-3.5504,-3.5504,-3.5504,-3.5504,-3.5504,-3.5504,-3.5504,-3.5923,-3.6163,-3.5624,-3.4459,-3.3484,-3.3266,-3.2352,-3.1928,-3.3069,-3.3412,-3.3605,-3.3962,-3.4839,-3.5504,-3.5504,-3.5061,-3.4341,-3.3225,-3.3154,-3.2706,-3.1571,-3.1482,-3.1482,-3.1482,-3.0896,-3.0742,-3.1235,-2.9512,-2.889,-2.9558,-2.8959,-2.8737,-2.8925,-2.9415,-2.9641,-2.9641,-2.9641,-2.9591,-3.7713,-3.8002,-3.7877,-3.7324,-3.5278,-3.2626,-2.9779,0.0,0.0,-2.2153,-2.0883,-2.0125,-1.9849,-2.1179,0.0,-2.4092,-2.5937,-2.8549,-3.2441,-3.396,-3.5604,-3.8115,-3.8506,-3.8243,0.0,-3.57,0.0,0.0,0.0,-3.1103,-3.0898,-3.0889,-3.0889,-3.0889,-3.0889,-3.1436,-3.2619,-3.339,-3.4441,-3.5841,-3.6299,-3.6604,-3.6784,-3.6496,-3.6358,-3.6332,-3.578,0.0,-3.5064,-3.396,-3.3345,-3.3031,-3.2478,-3.1938,-3.1449,-3.1449,-3.0934,-3.0218,-3.0218,-3.003,-2.9856,-3.0355,-3.1402,-3.2749,-3.3671,-3.4327,-3.4839,-3.5359,-3.5504,-3.5579,-3.5923,-3.6013,-3.6103,-3.6417,-3.631,-3.5945,-3.5093,-3.4001,-3.2921,-3.2486,-3.1803,-3.1758,-3.3001,-3.3281,-3.3612,-3.4421,-3.506,-3.5504,-3.5504,-3.5504,-3.5115,-3.4113,-3.3709,-3.3245,-3.2617,-3.2557,-3.2557,-3.2557,-3.2167,-3.2102,-3.2382,-3.0671,-2.997,-3.0578,-2.949,-2.9076,-2.9377,-2.9654,-2.9792,-2.9792,-2.9792,-2.9792,-3.7676,-3.7914,-3.7839,-3.7174,-3.4587,-3.1323,-2.7883,-2.5498,0.0,-2.0376,-1.9798,-1.9798,-1.9798,-2.0878,-2.2033,0.0,-2.4142,-2.6427,-3.0319,-3.2039,-3.4085,0.0,-3.7448,0.0,-3.7026,-3.4703,0.0,0.0,0.0,0.0,-3.0889,-3.0889,-3.0889,-3.0889,-3.0889,-3.1441,-3.2644,-3.2859,-3.3779,-3.5654,-3.558,-3.5994,-3.6587,-3.6463,-3.6358,-3.6332,-3.5906,0.0,0.0,-3.4487,-3.401,-3.3847,-3.3294,-3.2717,-3.2215,-3.2215,-3.1612,-3.0758,-3.0658,-3.0331,-2.9942,-2.9829,-3.0419,-3.1536,-3.3171,-3.3808,-3.4245,-3.5213,-3.5504,-3.5654,-3.6312,-3.6492,-3.6604,-3.7129,-3.6558,-3.5609,-3.4506,-3.3614,-3.271,-3.1795,-3.1896,-3.2329,-3.3067,-3.3601,-3.4181,-3.4907,-3.5318,-3.5504,-3.5504,-3.5504,-3.5295,-3.4756,-3.4098,-3.3649,-3.3499,-3.3499,-3.3499,-3.3499,-3.3499,-3.3559,-3.3709,-3.1937,-3.1213,-3.1805,-3.0021,-2.934,-2.9792,-2.9792,-2.9792,-2.9792,-2.9792,-2.9792,-3.7111,-3.7626,-3.7751,-3.6697,-3.4311,-3.121,-2.7406,0.0,-2.3201,-2.0376,-1.9798,-1.9798,-1.9798,-1.9924,-2.0552,-2.2133,-2.2937,-2.472,-2.8612,-3.0972,-3.3357,-3.6219,0.0,0.0,-3.5572,0.0,0.0,0.0,0.0,0.0,-3.0889,-3.0889,-3.0889,-3.0889,-3.0889,-3.1005,-3.1112,-3.1892,-3.2196,-3.206,-3.4108,-3.4944,-3.4652,-3.5883,-3.6358,-3.6358,-3.6307,0.0,0.0,-3.4901,-3.4349,-3.3847,-3.3294,-3.2717,-3.2215,-3.2215,-3.1838,-3.1248,-3.0783,-3.0583,-3.0457,-2.9955,-3.0419,-3.1389,-3.2393,-3.331,-3.4245,-3.5213,-3.5504,-3.5654,-3.6312,-3.6492,-3.6573,-3.678,-3.6345,-3.5489,-3.4189,-3.37,-3.3336,-3.2294,-3.3341,-3.4252,-3.3779,-3.4823,-3.5511,-3.5064,-3.5318,-3.5504,-3.5504,-3.5504,-3.5489,-3.5415,-3.4801,-3.4143,-3.3544,-3.3499,-3.3499,-3.3499,-3.3499,-3.3769,-3.4367,-3.2577,-3.1833,-3.251,-3.0693,-2.9741,-2.9792,-2.9792,-2.9792,-2.9792,-2.9792,-2.9792,-3.578,-3.6835,-3.7249,-3.6144,-3.3545,-3.0419,-2.7193,0.0,-2.2372,-2.0238,-1.9798,-1.9798,-1.9798,-1.9798,-2.0137,-2.1154,-2.1217,0.0,-2.595,-2.7783,-2.994,-3.315,-3.3726,0.0,0.0,0.0,0.0,0.0,0.0,0.0,-3.0889,-3.0889,-3.0889,-3.0889,-3.0889,-3.0889,-3.0889,-3.1261,-3.1726,-3.2511,-3.2835,-3.3729,-3.5289,-3.5162,-3.5667,-3.6358,-3.6358,0.0,0.0,-3.509,-3.4587,-3.4311,-3.342,-3.293,-3.2729,-3.2729,-3.2378,-3.1851,-3.165,-3.116,-3.0649,-3.0997,-3.1182,-3.1389,-3.2321,-3.3241,-3.4245,-3.5213,-3.5789,-3.6252,-3.6881,-3.7183,-3.7288,-3.7399,-3.6242,-3.5056,-3.4498,-3.384,-3.3224,-3.2814,-3.3318,-3.403,-3.5102,-3.5446,-3.5762,-3.6373,-3.6261,-3.5953,-3.5549,-3.5504,-3.5504,-3.5504,-3.5265,-3.4996,-3.4726,-3.4696,-3.4696,-3.4696,-3.4696,-3.4816,-3.5085,-3.3232,-3.2358,-3.2593,-3.0784,-2.9792,-2.9792,-2.9792,-2.9792,-2.9792,-2.9792,-2.9792,-3.3608,-3.5127,-3.5981,-3.5052,-3.2441,-2.9428,0.0,0.0,-2.1832,-2.015,-1.9798,-1.9798,-1.9798,-1.9798,-1.9936,-2.0338,-2.0351,-2.1305,-2.4167,-2.5937,-2.8014,0.0,0.0,0.0,0.0,0.0,0.0,0.0,0.0,0.0,0.0,-3.0889,-3.0889,-3.0889,-3.0889,-3.0889,-3.0889,-3.0889,-3.1371,-3.22,-3.185,-3.2565,-3.4406,-3.4369,-3.4884,-3.587,0.0,0.0,0.0,-3.5177,-3.4726,-3.4613,-3.3508,-3.3081,-3.3056,-3.288,-3.2723,-3.2581,-3.2498,-3.2085,-3.1798,-3.2532,-3.2678,-3.2768,-3.342,-3.3944,-3.4564,-3.5718,-3.6537,-3.715,-3.7584,-3.7783,-3.7753,-3.742,-3.6001,-3.4581,-3.4275,-3.3641,-3.3081,-3.3081,-3.3398,-3.4108,-3.5894,-3.5947,-3.6187,-3.7471,-3.7165,-3.6522,-3.5878,-3.5804,-3.5729,-3.5534,-3.5504,-3.5504,-3.5504,-3.5504,-3.5504,-3.5504,-3.5504,-3.5359,-3.5067,-3.3463,-3.2464,-3.2177,-3.0633,-2.9792,-2.9792,-2.9792,-2.9792,-2.9792,-2.9792,-2.9792,-3.064,-3.2265,-3.3796,-3.3244,-3.1009,-2.836,-2.6113,-2.3891,-2.1832,-2.015,-1.9798,-1.9798,-1.9798,-1.9798,-1.9798,-1.9811,-2.074,-2.2058,-2.3766,-2.6364,0.0,0.0,0.0,0.0,0.0,0.0,0.0,0.0,0.0,0.0,0.0,-3.0889,-3.0889,-3.0889,-3.0889,-3.0889,-3.0889,-3.0889,-3.0654,-3.0195,-3.1164,-3.1461,-3.1116,-3.3407,-3.4385,0.0,0.0,0.0,0.0,-3.5177,-3.4726,-3.4613,-3.3508,-3.3081,-3.3006,-3.2441,-3.2867,-3.3646,-3.3146,-3.3607,-3.4389,-3.4505,-3.5173,-3.5956,-3.5956,-3.5523,-3.5302,-3.6906,-3.7853,-3.8362,-3.8377,-3.8121,-3.751,-3.6448,-3.544,-3.4428,-3.3313,-3.3081,-3.3081,-3.3081,-3.3953,-3.4979,-3.6053,-3.6547,-3.7157,-3.8221,-3.7823,-3.718,-3.6552,-3.6477,-3.6237,-3.5579,-3.5504,-3.5504,-3.5504,-3.5504,-3.5504,-3.5504,-3.5504,-3.5052,-3.4027,-3.3101,-3.2177,-3.1254,-3.0279,-2.9792,-2.9792,-2.9792,-2.9792,-2.9792,-2.9792,-2.9792,-2.749,-2.8837,-2.9804,-2.9252,-2.7607,-2.5636,-2.3778,-2.2234,-2.0828,-1.9535,-1.9547,-1.9798,-1.9798,-1.9798,-2.0062,-2.0828,-2.1568,-2.251,0.0,0.0,0.0,0.0,0.0,0.0,0.0,0.0,0.0,0.0,0.0,0.0,0.0,-3.0596,-3.0566,-3.0879,-3.0586,-3.042,-3.042,-3.0137,-2.9912,-2.9766,-2.9748,-3.0211,-3.1,-3.2363,0.0,0.0,0.0,0.0,0.0,-3.5027,-3.45,-3.4085,-3.3357,-3.283,-3.2466,-3.2277,-3.2841,-3.3753,-3.3568,-3.42,-3.5204,-3.5882,-3.6041,-3.6215,-3.7323,-3.7168,-3.6852,-3.7814,-3.8227,-3.8497,-3.8975,-3.8458,-3.7753,-3.7343,-3.6462,-3.5668,-3.5265,-3.5183,-3.5183,-3.5183,-3.5507,-3.6067,-3.7098,-3.7415,-3.768,-3.8311,-3.8212,-3.7689,-3.6626,-3.6492,-3.6237,-3.5579,-3.5504,-3.5504,-3.5504,-3.5504,-3.5504,-3.5504,-3.5504,-3.5359,-3.5052,-3.3463,-3.2464,-3.2177,-3.0646,-2.9792,-2.9792,-2.9792,-2.9792,-2.9792,-2.9792,-2.9792,-2.4443,-2.585,-2.6779,-2.644,-2.5109,0.0,-2.256,-2.1498,-2.0438,-1.9481,-1.9773,-2.0042,-1.9598,-1.9673,-1.9974,-2.0476,-2.1368,-2.2268,0.0,0.0,0.0,0.0,0.0,0.0,0.0,0.0,0.0,0.0,0.0,0.0,0.0,-3.0449,-3.0332,-3.0625,-3.0195,-2.9961,-2.9961,-2.9707,-2.957,-2.956,-2.9121,-2.9332,-3.0273,-3.1647,0.0,0.0,0.0,0.0,0.0,-3.4813,-3.4336,-3.4135,-3.337,-3.2855,-3.2588,-3.2765,-3.3456,-3.4391,-3.4862,-3.5711,-3.6671,-3.7535,-3.7565,-3.7474,-3.8489,-3.8497,-3.8257,-3.8661,-3.8781,-3.8871,-3.9305,-3.862,-3.7829,-3.7829,-3.7021,-3.6198,-3.6198,-3.6391,-3.6488,-3.6239,-3.6584,-3.7163,-3.7672,-3.803,-3.8289,-3.8728,-3.8781,-3.8392,-3.7345,-3.721,-3.6956,-3.6297,-3.6013,-3.5878,-3.5878,-3.5654,-3.5504,-3.5504,-3.5504,-3.5359,-3.4986,-3.3463,-3.2464,-3.2105,-3.057,-2.9792,-2.9792,-2.9792,-2.9792,-2.9792,-2.9792,-2.9792,0.0,-2.3251,-2.4456,-2.4456,-2.3288,-2.2211,-2.2161,-2.1496,0.0,-1.9974,-2.0351,-2.0466,-1.9321,-1.9497,-1.9698,-1.9371,-2.0548,-2.1592,0.0,0.0,0.0,0.0,0.0,0.0,0.0,0.0,0.0,0.0,0.0,0.0,0.0,-3.0371,-3.0107,-3.0107,-2.9697,-2.9492,-2.9521,-2.9492,-2.9482,-2.9473,-2.9072,-2.8877,-2.8966,-3.118,0.0,0.0,0.0,0.0,0.0,-3.4525,-3.4173,-3.45,-3.3557,-3.3215,-3.3186,-3.3734,-3.4522,-3.5516,-3.6585,-3.7563,-3.8437,-3.9125,-3.9349,-3.9349,-3.9409,-3.9424,-3.9424,-3.9424,-3.9424,-3.9424,-3.9424,-3.8634,-3.7919,-3.7919,-3.7175,-3.6448,-3.6448,-3.6906,-3.7157,-3.6559,-3.7459,-3.8229,-3.7954,-3.8395,-3.8993,-3.9354,-3.9424,-3.917,-3.8482,-3.8392,-3.8138,-3.7479,-3.6896,-3.6552,-3.647,-3.5842,-3.5504,-3.5504,-3.5504,-3.5052,-3.4027,-3.3101,-3.2177,-3.1254,-3.0279,-2.9792,-2.9792,-2.9792,-2.9792,-2.9792,-2.9792,-2.9792,-1.9585,0.0,-2.0978,-2.0978,-2.1051,-2.1067,0.0,-2.104,-2.1227,-2.0186,-2.04,-2.0701,-2.037,-2.0024,-2.0326,-2.185,-2.1871,-2.2202,0.0,0.0,0.0,0.0,0.0,0.0,0.0,0.0,0.0,0.0,0.0,0.0,0.0,-2.9639,-2.9219,-2.9219,-2.8809,-2.875,-2.9062,-2.875,-2.8594,-2.8584,-2.8486,-2.8437,-2.8525,-3.0697,0.0,0.0,0.0,0.0,-3.4449,-3.406,-3.3721,-3.3519,-3.414,-3.4071,-3.3721,-3.4695,-3.5342,-3.5898,-3.6129,-3.6816,-3.7749,-3.8422,-3.8631,-3.8736,-3.926,-3.9424,-3.9424,-3.9424,-3.9424,-3.9424,-3.9424,-3.9192,-3.9017,-3.9017,-3.8855,-3.862,-3.862,-3.8737,-3.8811,-3.8649,-3.8869,-3.9061,-3.8988,-3.915,-3.9283,-3.9367,-3.9424,-3.917,-3.8482,-3.8392,-3.8138,-3.7479,-3.7285,-3.6906,-3.611,-3.5733,-3.5504,-3.5504,-3.5504,-3.5052,-3.4027,-3.3101,-3.2177,-3.1254,-3.0279,-2.9792,-2.9792,-2.9792,-2.9792,-2.9792,-2.9792,-2.9792,-1.8568,-1.9208,-1.9964,-2.0566,-2.0742,-2.0864,-2.115,-2.1296,-2.1134,-2.0508,-2.058,-2.0588,-1.9871,-1.967,-1.9922,0.0,-2.1225,0.0,0.0,0.0,0.0,0.0,0.0,0.0,0.0,0.0,0.0,0.0,0.0,0.0,0.0,-2.9277,-2.8916,-2.8916,-2.833,-2.8203,-2.8633,-2.8408,-2.8291,-2.8291,-2.8291,-2.8193,-2.8094,-3.0439,-3.1381,0.0,0.0,0.0,-3.4236,-3.3734,-3.3591,-3.3771,-3.414,-3.4299,-3.4627,-3.5635,-3.6177,-3.6418,-3.695,-3.7405,-3.7913,-3.8272,-3.8601,-3.8931,-3.9305,-3.9424,-3.9424,-3.9424,-3.9424,-3.9424,-3.9424,-3.9424,-3.9424,-3.9424,-3.9424,-3.9424,-3.9424,-3.9649,-3.9783,-3.9484,-3.9903,-4.0127,-3.9529,-3.9664,-3.9768,-3.9469,-3.9424,-3.929,-3.8916,-3.8856,-3.8721,-3.8377,-3.7582,-3.6879,-3.636,-3.5208,-3.4557,-3.4557,-3.4283,-3.3905,-3.338,-3.2464,-3.1549,-3.0558,-3.0075,-2.9792,-2.9792,-2.9792,-2.9792,-2.9792,-2.9792,-2.9792,-1.8179,-1.9108,-2.0256,-2.1146,-2.1165,-2.1198,-2.2203,-2.1675,-2.0978,-2.0854,0.0,0.0,0.0,-1.9282,0.0,0.0,0.0,0.0,0.0,0.0,0.0,0.0,0.0,0.0,0.0,0.0,0.0,0.0,0.0,0.0,0.0,-2.9062,-2.8818,-2.8818,-2.8066,-2.7861,-2.8291,-2.8232,-2.8232,-2.8291,-2.8232,-2.8008,-2.7761,-2.9981,-3.096,0.0,0.0,0.0,-3.4399,-3.337,-3.3479,-3.4293,-3.403,-3.4551,-3.5543,-3.6656,-3.7012,-3.6997,-3.7827,-3.8167,-3.8257,-3.8362,-3.8721,-3.9155,-3.9364,-3.9349,-3.929,-3.9394,-3.9424,-3.9424,-3.9424,-3.9424,-3.9424,-3.9424,-3.9424,-3.9454,-3.9544,-3.9933,-4.0113,-3.9649,-4.0382,-4.0726,-3.9619,-3.9888,-4.0053,-3.9514,-3.9424,-3.9424,-3.9424,-3.9424,-3.9337,-3.9177,-3.7798,-3.6831,-3.6532,-3.4641,-3.341,-3.3261,-3.2818,-3.2522,-3.2393,-3.1462,-3.062,-2.9792,-2.9792,-2.9792,-2.9792,-2.9792,-2.9792,-2.9792,-2.9792,-2.9792,-1.8078,-1.9685,-2.097,-1.975,-2.0436,-2.1402,-2.1149,-2.1322,-2.1444,0.0,0.0,0.0,0.0,-2.037,-2.0796,0.0,0.0,0.0,0.0,0.0,0.0,0.0,0.0,0.0,0.0,0.0,0.0,0.0,0.0,0.0,0.0,0.0,-2.8389,-2.8389,-2.792,-2.7861,-2.8291,-2.7939,-2.7939,-2.8291,-2.793,-2.7725,-2.7741,-2.8353,-2.9181,0.0,0.0,-3.2311,-3.3282,-3.2616,-3.2714,-3.342,-3.4646,-3.5489,-3.6239,-3.7652,-3.7808,-3.7258,-3.6888,-3.712,-3.7659,-3.8212,-3.8093,-3.7928,-3.908,-3.9005,-3.8661,-3.926,-3.9424,-3.9424,-3.9424,-3.9424,-3.9424,-3.9424,-3.9424,-3.9574,-4.0127,-3.9888,-3.9709,-4.0172,-3.9963,-3.9649,-3.9454,-3.9514,-3.9529,-3.9439,-3.9424,-3.9424,-3.9424,-3.9424,-3.9031,-3.8144,-3.7818,-3.6971,-3.5157,-3.4206,-3.3342,-3.2421,-3.2554,-3.2249,-3.1462,-3.0482,-2.9934,-2.9792,-2.9792,-2.9792,-2.9792,-2.9792,-2.9792,-2.9792,-2.9792,-2.9792,-1.7689,-1.9133,-2.0388,-1.9635,-2.1183,-2.2828,-2.2409,-2.218,-2.1898,0.0,0.0,0.0,0.0,0.0,-2.1025,-2.233,0.0,0.0,0.0,0.0,0.0,0.0,0.0,0.0,0.0,0.0,0.0,0.0,0.0,0.0,0.0,0.0,-2.79,-2.8583,-2.8158,-2.8531,-2.9572,-2.9111,-2.8686,-2.8281,-2.7627,-2.7314,-2.7295,-2.7897,-2.8774,-2.9721,0.0,-3.1695,-3.2591,-3.2328,-3.2636,-3.3291,-3.4004,-3.5124,-3.6476,-3.7089,-3.7375,-3.727,-3.6282,-3.6596,-3.7404,-3.7375,-3.7883,-3.8542,-3.8781,-3.8901,-3.9005,-3.9334,-3.9424,-3.9424,-3.9424,-3.9424,-3.9514,-3.9858,-3.9679,-3.9694,-4.0711,-4.0127,-3.9619,-4.0277,-3.9873,-3.9424,-3.9424,-3.9424,-3.9544,-3.9903,-3.9649,-3.9544,-3.9903,-3.9092,-3.8383,-3.7829,-3.6802,-3.5775,-3.4746,-3.3645,-3.2503,-3.1386,-3.1448,-3.1172,-3.0508,-2.9998,-2.9792,-2.9792,-2.9792,-2.9792,-2.9792,-2.9792,-2.9792,-2.9792,-2.9792,-2.9792,-1.7765,-1.8957,-2.0125,-1.9874,-2.1428,-2.3049,-2.3122,-2.2405,-2.1625,-2.1362,0.0,0.0,0.0,-2.0124,0.0,0.0,0.0,0.0,0.0,0.0,0.0,0.0,0.0,0.0,0.0,0.0,0.0,0.0,0.0,0.0,0.0,0.0,-2.7975,-2.9218,-2.887,-2.9278,-3.0504,-3.0108,-2.9397,-2.838,-2.7617,-2.7149,-2.6846,-2.7256,-2.8115,-2.9228,-3.0093,-3.1074,-3.2026,-3.2026,-3.2512,-3.3268,-3.3564,-3.4825,-3.6492,-3.6492,-3.6791,-3.7075,-3.6237,-3.6686,-3.7584,-3.727,-3.8078,-3.911,-3.8736,-3.8886,-3.9215,-3.9379,-3.9424,-3.9424,-3.9424,-3.9424,-3.9589,-4.0247,-4.0023,-4.0008,-4.1324,-4.0576,-3.9815,-4.0367,-3.9921,-3.9382,-3.9224,-3.9488,-3.9828,-4.0322,-4.0113,-3.992,-4.0025,-3.8964,-3.7916,-3.7155,-3.5737,-3.4726,-3.4358,-3.3148,-3.2001,-3.106,-3.0871,-3.0557,-3.0005,-2.998,-2.993,-2.9792,-2.9792,-2.9792,-2.9792,-2.9792,-2.9792,-2.9792,-2.9792,-2.9792,-1.8858,-2.0112,-2.1117,-2.0062,-1.9875,-2.0217,-2.1402,-2.0719,-2.0102,-2.1217,0.0,0.0,0.0,-2.1155,0.0,0.0,0.0,0.0,0.0,0.0,0.0,0.0,0.0,0.0,0.0,0.0,0.0,0.0,0.0,0.0,0.0,0.0,0.0,-3.0477,-3.0097,-2.9864,-3.0003,-2.9606,-2.9216,-2.8728,-2.8348,-2.7564,-2.6406,-2.5643,-2.6496,-2.8612,-2.8319,-2.9397,-3.1449,-3.1449,-3.2008,-3.2907,-3.3957,-3.5196,-3.6492,-3.6492,-3.6507,-3.6626,-3.7105,-3.7734,-3.8422,-3.9005,-3.8871,-3.8571,-3.917,-3.8931,-3.8601,-3.923,-3.9424,-3.9424,-3.9424,-3.9424,-3.9589,-4.0247,-4.0367,-4.0696,-4.2013,-4.125,-4.0382,-4.0532,-3.9959,-3.9283,-3.8851,-3.9606,-4.0352,-4.0382,-4.0876,-4.0708,-3.9098,-3.924,-3.8305,-3.5263,-3.5222,-3.4849,-3.3364,-3.3116,-3.2754,-3.2139,-3.1625,-3.1097,-3.057,-3.0557,-3.0319,-2.9804,-2.9792,-2.9792,-2.9792,-2.9792,-2.9792,-2.9792,-2.9792,-2.9792,-1.8983,-2.0225,-2.1305,-2.0526,-2.0496,-2.0724,-2.1381,-2.1456,-2.1501,-2.172,-2.2505,0.0,0.0,0.0,0.0,0.0,0.0,0.0,0.0,0.0,0.0,0.0,0.0,0.0,0.0,0.0,0.0,0.0,0.0,0.0,0.0,0.0,0.0,-3.0499,-3.0012,-3.0097,-3.0817,-3.0699,-2.9817,-2.8217,-2.7617,-2.7284,-2.7074,-2.5426,-2.591,-2.8109,-2.8007,-2.9054,-3.0989,-3.1562,-3.2156,-3.2845,-3.4468,-3.5663,-3.6492,-3.6492,-3.6492,-3.6522,-3.6746,-3.7,-3.7255,-3.7509,-3.7958,-3.8437,-3.8691,-3.8901,-3.908,-3.9349,-3.9709,-4.0023,-4.0023,-3.9461,-3.9244,-4.0281,-3.9419,-3.8817,-4.0485,-3.9529,-3.8459,-3.8903,-3.9247,-3.9353,-3.8871,-4.0003,-4.1145,-4.1549,-4.0893,-4.0432,-4.1012,-3.8982,-3.7383,-3.6851,-3.5457,-3.4081,-3.3205,-3.3081,-3.298,-3.2767,-3.2215,-3.1662,-3.1122,-3.1097,-3.0997,-3.0796,-3.0783,-3.0783,-3.0783,-3.0783,-3.0783,-3.0783,-3.0783,-3.0783,-1.8983,-1.9849,-2.0665,-2.0451,-2.0905,0.0,-2.167,-2.2021,-2.237,-2.2457,-2.3063,-2.3584,-2.3457,0.0,0.0,0.0,0.0,0.0,0.0,0.0,0.0,0.0,0.0,0.0,0.0,0.0,0.0,0.0,0.0,0.0,0.0,0.0,0.0,0.0,-3.0374,-3.0453,-3.1148,-3.1311,-3.0345,-2.8208,-2.7436,-2.6869,-2.6568,-2.4911,-2.5437,-2.7595,-2.7536,-2.8562,-3.0435,-3.1538,-3.2536,-3.3466,-3.4927,-3.5774,-3.6178,-3.6178,-3.6178,-3.6207,-3.6417,-3.6492,-3.6552,-3.6956,-3.7674,-3.8437,-3.8646,-3.905,-3.9424,-3.9424,-3.9504,-3.9654,-3.9861,-3.9416,-3.9169,-3.989,-3.8823,-3.8117,-3.9581,-3.8753,-3.7731,-3.7997,-3.8561,-3.8975,-3.8828,-4.0139,-4.1326,-4.177,-4.1213,-4.0808,-4.0784,-3.8851,-3.7377,-3.7263,-3.5399,-3.3935,-3.3382,-3.3332,-3.3269,-3.3081,-3.2704,-3.224,-3.1675,-3.165,-3.1574,-3.1386,-3.1386,-3.1386,-3.1386,-3.1386,-3.1386,-3.1386,-3.1386,-3.1386,-1.8983,-1.8995,-1.9171,-1.9685,0.0,0.0,-2.2262,-2.2093,-2.2251,-2.3516,-2.3457,-2.3291,-2.3721,0.0,0.0,0.0,0.0,0.0,0.0,0.0,0.0,0.0,0.0,0.0,0.0,0.0,0.0,0.0,0.0,0.0,0.0,0.0,0.0,0.0,-3.1386,-3.1122,-3.062,-3.1122,-3.0585,-2.8857,-2.779,-2.6247,-2.4394,-2.3975,-2.4975,-2.7071,-2.6685,-2.7718,-2.9907,-3.1369,-3.3151,-3.4949,-3.5318,-3.5504,-3.5504,-3.5519,-3.5504,-3.5609,-3.6252,-3.6492,-3.6686,-3.7973,-3.8377,-3.8512,-3.9215,-3.9424,-3.9424,-3.9424,-3.862,-3.7987,-3.8606,-3.9161,-3.9444,-3.8977,-3.8861,-3.9026,-3.9761,-3.9316,-3.8696,-3.8169,-3.7946,-3.8088,-3.8765,-3.9883,-4.057,-4.0651,-4.2136,-4.1797,-3.7846,-3.8817,-3.8789,-3.5869,-3.5052,-3.45,-3.3947,-3.3897,-3.3658,-3.3106,-3.3081,-3.283,-3.224,-3.2227,-3.1964,-3.1411,-3.1411,-3.1411,-3.1411,-3.1411,-3.1411,-3.1411,-3.1411,-3.1411,-1.9572,-2.015,-2.079,-2.0953,0.0,0.0,0.0,-2.2961,0.0,0.0,-2.4131,-2.417,-2.4609,0.0,0.0,0.0,0.0,0.0,0.0,0.0,0.0,0.0,0.0,0.0,0.0,0.0,0.0,0.0,0.0,0.0,0.0,0.0,0.0,0.0,-3.047,-3.0193,-3.0043,-3.0193,-2.926,-2.7181,-2.6862,-2.6182,-2.5238,-2.386,-2.4502,-2.6685,-2.6539,-2.7718,-2.9946,-3.1662,-3.3537,-3.5333,-3.5434,-3.5504,-3.5564,-3.6028,-3.5893,-3.5609,-3.6252,-3.6178,-3.6013,-3.7285,-3.7704,-3.7913,-3.9065,-3.9424,-3.9265,-3.8472,-3.8402,-3.821,-3.6866,-3.6944,-3.7443,-3.7705,-3.6858,-3.6237,-3.7221,-3.6975,-3.6444,-3.6271,-3.7207,-3.8209,-3.8817,-4.0251,-4.1575,-4.2349,-4.2254,-4.1349,-3.9376,-4.0292,-4.0322,-3.8168,-3.6735,-3.5735,-3.5174,-3.4397,-3.3658,-3.3106,-3.3432,-3.3407,-3.2842,-3.2817,-3.2742,-3.2579,-3.2579,-3.2579,-3.2579,-3.2579,-3.2579,-3.2579,-3.2579,-3.2579,-1.9171,-1.9823,0.0,-2.1594,-2.317,-2.433,-2.3687,0.0,0.0,0.0,0.0,-2.4551,-2.498,0.0,0.0,0.0,0.0,0.0,0.0,0.0,0.0,0.0,0.0,0.0,0.0,0.0,0.0,0.0,0.0,0.0,0.0,0.0,0.0,0.0,-2.9967,-2.9792,-2.9792,-2.9792,-2.8712,-2.6483,-2.6483,-2.5877,-2.461,-2.3583,-2.4307,-2.6554,-2.7808,-2.9319,-3.1071,-3.2536,-3.4109,-3.5504,-3.5504,-3.5504,-3.5549,-3.5953,-3.5848,-3.5564,-3.5953,-3.5833,-3.5714,-3.7,-3.7404,-3.7659,-3.9005,-3.9104,-3.862,-3.7994,-3.7473,-3.6872,-3.5512,-3.5201,-3.534,-3.6132,-3.5468,-3.4964,-3.5843,-3.578,-3.5604,-3.583,-3.6747,-3.7652,-3.8506,-3.9522,-4.0462,-4.1155,-4.0632,-4.029,-4.0575,-4.0746,-4.0506,-3.9446,-3.8487,-3.7343,-3.6114,-3.5496,-3.4627,-3.323,-3.3596,-3.3658,-3.3106,-3.3081,-3.3081,-3.3081,-3.3081,-3.3081,-3.3081,-3.3081,-3.3081,-3.3081,-3.3081,-3.3081,-1.8234,-1.8707,-1.9647,-2.1666,-2.3135,0.0,-2.4185,-2.4003,-2.3955,-2.4727,0.0,-2.4531,0.0,0.0,0.0,0.0,0.0,0.0,0.0,0.0,0.0,0.0,0.0,0.0,0.0,0.0,0.0,0.0,0.0,0.0,0.0,0.0,0.0,0.0,-2.9806,-2.9716,-2.9716,-2.9666,-2.8591,0.0,-2.6405,-2.5262,-2.3135,-2.3135,-2.4286,-2.6569,-2.977,-3.1675,-3.2595,-3.3573,-3.461,-3.5504,-3.5504,-3.5504,-3.5504,-3.5504,-3.5504,-3.5504,-3.5504,-3.5504,-3.5714,-3.6926,-3.736,-3.7644,-3.8788,-3.8502,-3.7753,-3.7601,-3.6174,-3.4664,-3.4594,-3.3797,-3.3332,-3.4336,-3.465,-3.4876,-3.5336,-3.5579,-3.5768,-3.6257,-3.6358,-3.6803,-3.7939,-3.8107,-3.8107,-3.8289,-3.8366,-3.9156,-4.1322,-4.0746,-4.0246,-4.0246,-4.0104,-3.9102,-3.6884,-3.7069,-3.6061,-3.333,-3.3621,-3.3658,-3.3106,-3.3081,-3.3081,-3.3081,-3.3081,-3.3081,-3.3081,-3.3081,-3.3081,-3.3081,-3.3081,-3.3081,-1.8661,-1.9445,0.0,0.0,-2.2706,-2.4132,-2.4556,-2.3973,-2.333,-2.3516,-2.4014,0.0,0.0,0.0,0.0,0.0,0.0,0.0,0.0,0.0,0.0,0.0,0.0,0.0,0.0,0.0,0.0,0.0,0.0,0.0,0.0,0.0,0.0,-3.0895,-2.9694,-2.9114,-2.9114,-2.8687,-2.7569,0.0,-2.5797,-2.4858,-2.3135,-2.3135,-2.4111,-2.5947,-2.9214,-3.1083,-3.2069,-3.3471,-3.461,-3.5504,-3.5504,-3.5504,-3.5504,-3.5504,-3.5504,-3.5504,-3.5504,-3.5504,-3.5639,-3.6432,-3.7015,-3.7401,-3.7361,-3.7575,-3.7434,-3.5855,-3.5061,-3.4511,-3.3628,-3.324,-3.3131,-3.337,-3.4085,-3.4876,-3.5336,-3.5881,-3.6219,-3.6332,-3.6358,-3.6803,-3.7939,-3.8107,-3.8379,-3.936,-4.0304,-4.107,-4.1504,-4.2208,-4.2563,-4.2563,-4.1415,-3.9982,-3.8611,-3.7343,-3.58,-3.3859,-3.3834,-3.3658,-3.3106,-3.3081,-3.3081,-3.3081,-3.3081,-3.3081,-3.3081,-3.3081,-3.3081,-3.3081,-3.3081,-3.3081,-1.8193,0.0,0.0,-2.0721,0.0,-2.3752,-2.3716,-2.3242,-2.2891,-2.3096,0.0,0.0,0.0,0.0,0.0,0.0,0.0,0.0,0.0,0.0,0.0,0.0,0.0,0.0,0.0,0.0,0.0,0.0,0.0,0.0,0.0,-3.1057,-3.0766,-3.0349,-2.958,-2.8941,-2.8536,-2.7767,-2.6669,-2.5295,-2.4807,-2.414,-2.3251,-2.3959,-2.5153,-2.6759,-2.9405,-3.1323,-3.2518,-3.3732,-3.4756,-3.5504,-3.5504,-3.5504,-3.5504,-3.5504,-3.5504,-3.5504,-3.5504,-3.5504,-3.5609,-3.6267,-3.6609,-3.6728,-3.6808,-3.6603,-3.6094,-3.4979,-3.4345,-3.3797,-3.324,-3.3081,-3.3081,-3.3081,-3.352,-3.4161,-3.4977,-3.5378,-3.573,-3.6257,-3.6358,-3.6628,-3.715,-3.7322,-3.7678,-3.8827,-4.0045,-4.1,-4.1504,-4.2111,-4.2467,-4.2467,-4.1231,-3.9802,-3.8301,-3.7397,-3.6022,-3.4035,-3.3897,-3.3658,-3.3106,-3.3081,-3.3081,-3.3081,-3.3332,-3.347,-3.347,-3.347,-3.347,-3.347,-3.3206,-3.3081,-1.7798,0.0,-1.8999,-2.0307,-2.1868,0.0,-2.2345,-2.2353,-2.25,0.0,0.0,0.0,0.0,0.0,0.0,0.0,0.0,0.0,0.0,0.0,0.0,0.0,0.0,0.0,0.0,0.0,0.0,0.0,0.0,0.0,-3.1432,-3.0976,-3.0255,-2.9369,-2.9148,-2.8698,-2.7821,-2.6809,-2.5925,-2.5102,-2.4165,-2.3827,-2.3967,-2.524,-2.6488,-2.7673,-2.9902,-3.1603,-3.2869,-3.4036,-3.4816,-3.534,-3.5459,-3.5504,-3.5504,-3.5504,-3.5504,-3.5504,-3.5504,-3.5504,-3.5594,-3.6148,-3.609,-3.5798,-3.6141,-3.5361,-3.4386,-3.4327,-3.3643,-3.2955,-3.3056,-3.3081,-3.3081,-3.3081,-3.3081,-3.3357,-3.4361,-3.465,-3.5027,-3.6019,-3.6295,-3.6358,-3.6358,-3.6358,-3.6709,-3.7678,-3.8827,-3.9972,-4.1169,-4.1337,-4.142,-4.1587,-4.0575,-3.9202,-3.748,-3.7246,-3.623,-3.4048,-3.3809,-3.3558,-3.3093,-3.3169,-3.3219,-3.3219,-3.3671,-3.3947,-3.4035,-3.3947,-3.3947,-3.4022,-3.3382,-3.3131,-1.8626,0.0,-1.8903,0.0,-2.089,-2.1085,0.0,0.0,0.0,0.0,0.0,0.0,0.0,0.0,0.0,0.0,0.0,0.0,0.0,0.0,0.0,0.0,0.0,0.0,0.0,0.0,0.0,0.0,0.0,0.0,-3.1211,-3.1048,-3.0432,-2.9073,-2.8278,-2.7449,-2.6747,-2.5729,-2.5288,-2.5491,-2.4934,-2.5238,-2.6455,-2.6613,-2.6816,-2.7168,-2.9914,-3.1272,-3.1633,-3.365,-3.4532,-3.4666,-3.5265,-3.5504,-3.5504,-3.5504,-3.5504,-3.5504,-3.5504,-3.5504,-3.5519,-3.5609,-3.5413,-3.4966,-3.4078,-3.3593,-3.3119,-3.2663,-3.2399,-3.2441,-3.2943,-3.3081,-3.3081,-3.3081,-3.3081,-3.3257,-3.3872,-3.4387,-3.4901,-3.5529,-3.6031,-3.6358,-3.6358,-3.6358,-3.6452,-3.6628,-3.7586,-3.8738,-3.9972,-4.0159,-4.049,-4.1504,-4.0575,-3.9202,-3.748,-3.6875,-3.58,-3.4023,-3.3445,-3.3156,-3.3081,-3.3533,-3.3796,-3.3796,-3.3859,-3.4135,-3.4613,-3.4135,-3.4148,-3.4587,-3.3558,-3.3332,-1.8454,-1.8047,-1.7936,0.0,-1.9101,-1.96,-2.0049,0.0,0.0,0.0,0.0,0.0,0.0,0.0,0.0,0.0,0.0,0.0,0.0,0.0,0.0,0.0,0.0,0.0,0.0,0.0,0.0,0.0,0.0,-3.0623,-3.0778,-3.0045,-2.9106,-2.7994,-2.7202,-2.6401,-2.5548,-2.4546,-2.4015,-2.4028,-2.5132,-2.5948,-2.6628,-2.8107,-2.8777,-2.8906,-3.012,-3.1384,-3.2517,-3.3153,-3.3814,-3.4502,-3.4801,-3.4936,-3.4981,-3.537,-3.5504,-3.5504,-3.5504,-3.5504,-3.5439,-3.4839,-3.439,-3.394,-3.2915,-3.2383,-3.2124,-3.2218,-3.1989,-3.1951,-3.2855,-3.283,-3.2667,-3.3006,-3.3081,-3.3144,-3.3382,-3.3872,-3.4512,-3.5378,-3.5994,-3.6358,-3.6358,-3.6358,-3.6358,-3.6358,-3.7415,-3.8289,-3.8827,-3.8917,-3.9081,-3.9596,-3.8354,-3.7104,-3.6328,-3.5506,-3.474,-3.3909,-3.3382,-3.3219,-3.352,-3.3771,-3.4186,-3.4813,-3.4826,-3.4939,-3.519,-3.4625,-3.4487,-3.47,-3.3583,-3.3206,0.0,0.0,-1.726,-1.7092,-1.7614,-1.8262,0.0,0.0,0.0,0.0,0.0,0.0,0.0,0.0,0.0,0.0,0.0,0.0,0.0,0.0,0.0,0.0,0.0,0.0,0.0,0.0,0.0,0.0,0.0,-2.949,-2.9722,-2.872,-2.7641,-2.6517,-2.6069,-2.5439,-2.4607,-2.3981,-2.3482,-2.3081,-2.5345,-2.6624,-2.7087,-2.9275,-3.0389,-3.0584,-3.0584,-3.1514,-3.2976,-3.2647,-3.3095,-3.4008,-3.4352,-3.4472,-3.4562,-3.525,-3.5504,-3.5504,-3.5504,-3.5359,-3.4986,-3.4245,-3.348,-3.2684,-3.204,-3.1383,-3.1097,-3.165,-3.1599,-3.1612,-3.2604,-3.2641,-3.2541,-3.2968,-3.3081,-3.3081,-3.3081,-3.3621,-3.4349,-3.5177,-3.5893,-3.6358,-3.6358,-3.6358,-3.6358,-3.6358,-3.715,-3.7756,-3.8017,-3.7848,-3.7756,-3.8107,-3.6698,-3.5642,-3.5353,-3.4575,-3.3985,-3.3709,-3.3432,-3.347,-3.3884,-3.4173,-3.47,-3.5437,-3.568,-3.5755,-3.5755,-3.5064,-3.4864,-3.5115,-3.3859,-3.337,0.0,-1.8112,0.0,-1.7244,-1.6991,0.0,0.0,0.0,0.0,0.0,0.0,0.0,0.0,0.0,0.0,0.0,0.0,0.0,0.0,0.0,0.0,0.0,0.0,0.0,0.0,0.0,0.0,0.0,0.0,-2.9,-2.7755,-2.7573,-2.6595,-2.4514,-2.4912,-2.4793,-2.4042,-2.4493,-2.4546,-2.4151,-2.597,-2.7568,-2.8862,-2.9875,-3.0718,-3.1409,-3.1409,-3.1511,-3.1616,-3.2273,-3.2557,-3.2736,-3.3978,-3.4472,-3.4562,-3.525,-3.5504,-3.5504,-3.5504,-3.4905,-3.4095,-3.4027,-3.2763,-3.1294,-3.122,-3.0622,-2.9993,-3.0545,-3.1035,-3.1524,-3.2102,-3.2641,-3.3043,-3.3068,-3.3081,-3.3081,-3.3081,-3.3922,-3.47,-3.4751,-3.5629,-3.6358,-3.6358,-3.6358,-3.6358,-3.6358,-3.6452,-3.6883,-3.7939,-3.715,-3.6883,-3.803,-3.7031,-3.5893,-3.4851,-3.4713,-3.4236,-3.3181,-3.3583,-3.3872,-3.3897,-3.4901,-3.5399,-3.5542,-3.6056,-3.632,-3.632,-3.524,-3.5265,-3.6232,-3.4613,-3.4135,0.0,0.0,0.0,-1.7192,-1.6974,-1.6941,0.0,0.0,0.0,0.0,0.0,0.0,0.0,0.0,0.0,0.0,0.0,0.0,0.0,0.0,0.0,0.0,0.0,0.0,0.0,0.0,0.0,0.0,0.0,0.0,-2.6938,-2.5939,-2.5111,-2.4292,-2.3974,-2.3669,-2.3439,-2.4474,-2.5138,-2.5409,-2.7468,-2.8914,-2.9889,-3.0703,-3.1219,-3.1482,-3.1482,-3.1721,-3.2153,-3.1958,-3.2138,-3.2557,-3.3036,-3.3469,-3.3918,-3.4607,-3.513,-3.5504,-3.5504,-3.4839,-3.3876,-3.331,-3.2249,-3.1106,-3.0482,-3.0075,-2.998,-3.0871,-3.0997,-3.1185,-3.2441,-3.2641,-3.2616,-3.2993,-3.3081,-3.3081,-3.3081,-3.3671,-3.4299,-3.465,-3.5328,-3.5956,-3.6295,-3.6358,-3.6358,-3.6358,-3.6358,-3.6534,-3.6977,-3.6628,-3.6534,-3.6977,-3.6311,-3.568,-3.529,-3.4926,-3.4562,-3.4161,-3.4324,-3.4587,-3.4939,-3.5341,-3.5705,-3.6056,-3.6257,-3.6358,-3.6358,-3.5617,-3.5454,-3.5818,-3.4864,-3.4537,-1.9384,0.0,0.0,0.0,0.0,-1.6777,0.0,0.0,0.0,0.0,0.0,0.0,0.0,0.0,0.0,0.0,0.0,0.0,0.0,0.0,0.0,0.0,0.0,0.0,0.0,0.0,0.0,0.0,0.0,0.0,-2.619,-2.4951,-2.4176,-2.3884,-2.3365,-2.3245,-2.3484,-2.438,-2.5362,-2.6499,-2.8203,-2.9448,-3.0329,-3.1146,-3.1482,-3.1482,-3.1482,-3.1779,-3.2153,-3.1661,-3.1735,-3.2213,-3.2422,-3.2916,-3.3574,-3.4233,-3.4698,-3.4986,-3.4986,-3.4124,-3.2961,-3.2321,-3.1476,-3.062,-3.0011,-2.9792,-2.998,-3.0884,-3.1009,-3.1122,-3.2227,-3.2227,-3.2077,-3.2654,-3.278,-3.2842,-3.3031,-3.3508,-3.406,-3.4613,-3.5165,-3.5717,-3.627,-3.6358,-3.6358,-3.6358,-3.6358,-3.6358,-3.6358,-3.6358,-3.6358,-3.6358,-3.6031,-3.5742,-3.5567,-3.5203,-3.4914,-3.4726,-3.4901,-3.5165,-3.5529,-3.5717,-3.5994,-3.6358,-3.6358,-3.6358,-3.6358,-3.5805,-3.5642,-3.5805,-3.5253,-3.4901,0.0,0.0,0.0,0.0,0.0,0.0,0.0,0.0,0.0,0.0,0.0,0.0,0.0,0.0,0.0,0.0,0.0,0.0,0.0,0.0,0.0,0.0,0.0,0.0,0.0,0.0,0.0,0.0,0.0,-2.5426,-2.537,-2.4681,-2.3884,-2.3138,-2.3138,-2.3543,-2.4292,-2.435,-2.5329,-2.7252,-2.8054,-2.9074,-3.0329,-3.1161,-3.1482,-3.1482,-3.1482,-3.1482,-3.1482,-3.1482,-3.1482,-3.1541,-3.2243,-3.2886,-3.3544,-3.4203,-3.4236,-3.3998,-3.3945,-3.2749,-3.118,-3.118,-3.0558,-2.9792,-2.9792,-2.9792,-2.9917,-3.0482,-3.0997,-3.1373,-3.1386,-3.1399,-3.1549,-3.2089,-3.2227,-3.239,-3.2955,-3.3495,-3.4035,-3.4613,-3.5152,-3.5705,-3.6257,-3.6358,-3.6358,-3.6358,-3.6358,-3.6358,-3.6358,-3.6358,-3.6358,-3.6358,-3.6358,-3.6144,-3.5617,-3.5567,-3.5341,-3.4776,-3.5265,-3.5567,-3.5542,-3.6069,-3.6358,-3.6358,-3.6358,-3.6358,-3.6358,-3.583,-3.5843,-3.6358,-3.5818,-3.5278,-1.9798,0.0,0.0,0.0,0.0,0.0,0.0,0.0,0.0,0.0,0.0,0.0,0.0,0.0,0.0,0.0,0.0,0.0,0.0,0.0,0.0,0.0,0.0,0.0,0.0,0.0,0.0,0.0,-2.442,-2.4189,-2.4597,-2.3884,-2.3305,-2.3138,-2.3649,-2.406,-2.4292,-2.5342,-2.6608,-2.8054,-2.8902,-2.9959,-3.1161,-3.1409,-3.1482,-3.1482,-3.1482,-3.1482,-3.1482,-3.1482,-3.1482,-3.1497,-3.1676,-3.2213,-3.2796,-3.2786,-3.3028,-3.3303,-3.3086,-3.2177,-3.118,-3.118,-3.0558,-2.9792,-2.9792,-2.9792,-2.998,-3.0922,-3.1009,-3.0922,-3.1298,-3.1687,-3.2026,-3.2177,-3.2528,-3.288,-3.3043,-3.3206,-3.3583,-3.4537,-3.4851,-3.5253,-3.6194,-3.6358,-3.6358,-3.6358,-3.6358,-3.6358,-3.6358,-3.6358,-3.6358,-3.6358,-3.6358,-3.6295,-3.6157,-3.6132,-3.5906,-3.5353,-3.583,-3.5968,-3.5567,-3.6069,-3.6358,-3.6358,-3.6358,-3.6358,-3.6358,-3.6207,-3.6219,-3.6358,-3.6207,-3.5843,-1.9768,-1.9543,-1.9146,-1.8279,0.0,0.0,-1.6708,-1.681,0.0,0.0,0.0,0.0,0.0,0.0,0.0,0.0,0.0,0.0,0.0,0.0,0.0,0.0,0.0,0.0,0.0,0.0,0.0,-2.4876,-2.3946,-2.3502,-2.38,-2.3365,-2.3245,-2.3603,-2.406,-2.4744,-2.5601,-2.6196,-2.7422,-2.9268,-2.9506,-3.0268,-3.1482,-3.1482,-3.1482,-3.1482,-3.1482,-3.1482,-3.1482,-3.1482,-3.1482,-3.1467,-3.1146,-3.1412,-3.1924,-3.164,-3.1738,-3.1972,-3.1987,-3.1402,-3.0633,-3.0633,-3.0279,-2.9792,-2.9792,-2.9792,-2.9967,-3.0834,-3.0846,-3.0683,-3.0984,-3.1135,-3.126,-3.1486,-3.1964,-3.2428,-3.2667,-3.2905,-3.3332,-3.4211,-3.4562,-3.5002,-3.5868,-3.6207,-3.6358,-3.6358,-3.6358,-3.6358,-3.6358,-3.6358,-3.6358,-3.6358,-3.6358,-3.6358,-3.6358,-3.6358,-3.6219,-3.5906,-3.6194,-3.6219,-3.5893,-3.6194,-3.6358,-3.6358,-3.6358,-3.6358,-3.6358,-3.6358,-3.6358,-3.6358,-3.6358,-3.6069,-1.9829,-1.9159,-1.8429,-1.7535,0.0,0.0,-1.6662,-1.6765,-1.6796,0.0,0.0,0.0,0.0,0.0,0.0,0.0,0.0,0.0,0.0,0.0,0.0,0.0,0.0,0.0,0.0,-2.4245,-2.4454,-2.5203,-2.4,-2.3251,-2.3113,-2.3078,-2.3484,-2.4292,-2.4408,-2.5379,-2.74,-2.6963,-2.7993,-3.0387,-2.9909,-3.0272,-3.1351,-3.1467,-3.1467,-3.1351,-3.1467,-3.1482,-3.1482,-3.1409,-3.1351,-3.1278,-3.0584,-3.0585,-3.0931,-3.0665,-3.0416,-3.0336,-3.0816,-3.043,-2.9792,-2.9792,-2.9792,-2.9792,-2.9792,-2.9792,-2.9892,-3.0382,-3.057,-3.0608,-3.0545,-3.0206,-3.0005,-3.0507,-3.106,-3.1599,-3.2026,-3.2579,-3.3131,-3.3621,-3.4211,-3.4801,-3.5353,-3.5855,-3.6182,-3.6182,-3.6232,-3.627,-3.627,-3.632,-3.6358,-3.6358,-3.6358,-3.6358,-3.6358,-3.6358,-3.6332,-3.627,-3.632,-3.6332,-3.627,-3.632,-3.6358,-3.6358,-3.6358,-3.6358,-3.6358,-3.6358,-3.6358,-3.6358,-3.6358,-3.6094,-1.9851,-1.924,0.0,0.0,0.0,0.0,-1.7612,-1.8286,-1.8984,0.0,0.0,0.0,0.0,0.0,0.0,0.0,0.0,0.0,0.0,0.0,0.0,0.0,0.0,0.0,0.0,-2.251,-2.2615,-2.362,-2.3386,-2.3144,-2.3125,-2.3078,-2.3484,-2.4292,-2.4908,-2.5674,-2.6697,-2.7703,-2.874,-2.9759,-3.0148,-3.0377,-3.0584,-3.1219,-3.1161,-3.0584,-3.1219,-3.1482,-3.1467,-3.0777,-3.0524,-3.0524,-3.0329,-2.9946,-2.9364,-2.904,-2.9233,-2.9574,-2.9385,-2.9542,-2.9792,-2.9792,-2.9792,-2.9792,-2.9792,-2.9792,-2.9817,-2.993,-3.0269,-3.052,-3.0068,-3.0206,-3.0482,-3.0595,-3.1348,-3.1951,-3.1625,-3.1989,-3.2416,-3.2516,-3.337,-3.4236,-3.4788,-3.4964,-3.5039,-3.5039,-3.5416,-3.5705,-3.5705,-3.6094,-3.6358,-3.6358,-3.6358,-3.6358,-3.6358,-3.6358,-3.6169,-3.573,-3.6119,-3.6157,-3.573,-3.6119,-3.6358,-3.6358,-3.6358,-3.6358,-3.6358,-3.6358,-3.6358,-3.6358,-3.6358,-3.6307,0.0,0.0,0.0,-1.728,0.0,0.0,0.0,-1.8167,-1.8855,0.0,0.0,0.0,0.0,0.0,0.0,0.0,0.0,0.0,0.0,0.0,0.0,0.0,0.0,0.0,0.0,-2.2331,-2.2297,-2.2794,-2.2723,-2.2849,-2.3065,-2.3484,-2.4047,-2.4838,-2.5563,-2.644,-2.7533,-2.7842,-2.8433,-2.9471,-2.9349,-2.9397,-2.969,-3.0072,-3.0011,-2.969,-3.0072,-3.0269,-3.0208,-2.9827,-2.938,-2.9002,-2.9002,-2.8748,-2.8314,-2.8043,-2.828,-2.88,-2.8874,-2.9315,-2.9792,-2.9792,-2.9792,-2.9792,-2.9792,-2.9792,-2.9792,-2.9792,-2.9993,-3.0143,-2.9867,-2.9993,-3.0206,-3.0206,-3.1022,-3.1725,-3.1449,-3.2051,-3.2641,-3.2641,-3.3106,-3.3658,-3.4223,-3.4537,-3.4726,-3.4726,-3.519,-3.5542,-3.5542,-3.6031,-3.6358,-3.6358,-3.6358,-3.6358,-3.6358,-3.6358,-3.6245,-3.5968,-3.6207,-3.6232,-3.5968,-3.6219,-3.6358,-3.6358,-3.6358,-3.6358,-3.6358,-3.6358,-3.6358,-3.6358,-3.6358,-3.6061,0.0,0.0,0.0,0.0,0.0,-1.6313,0.0,0.0,0.0,0.0,0.0,0.0,0.0,0.0,0.0,0.0,0.0,0.0,0.0,0.0,0.0,0.0,0.0,0.0,0.0,-2.2391,-2.2299,-2.2178,-2.2246,-2.2556,-2.3115,-2.3878,-2.4681,-2.5563,-2.629,-2.721,-2.8352,-2.7897,-2.8111,-2.9023,-2.846,-2.8408,-2.8748,-2.8939,-2.8939,-2.8748,-2.8939,-2.9002,-2.9002,-2.8812,-2.8298,-2.767,-2.767,-2.7604,-2.7496,-2.7335,-2.7632,-2.8185,-2.8737,-2.9315,-2.9792,-2.9792,-2.9792,-2.9792,-2.9792,-2.9792,-2.9792,-2.9792,-2.9792,-2.9792,-2.9792,-2.9792,-2.9792,-2.9792,-3.0532,-3.1248,-3.1248,-3.2039,-3.278,-3.2893,-3.2918,-3.3081,-3.3646,-3.411,-3.4399,-3.4399,-3.4876,-3.5174,-3.4984,-3.5569,-3.5987,-3.5886,-3.6,-3.6044,-3.6044,-3.6144,-3.6207,-3.6207,-3.6307,-3.6358,-3.6358,-3.6358,-3.6358,-3.6358,-3.6358,-3.6358,-3.6358,-3.6156,-3.5966,-3.5966,-3.5966,-3.5271,0.0,0.0,0.0,0.0,-1.7684,0.0,0.0,0.0,0.0,-1.9759,0.0,0.0,0.0,0.0,0.0,0.0,0.0,0.0,0.0,0.0,0.0,0.0,0.0,0.0,0.0,0.0,-2.1617,-2.1581,-2.2033,-2.2611,-2.3319,-2.3945,-2.4951,-2.6336,-2.7043,-2.7414,-2.7458,-2.8541,-2.8748,-2.8166,-2.8643,-2.8488,-2.7855,-2.862,-2.8556,-2.7855,-2.8684,-2.9002,-2.8939,-2.8182,-2.7802,-2.767,-2.767,-2.7297,-2.6653,-2.715,-2.7632,-2.8185,-2.8737,-2.9315,-2.9792,-2.9792,-2.9792,-2.9792,-2.9792,-2.9792,-2.9792,-2.9792,-2.9792,-2.9792,-2.9792,-2.9792,-2.9792,-2.9792,-3.0256,-3.0708,-3.0708,-3.1173,-3.1725,-3.2215,-3.2303,-3.2491,-3.3068,-3.3219,-3.3269,-3.3269,-3.3734,-3.3789,-3.3107,-3.4096,-3.4607,-3.3911,-3.4521,-3.4914,-3.4914,-3.5353,-3.5642,-3.5642,-3.6094,-3.6358,-3.6358,-3.6358,-3.6358,-3.6358,-3.6358,-3.6358,-3.6358,-3.5174,-3.4581,-3.4581,-3.4581,-3.3871,0.0,0.0,0.0,0.0,0.0,0.0,-1.8544,0.0,-1.9151,0.0,0.0,0.0,0.0,0.0,0.0,0.0,-1.7958,0.0,0.0,0.0,0.0,0.0,0.0,0.0,0.0,0.0,0.0,0.0,0.0,-2.2776,-2.3369,-2.4778,-2.5837,-2.6457,-2.7193,-2.7486,-2.7279,-2.7767,-2.7732,-2.722,-2.7446,-2.7351,-2.704,-2.7351,-2.7351,-2.704,-2.7417,-2.7537,-2.755,-2.7162,-2.6973,-2.6973,-2.6973,-2.6782,-2.6559,-2.6716,-2.7356,-2.8134,-2.8373,-2.9038,-2.9792,-2.9792,-2.9792,-2.9792,-2.9792,-2.9792,-2.9792,-2.9792,-2.9792,-2.9792,-2.9792,-2.9792,-2.9792,-2.9792,-3.0218,-3.062,-3.062,-3.1273,-3.1938,-3.2177,-3.1846,-3.1685,-3.1928,-3.2612,-3.2884,-3.214,-3.2515,-3.2762,-3.242,-3.31,-3.3562,-3.3207,-3.4084,-3.4726,-3.4726,-3.4939,-3.5064,-3.5064,-3.5278,-3.5554,-3.5868,-3.5893,-3.6031,-3.6358,-3.5667,-3.5271,-3.5271,-3.3859,-3.2744,-3.2039,-3.2855,-3.2443,-1.8008,0.0,0.0,0.0,0.0,0.0,0.0,0.0,0.0,0.0,0.0,0.0,0.0,0.0,-1.9556,-1.8377,0.0,-1.7562,0.0,0.0,0.0,0.0,0.0,0.0,0.0,0.0,0.0,0.0,-2.1904,-2.295,-2.3689,-2.5339,-2.6428,-2.6774,-2.7484,-2.7764,-2.7607,-2.7346,-2.7168,-2.696,-2.6646,-2.6533,-2.6533,-2.6533,-2.6533,-2.6533,-2.6533,-2.6533,-2.6533,-2.6533,-2.6533,-2.6533,-2.6533,-2.6533,-2.6546,-2.6697,-2.7293,-2.8134,-2.8285,-2.8976,-2.9792,-2.9792,-2.9792,-2.9792,-2.9792,-2.9792,-2.9792,-2.9792,-2.9792,-2.9792,-2.9792,-2.9792,-2.9792,-2.9792,-3.0093,-3.0432,-3.0583,-3.1336,-3.1943,-3.1732,-3.1402,-3.0944,-3.0316,-3.1235,-3.1789,-3.0855,-3.1093,-3.1307,-3.1067,-3.1576,-3.1961,-3.209,-3.3126,-3.3891,-3.4274,-3.4412,-3.4562,-3.4713,-3.4726,-3.4964,-3.5516,-3.5542,-3.5606,-3.5858,-3.4884,-3.4178,-3.3773,-3.2443,-3.1224,-3.0317,-3.1327,-3.1019,0.0,0.0,0.0,-1.7988,0.0,0.0,0.0,0.0,-1.9878,0.0,0.0,0.0,0.0,-1.9825,-1.9472,-1.8402,-1.8608,0.0,0.0,0.0,0.0,0.0,0.0,0.0,0.0,0.0,0.0,-2.0785,-2.1903,-2.3188,-2.4566,-2.52,-2.6156,-2.7545,-2.8218,-2.8473,-2.8297,-2.8075,-2.7881,-2.7644,-2.6905,-2.6533,-2.6533,-2.6533,-2.6533,-2.6533,-2.6533,-2.6533,-2.6533,-2.6533,-2.6533,-2.6533,-2.6533,-2.6533,-2.6596,-2.7055,-2.762,-2.8185,-2.8712,-2.9289,-2.9792,-2.9792,-2.9792,-2.9792,-2.9792,-2.9792,-2.9792,-2.9792,-2.9792,-2.9792,-2.9792,-2.9792,-2.9792,-2.9792,-2.9804,-2.9967,-3.0507,-3.1035,-3.122,-3.0601,-3.0866,-3.0496,-2.8143,-2.868,-2.9498,-2.9498,-2.951,-2.9227,-2.8391,-2.8997,-2.9631,-3.009,-3.0833,-3.1825,-3.3045,-3.3621,-3.4161,-3.4688,-3.4726,-3.4964,-3.5516,-3.5542,-3.5219,-3.4471,-3.4385,-3.3773,-3.2331,-3.103,-3.0317,-3.0317,-3.0317,-2.9608,0.0,0.0,-1.8008,-1.8008,0.0,0.0,0.0,0.0,0.0,0.0,0.0,0.0,0.0,-1.9798,-1.9572,-1.8869,-1.8877,-1.8754,0.0,0.0,0.0,0.0,0.0,0.0,0.0,0.0,0.0,-2.0758,-2.1946,-2.3269,0.0,-2.5648,-2.6674,-2.7545,-2.7799,-2.7749,-2.7446,-2.7373,-2.7189,-2.6905,-2.6658,-2.6533,-2.6533,-2.6533,-2.6533,-2.6533,-2.6533,-2.6533,-2.6533,-2.6533,-2.6533,-2.6533,-2.6533,-2.6533,-2.6546,-2.6666,-2.708,-2.7695,-2.8612,-2.9051,-2.9289,-2.9666,-2.9792,-2.9792,-2.9792,-2.9792,-2.9792,-2.9792,-2.9792,-2.9792,-2.9792,-2.9792,-2.9792,-2.9792,-2.9792,-2.9842,-3.003,-3.0771,-3.1096,-3.0061,-2.9915,-2.9498,-2.7861,-2.721,-2.721,-2.8038,-2.8226,-2.8373,-2.8899,-2.9231,-2.9738,-3.0729,-3.1797,-3.2612,-3.3081,-3.3257,-3.3432,-3.3621,-3.3633,-3.3884,-3.4437,-3.4801,-3.4582,-3.3838,-3.3279,-3.2342,-3.0916,-2.9608,-2.9006,-2.9006,-2.9006,-2.8698,-1.8008,-1.8008,0.0,-1.8008,-1.8008,0.0,-2.0204,0.0,0.0,0.0,0.0,0.0,0.0,0.0,-1.9874,-1.9096,-1.9168,-1.9111,0.0,-1.8639,0.0,0.0,0.0,0.0,0.0,0.0,-2.0205,-2.0795,-2.2186,-2.3624,0.0,0.0,-2.6647,-2.7595,-2.7357,-2.72,-2.7197,-2.6613,-2.6445,-2.6611,-2.6354,-2.6264,-2.6533,-2.6533,-2.6533,-2.6533,-2.6533,-2.6533,-2.6533,-2.6533,-2.6533,-2.6533,-2.6533,-2.6533,-2.6533,-2.6533,-2.6929,-2.7733,-2.885,-2.9239,-2.9302,-2.9666,-2.9792,-2.9792,-2.9792,-2.9792,-2.9792,-2.9792,-2.9792,-2.9792,-2.9792,-2.9792,-2.9792,-2.9792,-2.9456,-2.9197,-2.9197,-2.9687,-2.9834,-2.862,-2.8544,-2.8402,-2.7125,-2.6668,-2.6668,-2.7494,-2.7589,-2.8049,-2.9223,-2.9407,-2.9863,-3.1033,-3.1952,-3.2612,-3.3081,-3.3081,-3.3081,-3.3081,-3.3081,-3.342,-3.4161,-3.4049,-3.3712,-3.304,-3.2074,-3.0927,-2.9608,-2.8698,-2.8291,-2.8291,-2.8291,-2.8291]},{"header":{"parameterUnit":"m.s-1","parameterCategory":1,"la1":30.6,"la2":29.2853,"lo1":-89.7004,"lo2":-87.6739,"dy":0.0162,"dx":0.0183,"nx":112,"ny":82,"refTime":"2023-06-22T12:00:00:Z","depth":0,"parameterNumber":3,"parameterNumberName":"V-component_of_WINDS"},"data":[0.0,0.0,0.0,0.0,0.0,0.0,0.0,0.0,0.0,0.0,0.0,0.0,0.0,0.0,0.0,0.0,0.0,0.0,0.0,0.0,0.0,0.0,0.0,0.0,0.0,0.0,0.0,0.0,0.0,0.0,0.0,0.0,0.0,0.0,0.0,0.0,0.0,0.0,0.0,0.0,0.0,0.0,0.0,0.0,0.0,0.0,0.0,0.0,0.0,0.0,0.0,0.0,0.0,0.0,0.0,0.0,0.0,0.0,0.0,0.0,0.0,0.0,0.0,0.0,0.0,0.0,0.0,0.0,0.0,0.0,0.0,0.0,0.0,0.0,0.0,0.0,0.0,0.0,0.0,0.0,0.0,0.0,0.0,0.0,0.0,0.0,0.0,0.0,0.0,0.0,-1.8602,-1.9729,-2.0346,-2.0409,-1.985,-1.9648,-1.9171,-1.8267,0.0,0.0,0.0,0.0,0.0,0.0,0.0,0.0,0.0,0.0,0.0,0.0,0.0,0.0,0.0,0.0,0.0,0.0,0.0,0.0,0.0,0.0,0.0,0.0,0.0,0.0,0.0,0.0,0.0,0.0,0.0,0.0,0.0,0.0,0.0,0.0,0.0,0.0,0.0,0.0,0.0,0.0,0.0,0.0,0.0,0.0,0.0,0.0,0.0,0.0,0.0,0.0,0.0,0.0,0.0,0.0,0.0,0.0,0.0,0.0,0.0,0.0,0.0,0.0,0.0,0.0,0.0,0.0,0.0,0.0,0.0,0.0,0.0,0.0,0.0,0.0,0.0,0.0,0.0,0.0,0.0,0.0,0.0,0.0,0.0,0.0,0.0,0.0,0.0,0.0,0.0,0.0,0.0,0.0,0.0,0.0,0.0,0.0,0.0,0.0,0.0,0.0,0.0,0.0,-2.0343,-2.0617,-2.0223,-1.9901,-1.9798,-1.897,-1.838,-1.8216,0.0,0.0,0.0,0.0,0.0,0.0,0.0,0.0,0.0,0.0,0.0,0.0,0.0,0.0,0.0,0.0,0.0,0.0,0.0,0.0,0.0,0.0,0.0,0.0,0.0,0.0,0.0,0.0,0.0,0.0,0.0,0.0,0.0,0.0,0.0,0.0,0.0,0.0,0.0,0.0,0.0,0.0,0.0,0.0,0.0,0.0,0.0,0.0,0.0,0.0,0.0,0.0,0.0,0.0,0.0,0.0,0.0,0.0,0.0,0.0,0.0,0.0,0.0,0.0,0.0,0.0,0.0,0.0,0.0,0.0,0.0,0.0,0.0,0.0,0.0,0.0,0.0,0.0,0.0,0.0,0.0,0.0,0.0,0.0,0.0,0.0,0.0,0.0,0.0,0.0,0.0,0.0,0.0,0.0,0.0,0.0,0.0,0.0,0.0,0.0,0.0,0.0,0.0,-1.9337,-1.9739,-1.9827,-2.0109,-2.0079,-1.9409,-1.8656,-1.8078,-1.7777,-1.7463,0.0,0.0,0.0,0.0,0.0,0.0,0.0,0.0,0.0,0.0,0.0,0.0,0.0,0.0,0.0,0.0,0.0,0.0,0.0,0.0,0.0,0.0,0.0,0.0,0.0,0.0,0.0,0.0,0.0,0.0,0.0,0.0,0.0,0.0,0.0,0.0,0.0,0.0,0.0,0.0,0.0,0.0,0.0,0.0,0.0,0.0,0.0,0.0,0.0,0.0,0.0,0.0,0.0,0.0,0.0,0.0,0.0,0.0,0.0,0.0,0.0,0.0,0.0,0.0,0.0,0.0,0.0,0.0,0.0,0.0,0.0,0.0,0.0,0.0,0.0,0.0,0.0,0.0,0.0,0.0,0.0,0.0,0.0,0.0,0.0,0.0,0.0,0.0,0.0,0.0,0.0,0.0,0.0,0.0,0.0,0.0,0.0,0.0,0.0,0.0,0.0,0.0,-1.8686,-1.9,-1.9212,-2.0044,-2.0126,-1.907,-1.853,-1.8028,-1.7601,-1.7036,0.0,0.0,0.0,0.0,0.0,0.0,0.0,0.0,0.0,0.0,0.0,0.0,0.0,0.0,0.0,0.0,0.0,0.0,0.0,0.0,0.0,0.0,0.0,0.0,0.0,0.0,0.0,0.0,0.0,0.0,0.0,0.0,0.0,0.0,0.0,0.0,0.0,0.0,0.0,0.0,0.0,0.0,0.0,0.0,0.0,0.0,0.0,0.0,0.0,0.0,0.0,0.0,0.0,0.0,0.0,0.0,0.0,0.0,0.0,0.0,0.0,0.0,0.0,0.0,0.0,0.0,0.0,0.0,0.0,0.0,0.0,0.0,0.0,0.0,0.0,0.0,0.0,0.0,0.0,0.0,0.0,0.0,0.0,0.0,0.0,0.0,0.0,0.0,0.0,0.0,0.0,0.0,0.0,0.0,0.0,0.0,0.0,0.0,0.0,0.0,0.0,0.0,-1.9027,-1.9238,-1.9866,-1.9885,-1.9636,-1.907,-1.853,-1.8191,-1.8154,-1.7626,0.0,0.0,0.0,0.0,0.0,0.0,0.0,0.0,0.0,0.0,0.0,0.0,0.0,0.0,0.0,0.0,0.0,0.0,0.0,0.0,0.0,0.0,0.0,0.0,0.0,0.0,0.0,0.0,0.0,0.0,0.0,0.0,0.0,0.0,0.0,0.0,0.0,0.0,0.0,0.0,0.0,0.0,0.0,0.0,0.0,0.0,0.0,0.0,0.0,0.0,0.0,0.0,0.0,0.0,0.0,0.0,0.0,0.0,0.0,0.0,0.0,0.0,0.0,0.0,0.0,0.0,0.0,0.0,0.0,0.0,0.0,0.0,0.0,0.0,0.0,0.0,0.0,0.0,0.0,0.0,0.0,0.0,0.0,0.0,0.0,0.0,0.0,0.0,0.0,0.0,0.0,0.0,0.0,0.0,0.0,0.0,0.0,0.0,0.0,0.0,0.0,0.0,-1.8635,-1.9301,0.0,-2.0215,-2.007,-1.9136,-1.8528,-1.8053,-1.7714,0.0,0.0,0.0,0.0,0.0,0.0,0.0,0.0,0.0,0.0,0.0,0.0,0.0,0.0,0.0,0.0,0.0,0.0,0.0,0.0,0.0,0.0,0.0,0.0,0.0,0.0,0.0,0.0,0.0,0.0,0.0,0.0,0.0,0.0,0.0,0.0,0.0,0.0,0.0,0.0,0.0,0.0,0.0,0.0,0.0,0.0,0.0,0.0,0.0,0.0,0.0,0.0,0.0,0.0,0.0,0.0,0.0,0.0,0.0,0.0,0.0,0.0,0.0,0.0,0.0,0.0,0.0,0.0,0.0,0.0,0.0,0.0,0.0,0.0,0.0,0.0,0.0,0.0,0.0,0.0,0.0,0.0,0.0,0.0,0.0,0.0,0.0,0.0,0.0,0.0,0.0,0.0,0.0,0.0,0.0,0.0,0.0,0.0,0.0,0.0,0.0,0.0,-1.7229,-1.8475,-1.9507,0.0,-2.0427,-2.0348,-1.9211,-1.8546,-1.8025,-1.7697,0.0,0.0,0.0,0.0,0.0,0.0,0.0,0.0,0.0,0.0,0.0,0.0,0.0,0.0,0.0,0.0,0.0,0.0,0.0,0.0,0.0,0.0,0.0,0.0,0.0,0.0,0.0,0.0,0.0,0.0,0.0,0.0,0.0,0.0,0.0,0.0,0.0,0.0,0.0,0.0,0.0,0.0,0.0,0.0,0.0,0.0,0.0,0.0,0.0,0.0,0.0,0.0,0.0,0.0,0.0,0.0,0.0,0.0,0.0,0.0,0.0,0.0,0.0,0.0,0.0,0.0,0.0,0.0,0.0,0.0,0.0,0.0,0.0,0.0,0.0,0.0,0.0,0.0,0.0,0.0,0.0,0.0,0.0,0.0,0.0,0.0,0.0,0.0,0.0,0.0,0.0,0.0,0.0,0.0,0.0,0.0,0.0,0.0,0.0,0.0,0.0,0.0,-1.7312,-1.8805,-1.9874,-1.9887,-2.0454,-2.0307,-1.9203,-1.8526,-1.8208,0.0,0.0,0.0,0.0,0.0,0.0,0.0,0.0,0.0,0.0,0.0,0.0,0.0,0.0,0.0,0.0,0.0,0.0,0.0,0.0,0.0,0.0,0.0,0.0,0.0,0.0,0.0,0.0,0.0,0.0,0.0,0.0,0.0,0.0,0.0,0.0,0.0,0.0,0.0,0.0,0.0,0.0,0.0,0.0,0.0,0.0,0.0,0.0,0.0,0.0,0.0,0.0,0.0,0.0,0.0,0.0,0.0,0.0,0.0,0.0,0.0,0.0,0.0,0.0,0.0,0.0,0.0,0.0,0.0,0.0,0.0,0.0,0.0,0.0,0.0,0.0,0.0,0.0,0.0,0.0,0.0,0.0,0.0,0.0,0.0,0.0,0.0,0.0,0.0,0.0,0.0,0.0,0.0,0.0,0.0,0.0,0.0,0.0,0.0,0.0,0.0,0.0,0.0,-1.8285,-1.8885,-1.9534,-2.0381,-2.0302,-1.9885,-1.9152,-1.8214,-1.7784,-1.8166,0.0,0.0,0.0,0.0,0.0,0.0,0.0,0.0,0.0,0.0,0.0,0.0,0.0,0.0,0.0,0.0,0.0,0.0,0.0,0.0,0.0,0.0,0.0,0.0,0.0,0.0,0.0,0.0,0.0,0.0,0.0,0.0,0.0,0.0,0.0,0.0,0.0,0.0,0.0,0.0,0.0,0.0,0.0,0.0,0.0,0.0,0.0,0.0,0.0,0.0,0.0,0.0,0.0,0.0,0.0,0.0,0.0,0.0,0.0,0.0,0.0,0.0,0.0,0.0,0.0,0.0,0.0,0.0,0.0,0.0,0.0,0.0,0.0,0.0,0.0,0.0,0.0,0.0,0.0,0.0,0.0,0.0,0.0,0.0,0.0,0.0,0.0,0.0,0.0,0.0,0.0,0.0,0.0,0.0,0.0,0.0,0.0,0.0,0.0,0.0,0.0,0.0,-1.876,-1.9313,-1.9891,-2.0624,-2.0203,-1.9656,-1.9155,-1.8014,-1.7606,-1.8137,0.0,0.0,0.0,0.0,0.0,0.0,0.0,0.0,0.0,0.0,0.0,0.0,0.0,0.0,0.0,0.0,0.0,0.0,0.0,0.0,0.0,0.0,0.0,0.0,0.0,0.0,0.0,0.0,0.0,0.0,0.0,0.0,0.0,0.0,0.0,0.0,0.0,0.0,0.0,0.0,0.0,0.0,0.0,0.0,0.0,0.0,0.0,0.0,0.0,0.0,0.0,0.0,0.0,0.0,0.0,0.0,0.0,0.0,0.0,0.0,0.0,0.0,0.0,0.0,0.0,0.0,0.0,0.0,0.0,0.0,0.0,0.0,0.0,0.0,0.0,0.0,0.0,0.0,0.0,0.0,0.0,0.0,0.0,0.0,0.0,0.0,0.0,0.0,0.0,0.0,0.0,0.0,0.0,0.0,0.0,0.0,0.0,0.0,0.0,0.0,0.0,0.0,-1.8968,-1.9893,-2.0557,-2.0617,-2.0075,-1.9532,-1.9044,-1.7894,-1.7492,-1.8183,0.0,0.0,0.0,0.0,0.0,0.0,0.0,0.0,0.0,0.0,0.0,0.0,0.0,0.0,0.0,0.0,0.0,0.0,0.0,0.0,0.0,0.0,0.0,0.0,0.0,0.0,0.0,0.0,0.0,0.0,0.0,0.0,0.0,0.0,0.0,0.0,0.0,0.0,0.0,0.0,0.0,0.0,0.0,0.0,0.0,0.0,0.0,0.0,0.0,0.0,0.0,0.0,0.0,0.0,0.0,0.0,0.0,0.0,0.0,0.0,-1.0066,0.0,0.0,0.0,0.0,0.0,0.0,0.0,0.0,0.0,0.0,0.0,0.0,0.0,0.0,0.0,0.0,0.0,0.0,0.0,0.0,0.0,0.0,0.0,0.0,0.0,0.0,0.0,0.0,0.0,0.0,0.0,0.0,0.0,0.0,0.0,0.0,0.0,0.0,0.0,0.0,0.0,-1.9419,-1.9275,-1.9331,-1.9854,-1.907,-1.8458,-1.8325,-1.7295,-1.7093,-1.814,-1.8762,0.0,0.0,0.0,0.0,0.0,0.0,0.0,0.0,0.0,0.0,0.0,0.0,0.0,0.0,0.0,0.0,0.0,0.0,0.0,0.0,0.0,0.0,0.0,0.0,0.0,0.0,0.0,0.0,0.0,0.0,0.0,0.0,0.0,0.0,0.0,0.0,0.0,0.0,0.0,0.0,0.0,0.0,0.0,0.0,0.0,0.0,0.0,0.0,0.0,0.0,0.0,0.0,0.0,0.0,0.0,0.0,0.0,0.0,0.0,0.0,-1.1284,0.0,0.0,0.0,0.0,0.0,0.0,0.0,0.0,0.0,0.0,0.0,0.0,0.0,0.0,0.0,0.0,0.0,0.0,0.0,0.0,0.0,0.0,0.0,0.0,0.0,0.0,0.0,0.0,0.0,0.0,0.0,0.0,0.0,0.0,0.0,0.0,0.0,0.0,0.0,0.0,-1.9609,-1.939,-1.9301,-1.9645,-1.8968,-1.8496,-1.8496,-1.7747,-1.7637,-1.8494,-1.9111,0.0,0.0,0.0,0.0,0.0,0.0,0.0,0.0,0.0,0.0,0.0,0.0,0.0,0.0,0.0,0.0,0.0,0.0,0.0,0.0,0.0,0.0,0.0,0.0,0.0,0.0,0.0,0.0,0.0,0.0,0.0,0.0,0.0,0.0,0.0,0.0,0.0,0.0,0.0,0.0,0.0,0.0,0.0,0.0,0.0,0.0,0.0,0.0,0.0,0.0,0.0,0.0,0.0,-0.9558,-0.8192,-0.7706,-0.7628,-0.7873,-0.8684,-1.1034,-1.1842,-1.161,0.0,0.0,0.0,0.0,0.0,0.0,0.0,0.0,0.0,0.0,0.0,0.0,0.0,0.0,0.0,0.0,0.0,0.0,0.0,0.0,0.0,0.0,0.0,0.0,0.0,-2.1695,-2.1169,0.0,0.0,0.0,0.0,0.0,0.0,0.0,0.0,0.0,0.0,0.0,0.0,-1.969,-1.969,-1.969,-1.969,-1.9207,-1.8893,-1.8893,-1.8419,-1.8341,-1.8855,-1.9411,-2.0007,0.0,0.0,0.0,0.0,0.0,0.0,0.0,0.0,0.0,0.0,0.0,0.0,0.0,0.0,0.0,0.0,0.0,0.0,0.0,0.0,0.0,0.0,0.0,0.0,0.0,0.0,0.0,0.0,0.0,0.0,0.0,0.0,-1.7283,-1.9192,0.0,0.0,0.0,0.0,0.0,0.0,0.0,0.0,0.0,0.0,0.0,0.0,0.0,-1.8324,-1.7213,-1.6233,-1.455,-1.2144,-1.144,-1.0483,-0.9363,-0.9863,-1.0304,-1.0724,-1.321,0.0,-1.2365,-1.418,0.0,0.0,0.0,0.0,0.0,0.0,0.0,0.0,0.0,0.0,0.0,0.0,0.0,0.0,0.0,0.0,0.0,0.0,0.0,0.0,0.0,0.0,-2.0991,-2.156,-2.1695,-2.161,0.0,-2.0842,-2.0324,-1.9731,-1.9686,0.0,0.0,0.0,0.0,0.0,0.0,0.0,-1.969,-1.969,-1.969,-1.969,-1.9207,-1.8893,-1.8893,-1.8419,-1.8341,-1.8855,-1.8965,-1.9526,-2.0654,-2.0797,0.0,0.0,0.0,0.0,0.0,0.0,0.0,0.0,0.0,0.0,0.0,0.0,0.0,0.0,0.0,0.0,0.0,0.0,0.0,0.0,0.0,0.0,0.0,0.0,0.0,0.0,0.0,0.0,0.0,-1.6986,-1.9114,-2.0509,-2.1654,-2.2315,0.0,0.0,0.0,0.0,0.0,0.0,0.0,0.0,0.0,-2.2734,-2.3023,-2.2583,-2.136,-2.0186,-1.8831,-1.7238,-1.5204,-1.3521,-1.232,-1.2331,-1.2273,-1.242,-1.4657,-1.5575,-1.554,-1.6083,-1.6407,-1.6587,0.0,0.0,0.0,0.0,-1.8329,-1.8442,-1.9032,-1.9271,0.0,0.0,0.0,0.0,0.0,0.0,0.0,0.0,0.0,0.0,0.0,0.0,0.0,-2.337,-2.3625,-2.3684,-2.2936,-2.2532,-2.2039,0.0,-2.1111,-2.1246,-2.0887,0.0,0.0,0.0,0.0,-1.969,-1.969,-1.969,-1.969,-1.969,-1.9479,-1.9369,-1.9369,-1.9132,-1.9095,-1.9332,-1.9369,-1.9575,-2.0124,-2.0513,-2.1156,0.0,0.0,0.0,0.0,0.0,0.0,0.0,0.0,0.0,0.0,0.0,0.0,0.0,0.0,0.0,0.0,0.0,0.0,0.0,0.0,0.0,0.0,0.0,0.0,0.0,0.0,0.0,0.0,-1.8443,-2.0227,-2.0895,-2.2474,-2.3477,0.0,0.0,0.0,0.0,0.0,0.0,-2.7254,-2.79,-2.7955,-2.7244,-2.7318,-2.6741,-2.536,-2.3858,-2.2529,-2.1311,-1.8451,-1.6468,-1.5333,-1.4792,-1.4445,-1.4439,-1.6494,-1.7779,-1.84,-1.8113,-1.7901,-1.7756,-1.8184,-1.8585,-1.8882,-1.9296,-1.9597,-1.9861,-2.0288,-2.0492,-2.0542,-2.0832,0.0,-2.0545,-2.1263,0.0,0.0,0.0,0.0,-2.4627,-2.4791,-2.5121,-2.5269,-2.4919,-2.522,-2.5222,-2.3847,-2.3867,-2.3625,0.0,-2.2084,-2.2218,-2.156,0.0,0.0,0.0,0.0,-1.9944,-1.9944,-1.9944,-1.9884,-1.9705,-1.969,-1.969,-1.969,-1.969,-1.969,-1.969,-1.969,-1.969,-1.969,-2.0348,-2.1021,-2.168,0.0,0.0,0.0,0.0,0.0,0.0,0.0,0.0,0.0,0.0,0.0,0.0,0.0,0.0,0.0,0.0,0.0,0.0,0.0,0.0,0.0,0.0,0.0,0.0,0.0,0.0,0.0,0.0,0.0,-1.9051,-2.1836,0.0,0.0,0.0,0.0,-2.7378,-2.9178,-3.0552,-3.1183,-3.1855,-3.2482,-3.3048,-3.2276,-3.097,-2.9042,-2.7163,-2.4735,-2.1843,-2.0172,-1.8859,-1.7837,-1.7302,-1.7131,-1.7195,-1.9284,-2.0031,-1.9748,-2.0111,-2.0255,-2.0304,-2.0983,-2.1004,-2.0605,-2.0618,-2.025,-1.9798,-1.9836,-1.9849,-2.0024,-2.1104,-2.1782,-2.2286,-2.2985,-2.3366,0.0,0.0,-2.4034,-2.4731,-2.539,-2.5121,-2.4787,-2.5307,-2.5521,-2.5177,-2.3733,-2.4529,-2.4762,0.0,-2.1724,-2.1545,-2.0872,0.0,-2.0722,-2.0722,-2.0677,-2.0662,-2.0662,-2.0662,-2.0423,-1.975,-1.969,-1.969,-1.969,-1.969,-1.969,-1.969,-1.969,-1.969,-1.969,-2.0348,-2.1021,-2.168,-2.1724,0.0,0.0,0.0,0.0,0.0,0.0,0.0,0.0,0.0,0.0,0.0,0.0,0.0,0.0,0.0,0.0,0.0,0.0,0.0,0.0,0.0,0.0,0.0,0.0,0.0,0.0,0.0,0.0,-2.4696,-2.6816,0.0,-2.8344,-2.9156,-3.0324,-3.1946,-3.2661,-3.3724,-3.5235,-3.5534,-3.5774,-3.6013,-3.5332,-3.4307,-3.2947,-3.0533,-2.8157,-2.5755,-2.3596,-2.2016,-2.0876,-2.079,-2.0761,-2.084,-2.1928,-2.2461,-2.2659,-2.319,-2.2803,-2.1882,-2.1993,-2.1895,-2.1769,-2.2121,-2.2121,-2.2008,-2.2372,-2.2259,-2.1895,-2.1594,-2.1619,-2.1939,-2.2622,-2.3474,-2.434,-2.5249,-2.63,-2.717,-2.7325,-2.7152,-2.6818,-2.6131,-2.6354,-2.6335,-2.5038,-2.555,-2.5839,-2.4477,-2.3505,-2.2712,-2.2084,-2.162,-2.1485,-2.1919,-2.162,-2.1335,-2.1335,-2.1335,-2.1246,-2.1006,-2.0976,-2.0976,-2.0976,-2.0976,-2.0797,-2.0378,-2.0348,-2.0154,-1.9705,-1.9929,-2.0363,-2.1051,-2.1066,-2.1605,0.0,0.0,0.0,0.0,0.0,0.0,0.0,0.0,0.0,0.0,0.0,0.0,0.0,0.0,0.0,0.0,0.0,0.0,0.0,0.0,0.0,0.0,0.0,0.0,0.0,0.0,-2.7067,-2.8816,-3.0793,-3.2089,-3.2458,-3.3055,-3.4065,-3.5699,-3.6207,-3.7045,-3.8347,-3.8212,-3.8078,-3.8078,-3.7255,-3.6236,-3.5033,-3.2894,-3.0693,-2.8391,-2.6246,-2.4675,-2.3588,-2.3525,-2.3457,-2.3286,-2.3936,-2.4374,-2.4517,-2.5226,-2.4893,-2.3969,-2.3592,-2.3201,-2.2924,-2.3288,-2.3301,-2.3188,-2.3577,-2.3452,-2.2952,-2.2284,-2.2204,-2.2531,-2.3007,-2.4136,-2.5438,-2.6558,-2.7733,-2.8628,-2.8611,-2.8484,-2.7982,-2.6708,-2.686,-2.694,-2.5628,-2.6213,-2.6673,-2.5745,-2.4654,-2.3744,-2.3101,-2.2458,-2.2248,-2.2892,-2.2443,-2.2099,-2.2308,-2.2158,-2.1934,-2.1724,-2.1695,-2.1695,-2.1695,-2.1904,-2.1739,-2.1081,-2.1261,-2.1066,-2.0393,-2.0572,-2.1006,-2.168,-2.1695,-2.2024,-2.2724,0.0,0.0,0.0,0.0,0.0,0.0,0.0,0.0,0.0,0.0,0.0,0.0,0.0,0.0,0.0,0.0,0.0,0.0,0.0,0.0,0.0,0.0,0.0,-2.4854,-2.8512,-3.1044,-3.0878,-3.3199,-3.4778,-3.4738,-3.6341,-3.7666,-3.8441,-3.9709,-4.0427,-4.0427,-3.9828,-3.9454,-3.9424,-3.8153,-3.6709,-3.5105,-3.3972,-3.2132,-2.9605,-2.8001,-2.6792,-2.5893,-2.5486,-2.5,-2.4525,-2.546,-2.554,-2.5182,-2.6107,-2.6533,-2.6471,-2.5824,-2.4958,-2.4054,-2.4029,-2.3653,-2.3103,-2.3103,-2.309,-2.3078,-2.3078,-2.3649,-2.4292,-2.435,-2.537,-2.6697,-2.7371,-2.8076,-2.8753,-2.916,-2.8785,-2.8064,-2.7113,-2.712,-2.6947,-2.5461,-2.6466,-2.7274,-2.5857,-2.5096,-2.4492,-2.3759,-2.3146,-2.2966,-2.355,-2.3116,0.0,-2.355,-2.3086,-2.2473,-2.1859,-2.1784,-2.1784,-2.1784,-2.2368,-2.2458,-2.1769,-2.2323,-2.2383,-2.1724,-2.2308,-2.2921,-2.3535,-2.3565,-2.3266,-2.2724,0.0,0.0,0.0,0.0,0.0,0.0,0.0,0.0,0.0,0.0,0.0,0.0,0.0,0.0,0.0,0.0,0.0,0.0,0.0,0.0,0.0,0.0,-3.0516,-2.9511,-3.0682,-3.2778,-3.5612,-3.6942,-3.8182,-3.9416,-3.9921,-4.0516,-4.1235,-4.1175,-4.1115,-4.1115,-4.0935,-4.0397,-3.9454,-3.9065,-3.8385,-3.7475,-3.5522,-3.3816,-3.2307,-2.9948,-2.8741,-2.8443,-2.7299,-2.7038,-2.7641,-2.7089,-2.6813,-2.6652,-2.6546,-2.6533,-2.6471,-2.5824,-2.5423,-2.5109,-2.4732,-2.4243,-2.3766,-2.3766,-2.3489,-2.3078,-2.3078,-2.3649,-2.4408,-2.4951,-2.6386,-2.8045,-2.8788,-2.9383,-2.9695,-2.9228,-2.8504,-2.7568,-2.6231,-2.6903,-2.7589,-2.6804,-2.7923,-2.8778,-2.7899,-2.7235,-2.6243,-2.4627,-2.4597,-2.4702,-2.4388,-2.4193,0.0,-2.4313,-2.3759,-2.3475,-2.3789,-2.3819,-2.3819,-2.3819,-2.3984,-2.361,-2.2488,-2.2619,-2.2383,-2.1724,-2.1874,-2.2039,-2.2218,-2.2682,-2.2847,0.0,0.0,0.0,0.0,0.0,0.0,0.0,0.0,0.0,0.0,0.0,0.0,0.0,0.0,0.0,0.0,0.0,0.0,0.0,0.0,0.0,0.0,-3.1965,-3.4149,-3.4886,-3.5237,-3.6577,-3.9469,-4.0162,-4.0816,-4.2055,-4.2207,-4.2357,-4.2746,-4.2417,-4.2207,-4.2207,-4.1938,-4.1309,-4.0277,-3.9978,-3.9364,-3.8407,-3.7098,-3.5664,-3.4029,-3.25,-3.1272,-3.0176,-2.9353,-2.9139,0.0,-2.8214,-2.7695,-2.7824,-2.6873,-2.6533,0.0,0.0,0.0,0.0,0.0,-2.3916,-2.364,-2.364,-2.3414,-2.3078,-2.3078,-2.3816,-2.4766,-2.5558,-2.7004,-2.8524,-2.9239,-2.9667,-2.9683,-2.868,-2.8051,-2.7392,-2.6228,-2.6713,-2.7377,-2.7026,-2.808,-2.8925,-2.8557,0.0,0.0,-2.6542,-2.5914,-2.557,-2.5465,-2.4986,-2.4686,-2.4955,-2.4193,-2.3744,-2.4163,-2.4193,-2.4193,-2.4193,-2.4462,0.0,0.0,0.0,-2.3191,-2.2517,-2.2772,0.0,0.0,0.0,-2.3774,-2.349,0.0,0.0,0.0,-2.545,-2.5854,0.0,0.0,0.0,0.0,0.0,0.0,0.0,0.0,0.0,0.0,0.0,0.0,0.0,0.0,0.0,0.0,-3.4718,-3.6596,-4.0127,-4.0741,-4.122,-4.2237,-4.2357,-4.2626,-4.3269,-4.3404,-4.3449,-4.3449,-4.3449,-4.3404,-4.3329,0.0,0.0,0.0,0.0,-4.0008,-3.8736,-3.8586,-3.7534,-3.5505,-3.5148,-3.3803,-3.1629,-3.1415,-3.1123,-3.0559,-2.8933,-2.8428,-2.8647,-2.7092,-2.6496,-2.6314,-2.5875,-2.5372,-2.4782,-2.3715,-2.3228,-2.3165,-2.3103,0.0,0.0,-2.3226,-2.4124,-2.5362,-2.6103,-2.7227,-2.8368,-2.8984,-2.914,-2.8876,-2.7983,-2.7656,-2.7429,-2.6671,-2.6681,-2.6881,-2.6816,-2.7638,-2.834,-2.8268,-2.8963,-2.9366,-2.8711,-2.7121,-2.6108,-2.6617,-2.5644,-2.5031,-2.554,-2.4507,-2.3744,-2.3819,0.0,0.0,-2.3834,-2.4388,-2.4418,-2.3655,-2.4253,-2.4358,-2.3744,-2.4373,-2.4448,-2.3834,-2.5001,-2.533,-2.4686,-2.533,-2.5914,-2.6482,-2.6557,-2.6632,0.0,0.0,0.0,0.0,0.0,0.0,0.0,0.0,0.0,0.0,0.0,0.0,0.0,0.0,0.0,-3.5627,-3.868,-4.11,-4.1878,-4.2895,-4.3254,-4.2447,-4.2357,-4.2626,-4.3269,-4.3808,-4.4122,-4.4122,-4.4122,-4.3898,-4.3359,-4.321,0.0,-4.1414,-4.1773,-4.1609,-4.0816,-3.9753,-3.9009,-3.851,0.0,0.0,-3.4257,-3.2886,-3.2253,-3.2088,-3.0126,-2.9258,-2.9214,-2.7258,-2.6189,-2.5799,-2.6151,-2.595,-2.5372,-2.4732,-2.4217,-2.3766,-2.3301,-2.3439,-2.3841,-2.3841,-2.4715,-2.581,-2.5932,-2.6945,0.0,-2.8185,-2.8138,-2.7969,-2.7776,-2.7566,-2.7215,-2.6634,-2.734,-2.8025,-2.7591,-2.8234,-2.8691,-2.8144,-2.8779,-2.9131,-2.8494,-2.8169,-2.7874,-2.744,-2.6722,-2.6063,-2.5659,-2.4911,-2.4627,-2.5166,-2.5211,-2.5211,-2.5211,-2.5345,-2.4896,-2.3684,-2.4253,-2.4522,-2.4388,-2.5061,-2.536,-2.5226,-2.548,-2.5555,-2.542,-2.5555,-2.5674,-2.5809,-2.6348,-2.6871,0.0,0.0,0.0,0.0,0.0,0.0,0.0,0.0,0.0,0.0,0.0,-3.063,0.0,0.0,-3.6596,-3.8616,-4.0861,-4.2596,-4.324,-4.3898,-4.4062,-4.3419,-4.3344,-4.3599,-4.4257,-4.5057,-4.5639,-4.5639,-4.6066,-4.599,-4.5151,-4.4815,-4.3879,-4.2387,-4.2357,-4.2043,-4.1384,-4.0726,-4.0068,-3.9409,-3.7937,-3.6426,-3.4949,-3.4199,-3.3607,-3.3199,-3.0899,-3.0241,-3.047,-2.836,-2.7159,-2.6749,-2.7486,-2.6699,-2.5172,-2.4921,-2.4469,-2.3954,-2.3665,-2.3753,-2.4004,-2.4004,-2.4773,-2.5858,-2.6291,-2.708,-2.7867,-2.7867,-2.7759,-2.7669,-2.7511,-2.7405,-2.7281,-2.7281,-2.7812,-2.8196,-2.794,-2.8356,-2.8635,-2.8338,-2.9128,-2.9693,-2.939,-2.9454,-2.922,-2.8233,-2.723,-2.6467,-2.6138,-2.5525,-2.5241,-2.557,-2.5615,-2.548,-2.5151,-2.5121,-2.4971,-2.4627,-2.4926,-2.5121,-2.5121,-2.5435,-2.5615,-2.5615,-2.5929,-2.6093,-2.6093,-2.6437,-2.6587,-2.6602,-2.6931,-2.7081,0.0,0.0,0.0,0.0,0.0,0.0,0.0,0.0,-2.7266,-3.0542,-3.2251,-3.3765,-3.6066,-3.7404,-3.8931,-4.1205,-4.2237,-4.306,-4.3988,-4.4227,-4.4317,-4.4317,-4.4317,-4.4653,-4.5544,-4.6475,-4.7154,-4.7372,-4.8104,-4.819,-4.7184,-4.6515,-4.5326,-4.3645,-4.3097,-4.2432,-4.1773,-4.1624,-4.104,-3.9993,-3.9604,-3.8186,-3.5807,-3.543,-3.4994,-3.4322,-3.1971,-3.1181,-3.1515,-2.9713,-2.8732,-2.8385,-2.8967,-2.783,-2.5755,-2.537,-2.481,-2.4293,-2.4192,-2.4217,-2.4305,-2.4305,-2.5046,-2.6059,-2.6765,-2.7353,-2.7811,-2.7811,-2.7811,-2.7725,-2.7531,-2.7519,-2.7682,-2.8021,-2.8185,-2.8235,-2.8134,-2.8267,-2.8395,-2.8395,-2.934,-3.0077,-2.995,-3.0206,-3.006,-2.9092,-2.7829,-2.6931,-2.6797,-2.6213,-2.5794,-2.5794,-2.5794,-2.5585,-2.5,-2.4851,-2.5046,-2.557,-2.5734,-2.5794,-2.5794,-2.5929,-2.5989,-2.5989,-2.6512,-2.6782,-2.6782,-2.737,-2.7625,-2.7625,-2.7709,-2.7425,-2.003,-2.1841,-2.3689,-2.523,-2.5955,-2.7561,0.0,0.0,-3.3353,-3.6404,-3.784,-3.8814,-3.9709,-4.0442,-4.1235,-4.2102,-4.3284,-4.3943,-4.3509,-4.3943,-4.4317,-4.4317,-4.4317,-4.4946,-4.6592,-4.7353,-4.8075,-4.9046,-4.9197,-4.8925,-4.8169,-4.726,-4.6129,-4.4708,-4.4285,-4.3778,-4.312,-4.2551,-4.2177,-4.2013,-4.0247,-3.9233,-3.8877,-3.7133,-3.6283,-3.6082,-3.3839,-3.2217,-3.1096,-3.0823,-3.066,-3.0616,-3.0076,-2.9721,-2.9214,-2.7336,-2.6168,-2.5347,-2.4895,-2.5034,-2.5423,-2.5423,-2.6176,-2.7163,-2.7233,-2.7612,-2.8053,-2.8053,-2.8053,-2.8079,-2.7996,-2.8373,-2.8637,-2.821,-2.8473,-2.8699,-2.821,-2.8119,-2.8142,-2.8142,-2.8911,-2.9358,-2.8812,-2.9533,-3.0161,-3.0276,-2.9205,-2.8158,-2.7545,-2.6886,-2.6482,-2.6482,-2.6482,-2.6452,-2.6378,-2.5839,-2.554,-2.5615,-2.6153,-2.6482,-2.6482,-2.7036,-2.74,-2.74,-2.7475,-2.7505,-2.7505,-2.758,-2.7625,-2.7625,-2.8203,-2.8113,-2.1795,-2.3567,-2.5295,-2.6102,-2.8337,-3.1026,-3.3927,-3.4845,-3.593,-3.8826,-4.0055,-4.0771,-4.1414,-4.2073,-4.2611,0.0,-4.3703,-4.4212,-4.3943,-4.3808,-4.3748,-4.3748,-4.3404,-4.3957,-4.5763,-4.7637,-4.8929,-4.9384,-5.0854,-5.1113,-4.9609,-4.8815,-4.7512,-4.5703,-4.5176,-4.4571,-4.3913,-4.3629,-4.312,-4.2434,-4.1534,-4.0726,-3.9948,-3.8751,-3.7248,-3.5546,-3.4636,-3.3489,-3.2241,-3.2241,-3.2014,-3.171,-3.1931,-3.1418,-3.0405,-2.8753,-2.7548,-2.6762,-2.6595,-2.6355,-2.6151,-2.6477,-2.6892,-2.7344,-2.7657,-2.7921,-2.8109,-2.8109,-2.8109,-2.8185,-2.8499,-2.875,-2.895,-2.9063,-2.9264,-2.9365,-2.9139,-2.8825,-2.8586,-2.8586,-2.9001,-2.9302,-2.9052,-2.9806,-3.0489,-3.0817,-2.9888,-2.9071,-2.8771,-2.8502,-2.8188,-2.7799,-2.7066,-2.6752,-2.7126,-2.6557,-2.6348,-2.6722,-2.7006,-2.7156,-2.7156,-2.7475,-2.7754,-2.8158,-2.8173,-2.8353,-2.8742,-2.8742,-2.8742,-2.8757,-2.9041,-2.9011,-2.3001,-2.5144,-2.7264,-2.8147,-3.125,-3.4552,-3.6318,-3.7195,-3.8443,-4.098,-4.1564,-4.1788,-4.2267,-4.2746,-4.306,-4.306,-4.3614,-4.4047,-4.4047,-4.3314,-4.2865,-4.3045,-4.2327,-4.2447,-4.4062,-4.6781,-4.8738,-4.9466,-5.1512,-5.2018,-5.0289,-4.9844,-4.8686,-4.6509,-4.589,-4.517,-4.4332,-4.4317,-4.3748,-4.2626,-4.2447,-4.1863,-4.0905,-3.9888,-3.8142,-3.5904,-3.5569,-3.4898,-3.3987,-3.3827,-3.3529,-3.3141,-3.3627,-3.3006,-3.1801,-3.0658,-2.9564,-2.8598,-2.8265,-2.7819,-2.7372,-2.7511,-2.7607,-2.7808,-2.821,-2.8448,-2.8574,-2.8574,-2.8574,-2.8662,-2.9063,-2.9164,-2.9277,-2.9691,-2.9792,-2.9792,-2.9792,-2.9465,-2.9164,-2.9164,-2.9321,-2.9483,-2.9314,-2.9957,-3.0501,-3.0639,-3.0433,-3.0152,-2.9909,-2.9684,-2.9325,-2.8667,-2.7724,-2.726,-2.7595,-2.7126,-2.7066,-2.7595,-2.7625,-2.77,-2.7844,-2.7859,-2.8173,-2.8861,-2.8876,-2.9101,-2.9579,-2.9579,-2.9579,-2.9579,-2.9759,-2.9744,-2.347,-2.644,-2.9956,-3.26,-3.5274,-3.8112,-4.1414,-4.1683,-4.1818,-4.3793,-4.321,-4.2419,-4.2357,-4.2372,-4.2387,-4.2387,-4.294,-4.3359,-4.3359,-4.2252,-4.1669,-4.2312,-4.125,-4.0726,0.0,-4.4251,-4.7083,-4.9575,-5.0509,-5.0608,-4.9793,-5.017,-4.9281,-4.6779,-4.6403,-4.5663,-4.4332,-4.4317,-4.3973,-4.3299,-4.2671,-4.2419,-4.2237,-4.0307,-3.902,-3.8257,-3.7015,-3.6462,-3.6372,-3.5678,-3.5394,-3.532,-3.4696,-3.4442,-3.4289,-3.3617,-3.2289,-3.0742,-2.9803,-2.9399,-2.9272,-2.835,-2.8448,-2.8875,-2.89,-2.9289,-2.9741,-2.9741,-2.9741,-2.9741,-2.9767,-2.9767,-2.9767,-2.9792,-2.9792,-2.9792,-2.9792,-2.9779,-2.9767,-2.9767,-2.9754,-2.963,-2.9001,-2.9667,-3.0026,-2.9517,-3.0929,-3.1627,-3.0604,-2.9953,-2.9325,-2.8667,-2.8562,-2.8278,-2.7619,-2.761,-2.7595,-2.7625,-2.7625,-2.7874,-2.8547,-2.8562,-2.8876,-2.9549,-2.9549,-2.9564,-2.9579,-2.9579,-2.9579,-2.9594,-3.0193,-3.0163,-2.7336,-3.0367,-3.3289,-3.5441,-3.8368,-4.098,-4.2102,-4.2865,-4.3269,-4.306,-4.1968,-4.0935,-4.0487,-4.0038,-4.0023,-4.092,-4.1609,-4.2342,-4.321,-4.2955,-4.2282,-4.119,-4.1055,0.0,0.0,0.0,0.0,-4.6485,-4.824,-4.9013,-4.8428,-4.9032,-4.8624,-4.7183,-4.7001,-4.6546,-4.5663,-4.5648,-4.5095,-4.3973,-4.3314,-4.2776,-4.2419,-4.1669,-4.0531,-3.905,-3.8616,-3.7689,-3.6477,-3.6252,-3.5893,-3.5489,-3.525,-3.516,-3.513,-3.4906,-3.448,-3.3711,-3.1612,-3.0516,-2.9981,-2.939,-2.9089,-2.9001,-2.939,-2.9641,-2.9792,-2.9792,-2.9792,-2.9792,-2.9792,-2.9792,-2.9792,-2.9792,-2.9792,-2.9792,-2.9792,-2.9792,-2.9792,-2.9792,-2.9792,-2.9729,-2.9528,-2.9707,-3.0154,-3.0737,-3.118,-3.1555,-3.1796,-3.0866,-3.0103,-2.9879,-2.949,-2.916,-2.8936,-2.8051,-2.7506,-2.7506,-2.7506,-2.7608,-2.7842,-2.8782,-2.9549,-3.0178,-3.0193,-3.0417,-3.0881,-3.0881,-3.0881,-3.0881,-3.1091,-3.1076,-3.0885,-3.3636,-3.6031,-3.8223,-4.0604,-4.2432,-4.2656,-4.3,-4.2955,-4.1878,-4.0247,-3.8796,-3.8138,-3.727,-3.7165,-3.8736,-3.9364,-4.0337,-4.2357,-4.2237,-4.1818,-4.1489,-4.1399,-4.1235,0.0,0.0,0.0,-4.4468,-4.7141,-4.8509,-4.8043,-4.9252,-4.9456,-4.8475,-4.8392,-4.7904,-4.6849,-4.6607,-4.5671,-4.3958,-4.3778,-4.3344,-4.2701,-4.2476,-4.1534,-4.0098,-3.9634,-3.8571,-3.7135,-3.6671,-3.6237,-3.5833,-3.5594,-3.5504,-3.5504,-3.5504,-3.5504,-3.5219,-3.3146,-3.1901,-3.1069,-3.0517,-2.9821,-2.9302,-2.9679,-2.9792,-2.9792,-2.9792,-2.9792,-2.9792,-2.9792,-2.9792,-2.9792,-2.9792,-2.9792,-2.9792,-2.9792,-2.9792,-2.9792,-2.9792,-2.9792,-2.9792,-2.9792,-2.9792,-3.0164,-3.1317,-3.1048,-3.1183,-3.2377,-3.1292,-3.0349,-3.0113,-2.9432,-2.8926,-2.8679,-2.7825,-2.7301,-2.7301,-2.7301,-2.74,-2.7698,-2.8866,-2.9802,-3.0423,-3.0696,-3.121,-3.1884,-3.1884,-3.1884,-3.1884,-3.1884,-3.1764,-3.4105,-3.6265,-3.8332,-4.0891,-4.1998,-4.2596,-4.3026,-4.2222,-4.107,-4.0218,-3.8048,-3.6028,0.0,0.0,-3.4053,-3.6058,-3.6522,-3.7764,-4.1025,-4.0472,-4.0636,0.0,0.0,0.0,0.0,0.0,0.0,-4.3971,0.0,-4.9064,-4.8381,-5.0554,-5.1394,-5.0413,-5.0397,-4.9614,-4.7945,-4.7277,-4.5738,-4.3389,-4.4018,-4.3973,-4.3314,-4.2701,-4.2058,-4.1354,-4.0083,-3.911,-3.8347,-3.706,-3.6507,-3.6417,-3.5759,-3.5504,-3.5504,-3.5504,-3.5504,-3.5359,-3.4394,-3.3449,-3.2464,-3.1536,-3.0558,-2.9792,-2.9792,-2.9792,-2.9792,-2.9792,-2.9792,-2.9792,-2.9792,-2.9792,-2.9792,-2.9792,-2.9792,-2.9792,-2.9792,-2.9792,-2.9792,-2.9856,-2.9934,-2.9934,-2.9792,-2.9869,-3.0139,-3.1031,-3.0619,-3.0744,-3.2252,-3.12,-3.005,-2.9373,-2.8568,-2.7817,-2.7184,-2.7042,-2.7015,-2.7015,-2.7028,-2.7349,-2.7954,-2.8933,-2.9723,-3.0315,-3.1132,-3.1884,-3.2512,-3.2542,-3.2557,-3.2557,-3.2557,-3.2228,-3.8483,-4.0666,-4.2102,-4.3269,-4.3688,-4.3289,-4.1322,-4.0364,-3.9073,-3.6248,-3.413,-3.2437,0.0,0.0,0.0,-3.4666,-3.706,0.0,-4.2447,-4.3389,0.0,-4.4047,0.0,-4.4047,-4.3404,-4.5185,0.0,0.0,-4.7395,-4.8759,-4.9112,-5.022,-5.0627,-5.0413,-5.0397,-5.0163,-4.9739,-4.8278,-4.6349,-4.4062,-4.4227,-4.3973,-4.3329,-4.3165,-4.2731,-4.2073,-4.1235,-4.0232,-3.905,-3.7719,-3.6911,-3.6417,-3.5759,-3.5504,-3.5504,-3.5504,-3.5504,-3.5439,-3.5213,-3.4041,-3.2464,-3.1536,-3.0558,-2.9792,-2.9792,-2.9792,-2.9792,-2.9792,-2.9792,-2.9792,-2.9792,-2.9792,-2.9792,-2.9792,-2.9792,-2.9792,-2.9792,-2.9792,-2.9998,-3.0696,-3.1402,-3.1402,-3.0075,-3.0343,-3.0895,-3.118,-3.0619,-3.0619,-3.1688,-3.1048,-3.0304,-2.9692,-2.9444,-2.9132,-2.8512,-2.7498,-2.6943,-2.6943,-2.7551,-2.7986,-2.8152,-2.9971,-3.0998,-3.1204,-3.1886,-3.2347,-3.2512,-3.3006,-3.3245,-3.3245,-3.3245,-3.3155,-4.1398,-4.2985,-4.3853,-4.4227,-4.3673,-4.2261,-3.9504,-3.8009,-3.6268,-3.2805,-3.085,-2.9475,-2.8457,-2.9101,0.0,0.0,0.0,0.0,-4.1594,-4.318,-4.4302,0.0,-4.5514,0.0,-4.5125,-4.7102,-4.8308,0.0,-4.9122,-4.9969,-5.005,-5.1148,-5.1793,-5.1793,-5.1793,-5.1173,-4.9993,-4.8843,-4.6885,-4.4317,-4.4601,-4.4242,-4.3329,-4.3329,-4.297,-4.2327,0.0,-4.0801,-3.9738,-3.8392,-3.7629,-3.7255,-3.6596,-3.6178,-3.5938,-3.5938,-3.5744,-3.5504,-3.5504,-3.4491,-3.3031,-3.2105,-3.1193,-3.0343,-2.9934,-2.9792,-2.9792,-2.9792,-2.9792,-2.9792,-2.9792,-2.9792,-2.9792,-2.9792,-2.9792,-2.9792,-2.9792,-3.0139,-3.0696,-3.1609,-3.2249,-3.2249,-3.1206,-3.1119,-3.118,-3.118,-3.0559,-3.0216,-3.0718,-3.0151,-2.9592,-2.9268,-2.8679,-2.8213,-2.796,-2.7183,-2.6685,-2.6685,-2.7183,-2.7442,-2.7442,-2.9321,-3.0519,-3.087,-3.193,-3.2796,-3.338,-3.3739,-3.3918,-3.3918,-3.3918,-3.3769,-4.321,-4.4003,-4.4421,-4.4332,-4.2836,-4.0636,-3.764,-3.5484,-3.314,-2.9739,-2.8062,-2.6976,-2.6318,-2.6886,-2.8113,-3.0178,0.0,-3.5893,-3.9948,-4.1669,-4.3449,-4.6022,-4.6396,-4.6666,-4.7392,-4.9325,-5.0586,-5.0566,-5.1623,-5.1971,-5.128,-5.2672,-5.3501,-5.3501,-5.3501,-5.2277,-4.9608,-4.9158,-4.7404,-4.4544,-4.4967,-4.4526,-4.3329,-4.3329,-4.3015,-4.2447,0.0,0.0,-4.0427,-3.908,-3.8467,-3.8317,-3.7659,-3.703,-3.6492,-3.6492,-3.6073,-3.5504,-3.5504,-3.492,-3.4027,-3.3101,-3.2105,-3.1044,-3.0203,-2.9934,-2.9792,-2.9792,-2.9792,-2.9792,-2.9792,-2.9792,-2.9792,-2.9792,-2.9842,-2.988,-2.9817,-3.0685,-3.179,-3.2574,-3.3,-3.3099,-3.2803,-3.2082,-3.1482,-3.1254,-3.0419,-2.9792,-2.9792,-2.9108,-2.8638,-2.8481,-2.7403,-2.6615,-2.6546,-2.6533,-2.6533,-2.6533,-2.6589,-2.6683,-2.6759,-2.8406,-2.9581,-3.0271,-3.1933,-3.3335,-3.4472,-3.4562,-3.4607,-3.4607,-3.4607,-3.4307,-4.4451,-4.5035,-4.499,-4.4451,-4.2836,-4.0234,-3.5613,-3.3235,0.0,0.0,-2.5536,-2.4941,-2.4238,-2.5555,-2.7575,-3.0088,-3.2736,-3.6058,-4.0576,-4.2372,-4.3988,0.0,-4.68,-4.7488,-4.8429,-5.0199,0.0,0.0,0.0,-5.3837,-5.3112,-5.3349,-5.3501,-5.3501,-5.3501,-5.2587,-5.0659,-4.9737,-4.8069,-4.5573,-4.4875,-4.4077,-4.3329,-4.3329,-4.3269,-4.3135,-4.2476,0.0,-4.1115,-3.9783,-3.8901,-3.8317,-3.7659,-3.703,-3.6492,-3.6492,-3.6073,-3.5504,-3.5504,-3.5359,-3.5067,-3.4109,-3.2593,-3.118,-3.1044,-3.0419,-2.9792,-2.9792,-2.9792,-2.9792,-2.9792,-2.9792,-2.9792,-2.9792,-3.0143,-3.0344,-2.9892,-3.1576,-3.3193,-3.3412,-3.5152,-3.593,-3.3798,-3.3266,-3.2736,-3.1394,-3.0419,-2.9792,-2.9792,-2.9681,-2.9201,-2.8252,-2.7943,-2.7444,-2.6609,-2.6533,-2.6533,-2.6533,-2.7095,-2.768,-2.8124,-2.99,-3.1117,-3.1697,-3.3313,-3.4247,-3.4472,-3.5055,-3.5325,-3.5325,-3.5325,-3.5265,-4.4945,-4.5289,-4.514,-4.4481,-4.2043,-3.871,-3.4257,0.0,0.0,-2.515,-2.4236,-2.3984,-2.3655,-2.5241,0.0,-2.8712,-3.0911,-3.4023,-3.8661,-4.0472,-4.2432,-4.5424,-4.7129,-4.8293,0.0,-5.0514,0.0,0.0,0.0,-5.3873,-5.3518,-5.3501,-5.3501,-5.3501,-5.3501,-5.284,-5.1449,-5.0928,-4.9416,-4.692,-4.6045,-4.5001,-4.3838,-4.3494,-4.3329,-4.3299,-4.2641,0.0,-4.1788,-4.0472,-3.9738,-3.9364,-3.8706,-3.8063,-3.7479,-3.7479,-3.6866,-3.6013,-3.6013,-3.5789,-3.5424,-3.492,-3.3822,-3.2464,-3.1536,-3.0908,-3.0419,-2.9934,-2.9792,-2.9854,-3.0143,-3.0218,-3.0294,-3.0557,-3.1286,-3.1941,-3.2156,-3.3559,-3.4996,-3.5453,-3.6586,-3.6857,-3.5081,-3.4164,-3.3175,-3.1819,-3.0611,-2.9792,-2.9792,-2.9792,-2.9465,-2.8624,-2.8285,-2.7896,-2.7369,-2.7318,-2.7318,-2.7318,-2.7717,-2.8029,-2.8273,-3.0009,-3.1307,-3.1942,-3.3627,-3.4651,-3.5011,-3.534,-3.5504,-3.5504,-3.5504,-3.5504,-4.49,-4.5185,-4.5095,-4.4302,-4.122,-3.733,-3.323,-3.0387,0.0,-2.4283,-2.3595,-2.3595,-2.3595,-2.4881,-2.6258,0.0,-2.8771,-3.1495,-3.6133,-3.8182,-4.0621,0.0,-4.7079,0.0,-4.9135,-5.0968,0.0,0.0,0.0,0.0,-5.3501,-5.3501,-5.3501,-5.3501,-5.3501,-5.311,-5.2241,-5.1828,-5.0554,-4.8184,-4.7216,-4.5863,-4.4383,-4.3648,-4.3329,-4.3299,-4.2791,0.0,0.0,-4.11,-4.0531,-4.0337,-3.9679,-3.899,-3.8392,-3.8392,-3.7674,-3.6656,-3.6537,-3.6148,-3.5684,-3.5549,-3.4839,-3.3671,-3.2033,-3.1389,-3.097,-3.0075,-2.9792,-2.9917,-3.047,-3.062,-3.0851,-3.1711,-3.2486,-3.3352,-3.4657,-3.5577,-3.6488,-3.7392,-3.7511,-3.719,-3.6245,-3.4643,-3.3152,-3.2127,-3.0701,-2.9792,-2.9792,-2.9792,-2.9616,-2.9164,-2.8612,-2.8235,-2.8109,-2.8109,-2.8109,-2.8109,-2.8109,-2.816,-2.8285,-3.0044,-3.1349,-3.1944,-3.3784,-3.4966,-3.5504,-3.5504,-3.5504,-3.5504,-3.5504,-3.5504,-4.4227,-4.484,-4.499,-4.3733,-4.0891,-3.7195,-3.2662,0.0,-2.7649,-2.4283,-2.3595,-2.3595,-2.3595,-2.3744,-2.4492,-2.6378,-2.7335,-2.946,-3.4098,-3.6911,-3.9753,-4.3165,0.0,0.0,-5.0101,0.0,0.0,0.0,0.0,0.0,-5.3501,-5.3501,-5.3501,-5.3501,-5.3501,-5.3433,-5.3348,-5.1788,-5.0537,-4.9604,-4.7162,-4.554,-4.4754,-4.3723,-4.3329,-4.3329,-4.3269,0.0,0.0,-4.1594,-4.0935,-4.0337,-3.9679,-3.899,-3.8392,-3.8392,-3.7943,-3.724,-3.6686,-3.6447,-3.6297,-3.5699,-3.4839,-3.3808,-3.282,-3.1888,-3.097,-3.0075,-2.9792,-2.9917,-3.047,-3.062,-3.1099,-3.3117,-3.3304,-3.3678,-3.6028,-3.6777,-3.7186,-3.8147,-3.8018,-3.7543,-3.6864,-3.4672,-3.2826,-3.213,-3.0701,-2.9792,-2.9792,-2.9792,-2.9779,-2.9716,-2.9202,-2.8649,-2.8147,-2.8109,-2.8109,-2.8109,-2.8109,-2.8335,-2.8837,-3.0646,-3.1972,-3.251,-3.4389,-3.5444,-3.5504,-3.5504,-3.5504,-3.5504,-3.5504,-3.5504,-4.2641,-4.3898,-4.4392,-4.3075,-3.9978,-3.6252,-3.2407,0.0,-2.6662,-2.4118,-2.3595,-2.3595,-2.3595,-2.3595,-2.3999,-2.5211,-2.5285,0.0,-3.0926,-3.311,-3.6321,-4.1862,-4.5164,0.0,0.0,0.0,0.0,0.0,0.0,0.0,-5.3501,-5.3501,-5.3501,-5.3501,-5.3501,-5.3501,-5.3501,-5.2808,-5.2027,-5.1032,-4.9141,-4.7505,-4.599,-4.4803,-4.3849,-4.3329,-4.3329,0.0,0.0,-4.1818,-4.122,-4.0891,-3.9828,-3.9245,-3.9005,-3.9005,-3.8586,-3.7958,-3.7719,-3.7135,-3.6365,-3.5501,-3.4632,-3.3808,-3.289,-3.196,-3.097,-3.0075,-3.003,-3.0419,-3.0947,-3.2039,-3.3281,-3.412,-3.5151,-3.6143,-3.7157,-3.7915,-3.8559,-3.8934,-3.8839,-3.8295,-3.6668,-3.5292,-3.3788,-3.1898,-3.0833,-3.0168,-2.9829,-2.9792,-2.9792,-2.9792,-2.9591,-2.9365,-2.9139,-2.9114,-2.9114,-2.9114,-2.9114,-2.9214,-2.944,-3.1261,-3.2358,-3.2593,-3.4491,-3.5504,-3.5504,-3.5504,-3.5504,-3.5504,-3.5504,-3.5504,-4.0053,-4.1863,-4.288,-4.1773,-3.8661,-3.507,0.0,0.0,-2.6019,-2.4014,-2.3595,-2.3595,-2.3595,-2.3595,-2.3759,-2.4238,-2.4253,-2.539,-2.8801,-3.0911,-3.4288,0.0,0.0,0.0,0.0,0.0,0.0,0.0,0.0,0.0,0.0,-5.3501,-5.3501,-5.3501,-5.3501,-5.3501,-5.3501,-5.3501,-5.2992,-5.2034,-5.0479,-4.8969,-4.7356,-4.5609,-4.445,-4.3708,0.0,0.0,0.0,-4.1923,-4.1384,-4.125,-3.9933,-3.9424,-3.9394,-3.9185,-3.8653,-3.7979,-3.7715,-3.691,-3.5784,-3.5039,-3.4285,-3.3491,-3.2841,-3.2072,-3.1258,-3.0506,-3.0658,-3.1173,-3.1537,-3.3135,-3.4746,-3.5047,-3.6476,-3.7904,-3.8234,-3.887,-3.9424,-3.9424,-3.9104,-3.8383,-3.6526,-3.548,-3.4191,-3.2003,-3.1185,-3.0645,-3.0105,-3.0043,-2.998,-2.9817,-2.9792,-2.9792,-2.9792,-2.9792,-2.9792,-2.9792,-2.9792,-2.9934,-3.0216,-3.1756,-3.2749,-3.3031,-3.4624,-3.5504,-3.5504,-3.5504,-3.5504,-3.5504,-3.5504,-3.5504,-3.6194,-3.8452,-4.0277,-3.9619,-3.6956,-3.3799,-3.112,-2.8472,-2.6019,-2.4014,-2.3595,-2.3595,-2.3595,-2.3595,-2.3595,-2.361,-2.4717,-2.6288,-2.8323,-3.142,0.0,0.0,0.0,0.0,0.0,0.0,0.0,0.0,0.0,0.0,0.0,-5.3501,-5.3501,-5.3501,-5.3501,-5.3501,-5.3501,-5.3501,-5.3095,-5.23,-5.0607,-4.9384,-4.8608,-4.5981,-4.4812,0.0,0.0,0.0,0.0,-4.1923,-4.1384,-4.125,-3.9933,-3.9424,-3.9334,-3.8661,-3.7809,-3.688,-3.6173,-3.526,-3.4389,-3.4355,-3.3671,-3.2804,-3.2804,-3.2409,-3.1926,-3.1521,-3.1763,-3.219,-3.2202,-3.3431,-3.4979,-3.5974,-3.7021,-3.8069,-3.9177,-3.9424,-3.9424,-3.9424,-3.8546,-3.751,-3.6369,-3.4834,-3.3456,-3.2357,-3.1738,-3.1198,-3.067,-3.0608,-3.0407,-2.9854,-2.9792,-2.9792,-2.9792,-2.9792,-2.9792,-2.9792,-2.9792,-3.0203,-3.118,-3.2105,-3.3031,-3.3959,-3.4986,-3.5504,-3.5504,-3.5504,-3.5504,-3.5504,-3.5504,-3.5504,-3.2617,-3.4367,-3.5519,-3.4861,-3.2901,-3.0552,-2.8338,-2.6497,-2.4822,-2.3281,-2.3295,-2.3595,-2.3595,-2.3595,-2.3909,-2.4822,-2.5704,-2.6826,0.0,0.0,0.0,0.0,0.0,0.0,0.0,0.0,0.0,0.0,0.0,0.0,0.0,-5.2993,-5.2942,-5.3484,-5.2976,-5.2689,-5.2689,-5.2198,-5.1809,-5.1555,-5.0503,-4.9542,-4.866,-4.6651,0.0,0.0,0.0,0.0,0.0,-4.1743,-4.1115,-4.0621,-3.9753,-3.9125,-3.8691,-3.8467,-3.778,-3.6835,-3.6633,-3.5882,-3.4898,-3.42,-3.3462,-3.2751,-3.2444,-3.2026,-3.1614,-3.187,-3.2077,-3.2303,-3.2704,-3.3727,-3.4746,-3.5129,-3.5987,-3.6774,-3.7161,-3.7238,-3.7238,-3.7238,-3.693,-3.6383,-3.5359,-3.4738,-3.3927,-3.2432,-3.2064,-3.1625,-3.0733,-3.062,-3.0407,-2.9854,-2.9792,-2.9792,-2.9792,-2.9792,-2.9792,-2.9792,-2.9792,-2.9934,-3.0203,-3.1756,-3.2749,-3.3031,-3.4639,-3.5504,-3.5504,-3.5504,-3.5504,-3.5504,-3.5504,-3.5504,-2.9131,-3.0806,-3.1913,-3.1509,-2.9924,0.0,-2.6298,-2.484,-2.3615,-2.2609,-2.2847,-2.326,-2.3253,-2.3445,-2.3804,-2.4403,-2.5465,-2.6774,0.0,0.0,0.0,0.0,0.0,0.0,0.0,0.0,0.0,0.0,0.0,0.0,0.0,-5.2739,-5.2536,-5.3044,-5.23,-5.1894,-5.1894,-5.1454,-5.1217,-5.12,-5.0439,-4.9796,-4.9161,-4.714,0.0,0.0,0.0,0.0,0.0,-4.1489,-4.092,-4.0681,-3.9768,-3.9155,-3.8665,-3.8026,-3.7157,-3.624,-3.5787,-3.494,-3.4047,-3.3649,-3.3234,-3.2864,-3.2584,-3.2303,-3.2102,-3.2441,-3.2541,-3.2616,-3.298,-3.3869,-3.4664,-3.4664,-3.544,-3.6198,-3.6198,-3.6391,-3.6488,-3.6239,-3.6584,-3.6361,-3.4977,-3.4848,-3.4476,-3.2786,-3.2541,-3.2215,-3.1336,-3.1223,-3.1009,-3.0457,-3.0218,-3.0105,-3.0105,-2.9917,-2.9792,-2.9792,-2.9792,-2.9934,-3.0279,-3.1756,-3.2749,-3.3101,-3.4706,-3.5504,-3.5504,-3.5504,-3.5504,-3.5504,-3.5504,-3.5504,0.0,-2.7709,-2.9146,-2.9146,-2.7754,-2.6005,-2.483,-2.3562,0.0,-2.199,-2.2307,-2.273,-2.2822,-2.3236,-2.3475,-2.3086,-2.4597,-2.6546,0.0,0.0,0.0,0.0,0.0,0.0,0.0,0.0,0.0,0.0,0.0,0.0,0.0,-5.2604,-5.2147,-5.2147,-5.1437,-5.1082,-5.1133,-5.1082,-5.1065,-5.1048,-5.0355,-5.0016,-4.9919,-4.7332,0.0,0.0,0.0,0.0,0.0,-4.1145,-4.0726,-4.1115,-3.9815,-3.9235,-3.9028,-3.7301,-3.6062,-3.5055,-3.3967,-3.2941,-3.2252,-3.283,-3.3018,-3.3018,-3.3068,-3.3081,-3.3081,-3.3081,-3.3081,-3.3081,-3.3081,-3.3882,-3.4594,-3.4594,-3.5278,-3.5974,-3.5974,-3.6426,-3.6673,-3.6084,-3.6811,-3.6917,-3.4931,-3.5028,-3.4803,-3.3316,-3.3081,-3.2867,-3.229,-3.2215,-3.2001,-3.1449,-3.0959,-3.067,-3.0738,-3.0209,-2.9792,-2.9792,-2.9792,-3.0203,-3.118,-3.2105,-3.3031,-3.3959,-3.4986,-3.5504,-3.5504,-3.5504,-3.5504,-3.5504,-3.5504,-3.5504,-2.334,0.0,-2.5001,-2.5001,-2.4323,-2.3397,0.0,-2.2172,-2.1885,-2.1742,-2.2262,-2.2991,-2.3956,-2.3864,-2.4223,-2.6156,-2.725,-2.8804,0.0,0.0,0.0,0.0,0.0,0.0,0.0,0.0,0.0,0.0,0.0,0.0,0.0,-5.1336,-5.0608,-5.0608,-4.9898,-4.9796,-5.0338,-4.9796,-4.9526,-4.9509,-4.934,-4.9255,-4.9159,-4.6598,0.0,0.0,0.0,0.0,-4.1055,-4.0591,-4.0187,-3.977,-3.8589,-3.7839,-3.7287,-3.6085,-3.4731,-3.3329,-3.3106,-3.2429,-3.1675,-3.224,-3.2416,-3.2503,-3.2943,-3.3081,-3.3081,-3.3081,-3.3081,-3.3081,-3.3081,-3.3326,-3.3471,-3.3471,-3.3628,-3.3869,-3.3869,-3.3972,-3.4036,-3.3894,-3.4088,-3.4105,-3.3594,-3.3585,-3.3551,-3.3179,-3.3081,-3.2867,-3.229,-3.2215,-3.2001,-3.1449,-3.1286,-3.1521,-3.2371,-3.0789,-2.9792,-2.9792,-2.9792,-3.0203,-3.118,-3.2105,-3.3031,-3.3959,-3.4986,-3.5504,-3.5504,-3.5504,-3.5504,-3.5504,-3.5504,-3.5504,-2.2128,-2.2892,-2.3583,-2.3555,-2.3138,-2.2472,-2.1523,-2.1296,-2.1319,-2.133,-2.2069,-2.3067,-2.4321,-2.4508,-2.5157,0.0,-2.8684,0.0,0.0,0.0,0.0,0.0,0.0,0.0,0.0,0.0,0.0,0.0,0.0,0.0,0.0,-5.071,-5.0084,-5.0084,-4.9069,-4.8849,-4.9593,-4.9204,-4.9001,-4.9001,-4.9001,-4.8832,-4.8416,-4.6207,-4.5026,0.0,0.0,0.0,-4.0801,-4.0202,-3.9504,-3.8679,-3.775,-3.6942,-3.6014,-3.5018,-3.4032,-3.3225,-3.2691,-3.223,-3.1813,-3.2114,-3.239,-3.2667,-3.298,-3.3081,-3.3081,-3.3081,-3.3081,-3.3081,-3.3081,-3.3081,-3.3081,-3.3081,-3.3081,-3.3081,-3.3081,-3.3269,-3.3382,-3.3131,-3.3483,-3.3671,-3.3169,-3.3282,-3.337,-3.3119,-3.3081,-3.2968,-3.2654,-3.2604,-3.2491,-3.2202,-3.2383,-3.2771,-3.3318,-3.2262,-3.1527,-3.1527,-3.1277,-3.1341,-3.1815,-3.2749,-3.3685,-3.4691,-3.5213,-3.5504,-3.5504,-3.5504,-3.5504,-3.5504,-3.5504,-3.5504,-2.1665,-2.2772,-2.3822,-2.3484,-2.3097,-2.2534,-2.1348,-2.1023,-2.0978,-2.1129,0.0,0.0,0.0,-2.5357,0.0,0.0,0.0,0.0,0.0,0.0,0.0,0.0,0.0,0.0,0.0,0.0,0.0,0.0,0.0,0.0,0.0,-5.0338,-4.9915,-4.9915,-4.8612,-4.8257,-4.9001,-4.89,-4.89,-4.9001,-4.89,-4.8511,-4.7841,-4.5947,-4.4629,0.0,0.0,0.0,-4.0995,-3.9768,-3.8855,-3.8086,-3.7137,-3.625,-3.5388,-3.4033,-3.3472,-3.3313,-3.2307,-3.2026,-3.2102,-3.219,-3.2491,-3.2855,-3.3031,-3.3018,-3.2968,-3.3056,-3.3081,-3.3081,-3.3081,-3.3081,-3.3081,-3.3081,-3.3081,-3.3106,-3.3181,-3.3508,-3.3658,-3.3269,-3.3884,-3.4173,-3.3244,-3.347,-3.3608,-3.3156,-3.3081,-3.3081,-3.3081,-3.3081,-3.3154,-3.3313,-3.3736,-3.4046,-3.4366,-3.419,-3.4147,-3.4293,-3.3251,-3.2664,-3.282,-3.3739,-3.461,-3.5504,-3.5504,-3.5504,-3.5504,-3.5504,-3.5504,-3.5504,-3.5504,-3.5504,-2.1545,-2.346,-2.4881,-2.3227,-2.3201,-2.3357,-2.258,-2.1983,-2.1727,0.0,0.0,0.0,0.0,-2.6787,-2.8104,0.0,0.0,0.0,0.0,0.0,0.0,0.0,0.0,0.0,0.0,0.0,0.0,0.0,0.0,0.0,0.0,0.0,-4.9171,-4.9171,-4.8359,-4.8257,-4.9001,-4.8392,-4.8392,-4.9001,-4.8376,-4.802,-4.7808,-4.5595,-4.4088,0.0,0.0,-4.0258,-3.9664,-3.8871,-3.8814,-3.8957,-3.6509,-3.58,-3.5768,-3.3312,-3.2149,-3.1681,-3.109,-3.1148,-3.1599,-3.2064,-3.1964,-3.1825,-3.2792,-3.2729,-3.2441,-3.2943,-3.3081,-3.3081,-3.3081,-3.3081,-3.3081,-3.3081,-3.3081,-3.3206,-3.3671,-3.347,-3.3319,-3.3709,-3.3533,-3.3269,-3.3106,-3.3156,-3.3169,-3.3093,-3.3081,-3.3081,-3.3081,-3.3081,-3.3484,-3.4345,-3.4502,-3.5238,-3.7048,-3.6682,-3.6707,-3.7627,-3.4455,-3.2961,-3.3739,-3.4758,-3.5359,-3.5504,-3.5504,-3.5504,-3.5504,-3.5504,-3.5504,-3.5504,-3.5504,-3.5504,-2.1081,-2.2802,-2.4298,-2.34,-2.4261,-2.4912,-2.3512,-2.3271,-2.3483,0.0,0.0,0.0,0.0,0.0,-3.1616,-3.5563,0.0,0.0,0.0,0.0,0.0,0.0,0.0,0.0,0.0,0.0,0.0,0.0,0.0,0.0,0.0,0.0,-4.7602,-4.7104,-4.6402,-4.6105,-4.6419,-4.5695,-4.6583,-4.8984,-4.7851,-4.731,-4.7276,-4.5302,-4.3679,-4.2445,0.0,-4.0025,-3.8841,-3.8527,-3.7544,-3.6172,-3.4906,-3.3919,-3.2987,-3.1818,-3.1361,-3.1273,-3.0444,-3.0708,-3.1386,-3.1361,-3.1788,-3.234,-3.2541,-3.2641,-3.2729,-3.3006,-3.3081,-3.3081,-3.3081,-3.3081,-3.3156,-3.3445,-3.3294,-3.3307,-3.4161,-3.3671,-3.3244,-3.3796,-3.3458,-3.3081,-3.3081,-3.3081,-3.3181,-3.3483,-3.3269,-3.3181,-3.3483,-3.3832,-3.4108,-3.4664,-3.5695,-3.6724,-3.7753,-3.7696,-3.7556,-3.7404,-3.5703,-3.4772,-3.4787,-3.5279,-3.5504,-3.5504,-3.5504,-3.5504,-3.5504,-3.5504,-3.5504,-3.5504,-3.5504,-3.5504,-2.1171,-2.2592,-2.3984,-2.3684,-2.4978,-2.6052,-2.5013,-2.5214,-2.5886,-2.6856,0.0,0.0,0.0,-3.2519,0.0,0.0,0.0,0.0,0.0,0.0,0.0,0.0,0.0,0.0,0.0,0.0,0.0,0.0,0.0,0.0,0.0,0.0,-4.6102,-4.5208,-4.4456,-4.4025,-4.3971,-4.3199,-4.4625,-4.818,-4.6885,-4.6321,-4.6498,-4.4916,-4.3293,-4.1741,-4.0855,-3.9594,-3.8167,-3.8167,-3.6587,-3.415,-3.3859,-3.2475,-3.062,-3.062,-3.0871,-3.111,-3.0407,-3.0783,-3.1537,-3.1273,-3.1951,-3.2817,-3.2503,-3.2629,-3.2905,-3.3043,-3.3081,-3.3081,-3.3081,-3.3081,-3.3219,-3.3771,-3.3583,-3.3571,-3.4675,-3.4048,-3.3557,-3.4476,-3.3795,-3.3192,-3.3649,-3.3429,-3.342,-3.3834,-3.3658,-3.3645,-3.4185,-3.4777,-3.5203,-3.5413,-3.7007,-3.8063,-3.8159,-3.847,-3.8138,-3.7015,-3.6791,-3.6417,-3.5759,-3.5729,-3.5669,-3.5504,-3.5504,-3.5504,-3.5504,-3.5504,-3.5504,-3.5504,-3.5504,-3.5504,-2.2574,-2.3969,-2.5166,-2.3909,-2.4544,-2.5993,-2.7891,-2.8257,-2.8842,-3.1015,0.0,0.0,0.0,-3.5207,0.0,0.0,0.0,0.0,0.0,0.0,0.0,0.0,0.0,0.0,0.0,0.0,0.0,0.0,0.0,0.0,0.0,0.0,0.0,-4.4345,-4.3587,-4.325,-4.3249,-4.2478,-4.3314,-4.5752,-4.4929,-4.498,-4.5737,-4.4193,-4.2609,-4.1052,-4.0256,-3.9011,-3.7479,-3.7479,-3.6821,-3.5755,-3.4706,-3.2821,-3.062,-3.062,-3.0633,-3.0733,-3.1135,-3.1662,-3.224,-3.2729,-3.2616,-3.2365,-3.2867,-3.2667,-3.239,-3.2918,-3.3081,-3.3081,-3.3081,-3.3081,-3.3219,-3.3771,-3.3872,-3.4148,-3.5253,-3.4613,-3.4489,-3.6655,-3.4889,-3.3551,-3.5136,-3.4581,-3.3859,-3.3884,-3.4299,-3.4768,-3.5358,-3.5957,-3.6669,-3.7485,-3.827,-3.8873,-3.9237,-3.9292,-3.9035,-3.8302,-3.7689,-3.706,-3.6432,-3.6417,-3.6133,-3.5519,-3.5504,-3.5504,-3.5504,-3.5504,-3.5504,-3.5504,-3.5504,-3.5504,-2.2724,-2.4103,-2.539,-2.4462,-2.5423,-2.7008,-2.8373,-2.9942,-3.1578,-3.3286,-3.4988,0.0,0.0,0.0,0.0,0.0,0.0,0.0,0.0,0.0,0.0,0.0,0.0,0.0,0.0,0.0,0.0,0.0,0.0,0.0,0.0,0.0,0.0,-4.1406,-4.0745,-4.0122,-3.9622,-3.9293,-4.0112,-4.2032,-4.2731,-4.3453,-4.4181,-4.3166,-4.187,-4.0331,-3.9998,-3.8732,-3.6768,-3.6148,-3.5093,-3.3716,-3.2142,-3.1138,-3.062,-3.062,-3.062,-3.0645,-3.0834,-3.1047,-3.126,-3.1474,-3.1851,-3.2252,-3.2466,-3.2641,-3.2792,-3.3018,-3.3319,-3.3583,-3.3583,-3.4152,-3.4873,-3.5794,-3.5963,-3.6356,-3.7918,-3.7023,-3.6337,-3.7568,-3.6439,-3.5279,-3.5463,-3.4928,-3.4525,-3.4864,-3.5392,-3.5771,-3.5494,-3.7317,-3.8375,-3.7994,-3.9035,-3.9728,-3.9397,-3.9424,-3.9305,-3.905,-3.8392,-3.7734,-3.709,-3.706,-3.6941,-3.6701,-3.6686,-3.6686,-3.6686,-3.6686,-3.6686,-3.6686,-3.6686,-3.6686,-2.2724,-2.3655,-2.4627,-2.4373,-2.6047,0.0,-2.969,-3.1742,-3.3958,-3.6289,-3.782,-3.9057,-4.0222,0.0,0.0,0.0,0.0,0.0,0.0,0.0,0.0,0.0,0.0,0.0,0.0,0.0,0.0,0.0,0.0,0.0,0.0,0.0,0.0,0.0,-3.853,-3.7943,-3.712,-3.7315,-3.7979,-3.9184,-4.0485,-4.1773,-4.2933,-4.229,-4.1106,-3.9594,-3.9326,-3.8075,-3.6111,-3.5336,-3.3988,-3.2318,-3.0496,-3.0018,-3.0357,-3.0357,-3.0357,-3.0382,-3.0557,-3.062,-3.067,-3.1009,-3.1612,-3.2252,-3.2428,-3.2767,-3.3081,-3.3081,-3.3591,-3.4168,-3.4346,-3.518,-3.6207,-3.7524,-3.782,-3.8117,-3.9581,-3.8753,-3.8061,-3.9005,-3.8059,-3.6986,-3.6686,-3.5983,-3.5608,-3.5991,-3.6302,-3.6582,-3.7046,-3.8682,-3.9733,-3.9439,-4.0187,-4.0442,-3.9783,-3.9723,-3.9649,-3.9424,-3.8975,-3.8422,-3.7749,-3.7719,-3.7629,-3.7404,-3.7404,-3.7404,-3.7404,-3.7404,-3.7404,-3.7404,-3.7404,-3.7404,-2.2724,-2.2739,-2.2847,-2.346,0.0,0.0,-3.224,-3.3859,-3.5957,-4.0323,-4.0629,-4.0341,-4.1085,0.0,0.0,0.0,0.0,0.0,0.0,0.0,0.0,0.0,0.0,0.0,0.0,0.0,0.0,0.0,0.0,0.0,0.0,0.0,0.0,0.0,-3.7404,-3.709,-3.6492,-3.709,-3.7434,-3.7607,-3.8426,-4.0034,-4.2252,-4.1525,-4.0358,-3.8841,-3.811,-3.6951,-3.5484,-3.5146,-3.3882,-3.2024,-3.0432,-2.9792,-2.9792,-2.9804,-2.9792,-2.988,-3.0419,-3.062,-3.0783,-3.1863,-3.2202,-3.2315,-3.2905,-3.3081,-3.3081,-3.3081,-3.3869,-3.4809,-3.5376,-3.6042,-3.6943,-3.8638,-3.9031,-3.9197,-3.9761,-3.9488,-3.955,-4.1291,-3.9813,-3.8422,-3.8934,-3.8014,-3.7338,-3.725,-3.679,-3.7469,-4.0231,-4.0196,-4.052,-4.2183,-4.1773,-4.1115,-4.0457,-4.0397,-4.0113,-3.9454,-3.9424,-3.9125,-3.8422,-3.8407,-3.8093,-3.7434,-3.7434,-3.7434,-3.7434,-3.7434,-3.7434,-3.7434,-3.7434,-3.7434,-2.3325,-2.4014,-2.4777,-2.4971,0.0,0.0,0.0,-3.4855,0.0,0.0,-4.1796,-4.1863,-4.2625,0.0,0.0,0.0,0.0,0.0,0.0,0.0,0.0,0.0,0.0,0.0,0.0,0.0,0.0,0.0,0.0,0.0,0.0,0.0,0.0,0.0,-3.6312,-3.5983,-3.5804,-3.5983,-3.6621,-3.7757,-3.8009,-3.8999,-4.0586,-4.0507,-3.9594,-3.811,-3.7902,-3.6951,-3.5374,-3.3954,-3.2245,-3.0445,-2.9997,-2.9792,-2.9842,-3.0231,-3.0118,-2.988,-3.0419,-3.0357,-3.0218,-3.1286,-3.1637,-3.1813,-3.278,-3.3081,-3.324,-3.4037,-3.473,-3.5632,-3.7351,-3.8257,-3.8943,-3.9907,-4.04,-4.0958,-4.207,-4.1792,-4.1557,-4.2095,-4.1323,-4.0264,-3.9157,-3.8364,-3.7599,-3.6814,-3.7219,-3.8222,-3.9895,-3.9251,-3.8939,-3.9871,-4.0089,-3.9862,-3.9237,-3.992,-4.0113,-3.9454,-3.9843,-3.9813,-3.914,-3.911,-3.902,-3.8826,-3.8826,-3.8826,-3.8826,-3.8826,-3.8826,-3.8826,-3.8826,-3.8826,-2.2847,-2.3625,0.0,-2.5734,-2.8233,-3.1281,-3.4626,0.0,0.0,0.0,0.0,-4.2523,-4.3267,0.0,0.0,0.0,0.0,0.0,0.0,0.0,0.0,0.0,0.0,0.0,0.0,0.0,0.0,0.0,0.0,0.0,0.0,0.0,0.0,0.0,-3.5714,-3.5504,-3.5504,-3.5504,-3.6258,-3.7822,-3.7822,-3.8545,-3.9964,-4.0035,-3.9279,-3.7748,-3.6736,-3.5567,-3.4206,-3.2678,-3.1119,-2.9792,-2.9792,-2.9792,-2.9829,-3.0168,-3.008,-2.9842,-3.0168,-3.0068,-2.9967,-3.1047,-3.1386,-3.1599,-3.2729,-3.3398,-3.3869,-3.4511,-3.556,-3.6711,-3.8082,-3.8924,-3.977,-4.066,-4.1163,-4.1669,-4.2716,-4.2641,-4.2432,-4.2701,-4.2459,-4.1816,-4.0224,-3.9695,-3.9244,-3.8545,-3.9067,-3.942,-3.9183,-3.9006,-3.8945,-3.9274,-3.9508,-3.9524,-3.9068,-3.9945,-4.0186,-3.9427,-4.0038,-4.0113,-3.9454,-3.9424,-3.9424,-3.9424,-3.9424,-3.9424,-3.9424,-3.9424,-3.9424,-3.9424,-3.9424,-3.9424,-2.1924,-2.2394,-2.3518,-2.6283,-2.9612,0.0,-3.7065,-3.9556,-4.1491,-4.2828,0.0,-4.2489,0.0,0.0,0.0,0.0,0.0,0.0,0.0,0.0,0.0,0.0,0.0,0.0,0.0,0.0,0.0,0.0,0.0,0.0,0.0,0.0,0.0,0.0,-3.5365,-3.5415,-3.5415,-3.5355,-3.6105,0.0,-3.771,-3.8531,-4.007,-4.007,-3.9246,-3.7594,-3.5011,-3.3378,-3.2453,-3.1583,-3.062,-2.9792,-2.9792,-2.9792,-2.9792,-2.9792,-2.9792,-2.9792,-2.9792,-2.9792,-2.9967,-3.0984,-3.1348,-3.1587,-3.2836,-3.3914,-3.4746,-3.491,-3.6332,-3.7829,-3.7919,-3.8708,-3.9723,-4.092,-4.1294,-4.1564,-4.2299,-4.2402,-4.2626,-4.321,-4.3329,-4.29,-4.1767,-4.1587,-4.1587,-4.142,-4.1322,-4.0547,-3.8366,-3.9006,-3.9549,-3.9549,-3.9582,-3.9617,-3.9553,-4.0101,-4.0226,-3.9546,-4.0068,-4.0113,-3.9454,-3.9424,-3.9424,-3.9424,-3.9424,-3.9424,-3.9424,-3.9424,-3.9424,-3.9424,-3.9424,-3.9424,-2.3565,-2.4013,0.0,0.0,-3.3192,-3.6983,-3.836,-3.9506,-4.0409,-4.073,-4.1593,0.0,0.0,0.0,0.0,0.0,0.0,0.0,0.0,0.0,0.0,0.0,0.0,0.0,0.0,0.0,0.0,0.0,0.0,0.0,0.0,0.0,0.0,-3.4312,-3.4614,-3.4696,-3.4696,-3.4188,-3.4971,0.0,-3.7014,-3.8095,-4.007,-4.007,-3.8963,-3.6885,-3.4356,-3.2755,-3.1791,-3.1349,-3.062,-2.9792,-2.9792,-2.9792,-2.9792,-2.9792,-2.9792,-2.9792,-2.9792,-2.9792,-2.9905,-3.057,-3.106,-3.1663,-3.32,-3.413,-3.5061,-3.6646,-3.7434,-3.7994,-3.8855,-3.9265,-3.9484,-3.9768,-4.0621,-4.1564,-4.2299,-4.2761,-4.3165,-4.3299,-4.3329,-4.29,-4.1767,-4.1587,-4.1337,-4.0404,-3.9434,-3.8635,-3.8198,-3.7507,-3.7163,-3.7163,-3.7455,-3.8108,-3.8949,-3.9524,-3.9935,-4.0173,-4.0322,-4.0113,-3.9454,-3.9424,-3.9424,-3.9424,-3.9424,-3.9424,-3.9424,-3.9424,-3.9424,-3.9424,-3.9424,-3.9424,-2.3286,0.0,0.0,-3.029,0.0,-3.7645,-3.8702,-3.9261,-3.9648,-4.0003,0.0,0.0,0.0,0.0,0.0,0.0,0.0,0.0,0.0,0.0,0.0,0.0,0.0,0.0,0.0,0.0,0.0,0.0,0.0,0.0,0.0,-3.2727,-3.2705,-3.312,-3.3287,-3.3587,-3.4008,-3.3985,-3.4756,-3.6293,-3.6605,-3.7351,-3.8505,-3.8529,-3.729,-3.5031,-3.2946,-3.1598,-3.0993,-3.0372,-2.9948,-2.9792,-2.9792,-2.9792,-2.9792,-2.9792,-2.9792,-2.9792,-2.9792,-2.9792,-2.988,-3.0432,-3.1267,-3.2352,-3.3434,-3.4887,-3.6411,-3.751,-3.8144,-3.8708,-3.9265,-3.9424,-3.9424,-3.9424,-3.9948,-4.0711,-4.1683,-4.2162,-4.2581,-4.321,-4.3329,-4.3076,-4.2548,-4.2371,-4.2029,-4.0916,-3.9697,-3.8738,-3.8198,-3.7586,-3.7243,-3.7243,-3.7947,-3.8774,-3.9662,-3.9929,-4.0182,-4.0382,-4.0397,-4.0113,-3.9454,-3.9424,-3.9424,-3.9424,-3.9723,-3.9888,-3.9888,-3.9888,-3.9888,-3.9888,-3.9574,-3.9424,-2.2678,0.0,-2.6392,-3.127,-3.4492,0.0,-3.8316,-3.8717,-3.8971,0.0,0.0,0.0,0.0,0.0,0.0,0.0,0.0,0.0,0.0,0.0,0.0,0.0,0.0,0.0,0.0,0.0,0.0,0.0,0.0,0.0,-3.1295,-3.0841,-3.0922,-3.1632,-3.1809,-3.2295,-3.3155,-3.3854,-3.456,-3.5354,-3.6166,-3.6342,-3.6039,-3.6046,-3.4992,-3.3126,-3.1237,-3.0254,-2.9987,-2.9198,-2.9214,-2.9654,-2.9754,-2.9792,-2.9792,-2.9792,-2.9792,-2.9792,-2.9792,-2.9792,-2.9867,-3.0331,-3.1511,-3.2947,-3.3555,-3.5515,-3.7526,-3.7792,-3.8532,-3.9275,-3.9394,-3.9424,-3.9424,-3.9424,-3.9424,-3.9753,-4.095,-4.1294,-4.1743,-4.2925,-4.3254,-4.3329,-4.3329,-4.3329,-4.2981,-4.2029,-4.0916,-3.9798,-3.8559,-3.8379,-3.8289,-3.8107,-3.9183,-4.0067,-4.0545,-4.0469,-4.0415,-4.0397,-4.0292,-3.9993,-3.9439,-3.9529,-3.9589,-3.9589,-4.0127,-4.0457,-4.0561,-4.0457,-4.0457,-4.0546,-3.9783,-3.9484,-2.384,0.0,-2.9247,0.0,-3.4089,-3.5975,0.0,0.0,0.0,0.0,0.0,0.0,0.0,0.0,0.0,0.0,0.0,0.0,0.0,0.0,0.0,0.0,0.0,0.0,0.0,0.0,0.0,0.0,0.0,0.0,-2.9105,-2.9079,-2.9133,-2.9456,-3.0192,-3.1026,-3.1735,-3.2492,-3.3255,-3.3982,-3.5281,-3.4897,-3.2962,-3.3011,-3.2821,-3.2377,-2.9914,-2.8781,-2.8733,-2.8867,-2.8976,-2.9089,-2.9591,-2.9792,-2.9792,-2.9792,-2.9792,-2.9792,-2.9792,-2.9792,-2.9804,-2.988,-3.092,-3.2323,-3.3342,-3.4787,-3.6461,-3.7908,-3.8441,-3.8661,-3.926,-3.9424,-3.9424,-3.9424,-3.9424,-3.9634,-4.0367,-4.098,-4.1594,-4.2342,-4.294,-4.3329,-4.3329,-4.3329,-4.325,-4.3076,-4.2111,-4.1,-3.9798,-3.9637,-3.9271,-3.8198,-3.9183,-4.0067,-4.0545,-4.0067,-3.9935,-4.0368,-3.9858,-3.9514,-3.9424,-3.9963,-4.0277,-4.0277,-4.0352,-4.0681,-4.125,-4.0681,-4.0696,-4.122,-3.9993,-3.9723,-2.3727,-2.5894,-2.8289,0.0,-3.1633,-3.3947,-3.4726,0.0,0.0,0.0,0.0,0.0,0.0,0.0,0.0,0.0,0.0,0.0,0.0,0.0,0.0,0.0,0.0,0.0,0.0,0.0,0.0,0.0,0.0,-2.7695,-2.6992,-2.7053,-2.738,-2.7994,-2.8791,-2.958,-3.0447,-3.1137,-3.2013,-3.3072,-3.3201,-3.2767,-3.1734,-3.0405,-2.9799,-2.9673,-2.8583,-2.8134,-2.8267,-2.8066,-2.8373,-2.895,-2.9202,-2.9315,-2.9352,-2.9679,-2.9792,-2.9792,-2.9792,-2.9792,-2.9869,-3.0419,-3.1651,-3.3063,-3.4084,-3.5495,-3.6954,-3.8057,-3.8123,-3.8078,-3.9155,-3.9125,-3.8931,-3.9334,-3.9424,-3.9499,-3.9783,-4.0367,-4.113,-4.2162,-4.2895,-4.3329,-4.3329,-4.3329,-4.3329,-4.3329,-4.229,-4.142,-4.0916,-4.0831,-4.0646,-4.0118,-4.0772,-4.1389,-4.1607,-4.0665,-4.014,-4.0412,-3.9783,-3.9589,-3.9948,-4.0247,-4.0741,-4.1489,-4.1504,-4.1639,-4.1938,-4.1265,-4.11,-4.1354,-4.0023,-3.9574,0.0,0.0,-2.6705,-2.709,-2.9314,-3.163,0.0,0.0,0.0,0.0,0.0,0.0,0.0,0.0,0.0,0.0,0.0,0.0,0.0,0.0,0.0,0.0,0.0,0.0,0.0,0.0,0.0,0.0,0.0,-2.6091,-2.5497,-2.5634,-2.6116,-2.6984,-2.7712,-2.8502,-2.9325,-3.0014,-3.1021,-3.2358,-3.1298,-3.0762,-3.0616,-2.8643,-2.7604,-2.7417,-2.7417,-2.7516,-2.767,-2.7394,-2.777,-2.8536,-2.8825,-2.8925,-2.9001,-2.9578,-2.9792,-2.9792,-2.9792,-2.9934,-3.0279,-3.097,-3.2331,-3.3845,-3.4509,-3.5786,-3.706,-3.7719,-3.7659,-3.7674,-3.8856,-3.8901,-3.8781,-3.929,-3.9424,-3.9424,-3.9424,-4.0068,-4.0935,-4.1923,-4.2776,-4.3329,-4.3329,-4.3329,-4.3329,-4.3329,-4.2548,-4.1932,-4.167,-4.185,-4.1932,-4.1587,-4.2216,-4.2476,-4.2132,-4.1205,-4.0502,-4.0172,-3.9843,-3.9888,-4.0382,-4.0726,-4.1354,-4.2419,-4.2521,-4.2611,-4.2611,-4.1788,-4.1549,-4.1848,-4.0352,-3.9768,0.0,-2.4816,0.0,-2.6808,-2.8139,0.0,0.0,0.0,0.0,0.0,0.0,0.0,0.0,0.0,0.0,0.0,0.0,0.0,0.0,0.0,0.0,0.0,0.0,0.0,0.0,0.0,0.0,0.0,0.0,-2.4988,-2.5101,-2.5156,-2.5571,-2.6519,-2.7187,-2.79,-2.8652,-2.9319,-3.0312,-3.1616,-3.014,-2.9305,-2.9115,-2.8103,-2.7297,-2.6589,-2.6589,-2.6559,-2.6647,-2.708,-2.7318,-2.7469,-2.8511,-2.8925,-2.9001,-2.9578,-2.9792,-2.9792,-2.9792,-3.0343,-3.1106,-3.118,-3.2478,-3.4002,-3.407,-3.4765,-3.5744,-3.6402,-3.6985,-3.7569,-3.8257,-3.8901,-3.9379,-3.9409,-3.9424,-3.9424,-3.9424,-4.0427,-4.1354,-4.1414,-4.2462,-4.3329,-4.3329,-4.3329,-4.3329,-4.3329,-4.325,-4.2805,-4.1767,-4.2548,-4.2805,-4.1684,-4.26,-4.2776,-4.1534,-4.1369,-4.0801,-3.9544,-4.0023,-4.0367,-4.0397,-4.1594,-4.2374,-4.2357,-4.297,-4.3284,-4.3284,-4.1998,-4.2028,-4.318,-4.125,-4.0681,0.0,0.0,0.0,-2.5132,-2.6517,-2.7918,0.0,0.0,0.0,0.0,0.0,0.0,0.0,0.0,0.0,0.0,0.0,0.0,0.0,0.0,0.0,0.0,0.0,0.0,0.0,0.0,0.0,0.0,0.0,0.0,-2.4577,-2.549,-2.6117,-2.651,-2.7217,-2.7713,-2.7934,-2.8154,-2.8664,-2.9489,-2.832,-2.7922,-2.8117,-2.7284,-2.6782,-2.6533,-2.6533,-2.6735,-2.6979,-2.6816,-2.6967,-2.7318,-2.772,-2.8084,-2.8461,-2.9038,-2.9478,-2.9792,-2.9792,-3.0419,-3.1315,-3.1888,-3.2961,-3.4095,-3.4758,-3.5213,-3.5729,-3.6791,-3.6941,-3.7165,-3.8661,-3.8901,-3.8871,-3.932,-3.9424,-3.9424,-3.9424,-4.0127,-4.0876,-4.1294,-4.2102,-4.2851,-4.3254,-4.3329,-4.3329,-4.3329,-4.3329,-4.3155,-4.2725,-4.3076,-4.3155,-4.2725,-4.2704,-4.2521,-4.2058,-4.1624,-4.119,-4.0711,-4.0905,-4.122,-4.1639,-4.2117,-4.2551,-4.297,-4.321,-4.3329,-4.3329,-4.2447,-4.2252,-4.2686,-4.1549,-4.116,-2.3101,0.0,0.0,0.0,0.0,-2.6849,0.0,0.0,0.0,0.0,0.0,0.0,0.0,0.0,0.0,0.0,0.0,0.0,0.0,0.0,0.0,0.0,0.0,0.0,0.0,0.0,0.0,0.0,0.0,0.0,-2.4637,-2.5837,-2.6616,-2.6878,-2.7357,-2.7458,-2.7255,-2.7195,-2.7437,-2.7924,-2.6999,-2.6984,-2.767,-2.6837,-2.6533,-2.6533,-2.6533,-2.6666,-2.6979,-2.6684,-2.6747,-2.703,-2.7205,-2.762,-2.8172,-2.8725,-2.9505,-3.0279,-3.0279,-3.1132,-3.2249,-3.289,-3.3754,-3.461,-3.5294,-3.5504,-3.5729,-3.6806,-3.6956,-3.709,-3.8407,-3.8407,-3.8227,-3.8916,-3.9065,-3.914,-3.9364,-3.9933,-4.0591,-4.125,-4.1908,-4.2566,-4.3225,-4.3329,-4.3329,-4.3329,-4.3329,-4.3329,-4.3329,-4.3329,-4.3329,-4.3329,-4.294,-4.2596,-4.2387,-4.1953,-4.1609,-4.1384,-4.1594,-4.1908,-4.2342,-4.2566,-4.2895,-4.3329,-4.3329,-4.3329,-4.3329,-4.2671,-4.2476,-4.2671,-4.2013,-4.1594,0.0,0.0,0.0,0.0,0.0,0.0,0.0,0.0,0.0,0.0,0.0,0.0,0.0,0.0,0.0,0.0,0.0,0.0,0.0,0.0,0.0,0.0,0.0,0.0,0.0,0.0,0.0,0.0,0.0,-2.4023,-2.537,-2.6122,-2.6878,-2.7575,-2.7575,-2.7203,-2.651,-2.6457,-2.6691,-2.7134,-2.6276,-2.6525,-2.767,-2.685,-2.6533,-2.6533,-2.6533,-2.6533,-2.6533,-2.6533,-2.6533,-2.6584,-2.7055,-2.7595,-2.8147,-2.8699,-2.9892,-3.1154,-3.1241,-3.2464,-3.4027,-3.4027,-3.4691,-3.5504,-3.5504,-3.5504,-3.5654,-3.6327,-3.6941,-3.7389,-3.7404,-3.7419,-3.7599,-3.8242,-3.8407,-3.8601,-3.9275,-3.9918,-4.0561,-4.125,-4.1893,-4.2551,-4.321,-4.3329,-4.3329,-4.3329,-4.3329,-4.3329,-4.3329,-4.3329,-4.3329,-4.3329,-4.3329,-4.3075,-4.2447,-4.2387,-4.2117,-4.1444,-4.2028,-4.2387,-4.2357,-4.2985,-4.3329,-4.3329,-4.3329,-4.3329,-4.3329,-4.2701,-4.2716,-4.3329,-4.2686,-4.2043,-2.3595,0.0,0.0,0.0,0.0,0.0,0.0,0.0,0.0,0.0,0.0,0.0,0.0,0.0,0.0,0.0,0.0,0.0,0.0,0.0,0.0,0.0,0.0,0.0,0.0,0.0,0.0,0.0,-2.3998,-2.5269,-2.6147,-2.6878,-2.7408,-2.7575,-2.7086,-2.6721,-2.651,-2.5453,-2.536,-2.6276,-2.5458,-2.5701,-2.685,-2.6589,-2.6533,-2.6533,-2.6533,-2.6533,-2.6533,-2.6533,-2.6533,-2.6546,-2.6697,-2.703,-2.7641,-2.8879,-2.9869,-3.0785,-3.1812,-3.3031,-3.4027,-3.4027,-3.4691,-3.5504,-3.5504,-3.5504,-3.5729,-3.6851,-3.6956,-3.6851,-3.73,-3.7764,-3.8167,-3.8347,-3.8766,-3.9185,-3.9379,-3.9574,-4.0023,-4.116,-4.1534,-4.2013,-4.3135,-4.3329,-4.3329,-4.3329,-4.3329,-4.3329,-4.3329,-4.3329,-4.3329,-4.3329,-4.3329,-4.3254,-4.309,-4.306,-4.2791,-4.2132,-4.2701,-4.2865,-4.2387,-4.2985,-4.3329,-4.3329,-4.3329,-4.3329,-4.3329,-4.315,-4.3165,-4.3329,-4.315,-4.2716,-2.4303,-2.4134,-2.4177,-2.5274,0.0,0.0,-2.5852,-2.5762,0.0,0.0,0.0,0.0,0.0,0.0,0.0,0.0,0.0,0.0,0.0,0.0,0.0,0.0,0.0,0.0,0.0,0.0,0.0,-2.2895,-2.4581,-2.5988,-2.6901,-2.7357,-2.7458,-2.7152,-2.6721,-2.6304,-2.5939,-2.4859,-2.4799,-2.5781,-2.5089,-2.5398,-2.6533,-2.6533,-2.6533,-2.6533,-2.6533,-2.6533,-2.6533,-2.6533,-2.6533,-2.6521,-2.6837,-2.7306,-2.7996,-2.9504,-3.0649,-3.1694,-3.2835,-3.3822,-3.4624,-3.4624,-3.4986,-3.5504,-3.5504,-3.5504,-3.5714,-3.6746,-3.6761,-3.6567,-3.6926,-3.7105,-3.7255,-3.7524,-3.8093,-3.8646,-3.8931,-3.9215,-3.9723,-4.0771,-4.119,-4.1713,-4.2746,-4.315,-4.3329,-4.3329,-4.3329,-4.3329,-4.3329,-4.3329,-4.3329,-4.3329,-4.3329,-4.3329,-4.3329,-4.3329,-4.3165,-4.2791,-4.3135,-4.3165,-4.2776,-4.3135,-4.3329,-4.3329,-4.3329,-4.3329,-4.3329,-4.3329,-4.3329,-4.3329,-4.3329,-4.2985,-2.5379,-2.5082,-2.5019,-2.6618,0.0,0.0,-2.5905,-2.5815,-2.5257,0.0,0.0,0.0,0.0,0.0,0.0,0.0,0.0,0.0,0.0,0.0,0.0,0.0,0.0,0.0,0.0,-2.2023,-2.3004,-2.3605,-2.5071,-2.6396,-2.7545,-2.7625,-2.7255,-2.651,-2.6404,-2.5939,-2.4998,-2.4491,-2.4658,-2.5498,-2.5096,-2.5514,-2.6658,-2.6521,-2.6521,-2.6658,-2.6521,-2.6533,-2.6533,-2.6589,-2.6658,-2.6714,-2.7417,-2.8026,-2.8718,-3.0266,-3.1773,-3.3105,-3.3778,-3.4699,-3.5504,-3.5504,-3.5504,-3.5504,-3.5504,-3.5504,-3.5624,-3.6207,-3.6432,-3.6477,-3.6402,-3.5998,-3.5759,-3.6357,-3.7015,-3.7659,-3.8167,-3.8826,-3.9484,-4.0068,-4.0771,-4.1474,-4.2132,-4.2731,-4.312,-4.312,-4.318,-4.3225,-4.3225,-4.3284,-4.3329,-4.3329,-4.3329,-4.3329,-4.3329,-4.3329,-4.3299,-4.3225,-4.3284,-4.3299,-4.3225,-4.3284,-4.3329,-4.3329,-4.3329,-4.3329,-4.3329,-4.3329,-4.3329,-4.3329,-4.3329,-4.3015,-2.6224,-2.612,0.0,0.0,0.0,0.0,-2.5388,-2.4712,-2.4081,0.0,0.0,0.0,0.0,0.0,0.0,0.0,0.0,0.0,0.0,0.0,0.0,0.0,0.0,0.0,0.0,-2.3007,-2.3936,-2.5109,-2.6433,-2.7339,-2.756,-2.7625,-2.7255,-2.651,-2.5906,-2.523,-2.4464,-2.4189,-2.4331,-2.4971,-2.5297,-2.6174,-2.7417,-2.6782,-2.685,-2.7417,-2.6782,-2.6533,-2.6521,-2.7229,-2.7484,-2.7484,-2.767,-2.817,-2.9109,-3.0602,-3.1625,-3.2558,-3.3952,-3.4897,-3.5504,-3.5504,-3.5504,-3.5504,-3.5504,-3.5504,-3.5534,-3.5669,-3.6073,-3.6372,-3.5833,-3.5998,-3.6327,-3.6462,-3.736,-3.8078,-3.7689,-3.8123,-3.8631,-3.8751,-3.9768,-4.0801,-4.1459,-4.1669,-4.1758,-4.1758,-4.2207,-4.2551,-4.2551,-4.3015,-4.3329,-4.3329,-4.3329,-4.3329,-4.3329,-4.3329,-4.3105,-4.2581,-4.3045,-4.309,-4.2581,-4.3045,-4.3329,-4.3329,-4.3329,-4.3329,-4.3329,-4.3329,-4.3329,-4.3329,-4.3329,-4.3269,0.0,0.0,0.0,-2.6994,0.0,0.0,0.0,-2.4776,-2.4133,0.0,0.0,0.0,0.0,0.0,0.0,0.0,0.0,0.0,0.0,0.0,0.0,0.0,0.0,0.0,0.0,-2.3532,-2.4655,-2.5991,-2.6723,-2.723,-2.761,-2.7255,-2.6707,-2.5946,-2.5231,-2.4656,-2.4146,-2.4416,-2.5045,-2.5846,-2.6542,-2.7413,-2.8298,-2.792,-2.7986,-2.8298,-2.792,-2.7736,-2.7802,-2.8182,-2.862,-2.9002,-2.9002,-2.9254,-2.9837,-3.1282,-3.2247,-3.2985,-3.4107,-3.4936,-3.5504,-3.5504,-3.5504,-3.5504,-3.5504,-3.5504,-3.5504,-3.5504,-3.5744,-3.5923,-3.5594,-3.5744,-3.5998,-3.5998,-3.6971,-3.7808,-3.7479,-3.8197,-3.8901,-3.8901,-3.9454,-4.0113,-4.0786,-4.116,-4.1384,-4.1384,-4.1938,-4.2357,-4.2357,-4.294,-4.3329,-4.3329,-4.3329,-4.3329,-4.3329,-4.3329,-4.3195,-4.2865,-4.315,-4.318,-4.2865,-4.3165,-4.3329,-4.3329,-4.3329,-4.3329,-4.3329,-4.3329,-4.3329,-4.3329,-4.3329,-4.3551,0.0,0.0,0.0,0.0,0.0,-2.6883,0.0,0.0,0.0,0.0,0.0,0.0,0.0,0.0,0.0,0.0,0.0,0.0,0.0,0.0,0.0,0.0,0.0,0.0,0.0,-2.4012,-2.5204,-2.6314,-2.6512,-2.6762,-2.7184,-2.6753,-2.6122,-2.5231,-2.4731,-2.4393,-2.4215,-2.5118,-2.61,-2.7183,-2.7968,-2.8657,-2.9254,-2.9066,-2.9066,-2.9254,-2.9066,-2.9002,-2.9002,-2.9192,-2.969,-3.0329,-3.0329,-3.0389,-3.0671,-3.2005,-3.2931,-3.3589,-3.4247,-3.4936,-3.5504,-3.5504,-3.5504,-3.5504,-3.5504,-3.5504,-3.5504,-3.5504,-3.5504,-3.5504,-3.5504,-3.5504,-3.5504,-3.5504,-3.6387,-3.724,-3.724,-3.8182,-3.9065,-3.92,-3.923,-3.9424,-4.0098,-4.0651,-4.0995,-4.0995,-4.1564,-4.2104,-4.2439,-4.2767,-4.3079,-4.3341,-4.3094,-4.2955,-4.2955,-4.3075,-4.315,-4.315,-4.3269,-4.3329,-4.3329,-4.3329,-4.3329,-4.3329,-4.3329,-4.3329,-4.3329,-4.3472,-4.363,-4.363,-4.363,-4.4143,0.0,0.0,0.0,0.0,-2.9432,0.0,0.0,0.0,0.0,-2.3653,0.0,0.0,0.0,0.0,0.0,0.0,0.0,0.0,0.0,0.0,0.0,0.0,0.0,0.0,0.0,0.0,-2.5535,-2.5719,-2.6258,-2.6357,-2.5785,-2.6246,-2.5837,-2.4452,-2.478,-2.5011,-2.505,-2.6153,-2.7162,-2.8043,-2.8643,-2.9372,-3.0133,-2.938,-2.9442,-3.0133,-2.9317,-2.9002,-2.9066,-2.9827,-3.0208,-3.0329,-3.0329,-3.0718,-3.1483,-3.2213,-3.2931,-3.3589,-3.4247,-3.4936,-3.5504,-3.5504,-3.5504,-3.5504,-3.5504,-3.5504,-3.5504,-3.5504,-3.5504,-3.5504,-3.5504,-3.5504,-3.5504,-3.5504,-3.6058,-3.6596,-3.6596,-3.715,-3.7808,-3.8392,-3.8497,-3.8721,-3.9409,-3.9589,-3.9649,-3.9649,-4.0202,-4.1172,-4.2566,-4.2105,-4.2168,-4.3599,-4.244,-4.1609,-4.1609,-4.2132,-4.2476,-4.2476,-4.3015,-4.3329,-4.3329,-4.3329,-4.3329,-4.3329,-4.3329,-4.3329,-4.3329,-4.422,-4.4662,-4.4662,-4.4662,-4.5153,0.0,0.0,0.0,0.0,0.0,0.0,-2.7235,0.0,-2.5529,0.0,0.0,0.0,0.0,0.0,0.0,0.0,-2.0568,0.0,0.0,0.0,0.0,0.0,0.0,0.0,0.0,0.0,0.0,0.0,0.0,-2.5407,-2.5502,-2.5324,-2.4951,-2.435,-2.4059,-2.4318,-2.5216,-2.6465,-2.7732,-2.8936,-2.9952,-3.0644,-3.097,-3.0644,-3.0644,-3.097,-3.0584,-3.045,-3.0464,-3.0837,-3.1029,-3.1029,-3.1029,-3.1219,-3.1511,-3.1839,-3.2602,-3.3529,-3.3814,-3.4607,-3.5504,-3.5504,-3.5504,-3.5504,-3.5504,-3.5504,-3.5504,-3.5504,-3.5504,-3.5504,-3.5504,-3.5504,-3.5504,-3.5504,-3.6013,-3.6492,-3.6492,-3.727,-3.8063,-3.8347,-3.9152,-3.9833,-4.0139,-3.9737,-3.9538,-4.0045,-4.0695,-4.1372,-4.2061,-4.2176,-4.2383,-4.3082,-4.209,-4.1384,-4.1384,-4.1639,-4.1788,-4.1788,-4.2043,-4.2372,-4.2746,-4.2776,-4.294,-4.3329,-4.3849,-4.4143,-4.4143,-4.5138,-4.5905,-4.64,-4.585,-4.6119,-3.119,0.0,0.0,0.0,0.0,0.0,0.0,0.0,0.0,0.0,0.0,0.0,0.0,0.0,-2.1814,-2.0589,0.0,-2.0472,0.0,0.0,0.0,0.0,0.0,0.0,0.0,0.0,0.0,0.0,-2.4009,-2.4184,-2.4638,-2.4257,-2.4006,-2.4002,-2.3577,-2.4029,-2.5408,-2.6873,-2.8257,-2.9681,-3.0924,-3.1482,-3.1482,-3.1482,-3.1482,-3.1482,-3.1482,-3.1482,-3.1482,-3.1482,-3.1482,-3.1482,-3.1482,-3.1482,-3.1497,-3.1676,-3.2527,-3.3529,-3.3709,-3.4532,-3.5504,-3.5504,-3.5504,-3.5504,-3.5504,-3.5504,-3.5504,-3.5504,-3.5504,-3.5504,-3.5504,-3.5504,-3.5504,-3.5504,-3.5863,-3.6267,-3.6447,-3.7345,-3.8237,-3.8666,-3.9833,-4.0878,-4.1346,-4.0706,-4.0324,-4.0946,-4.145,-4.1925,-4.237,-4.2479,-4.2606,-4.2778,-4.1832,-4.1113,-4.0846,-4.101,-4.119,-4.1369,-4.1384,-4.1669,-4.2327,-4.2357,-4.2812,-4.3693,-4.445,-4.4946,-4.5227,-4.6119,-4.6952,-4.7589,-4.6884,-4.7088,0.0,0.0,0.0,-3.1157,0.0,0.0,0.0,0.0,-2.7612,0.0,0.0,0.0,0.0,-2.3522,-2.3103,-2.1834,-2.1219,0.0,0.0,0.0,0.0,0.0,0.0,0.0,0.0,0.0,0.0,-2.2783,-2.278,-2.2688,-2.2511,-2.3091,-2.3345,-2.3113,-2.3678,-2.4643,-2.6043,-2.7469,-2.8872,-3.03,-3.1087,-3.1482,-3.1482,-3.1482,-3.1482,-3.1482,-3.1482,-3.1482,-3.1482,-3.1482,-3.1482,-3.1482,-3.1482,-3.1482,-3.1556,-3.2243,-3.2916,-3.3589,-3.4218,-3.4906,-3.5504,-3.5504,-3.5504,-3.5504,-3.5504,-3.5504,-3.5504,-3.5504,-3.5504,-3.5504,-3.5504,-3.5504,-3.5504,-3.5504,-3.5519,-3.5714,-3.6357,-3.6985,-3.7873,-3.9344,-4.0225,-4.1213,-4.2925,-4.252,-4.1933,-4.1933,-4.1949,-4.2526,-4.4138,-4.299,-4.2317,-4.2973,-4.1669,-4.037,-3.9556,-4.0068,-4.0711,-4.1339,-4.1384,-4.1669,-4.2327,-4.2357,-4.3106,-4.4721,-4.4812,-4.5227,-4.6173,-4.7104,-4.7589,-4.7589,-4.7589,-4.808,0.0,0.0,-3.119,-3.119,0.0,0.0,0.0,0.0,0.0,0.0,0.0,0.0,0.0,-2.3595,-2.3325,-2.2488,-2.22,-2.1765,0.0,0.0,0.0,0.0,0.0,0.0,0.0,0.0,0.0,-2.1496,-2.1472,-2.1699,0.0,-2.2592,-2.2781,-2.3113,-2.3326,-2.4551,-2.6854,-2.7373,-2.8777,-3.1087,-3.1351,-3.1482,-3.1482,-3.1482,-3.1482,-3.1482,-3.1482,-3.1482,-3.1482,-3.1482,-3.1482,-3.1482,-3.1482,-3.1482,-3.1497,-3.1779,-3.2273,-3.3006,-3.4098,-3.4622,-3.4906,-3.5355,-3.5504,-3.5504,-3.5504,-3.5504,-3.5504,-3.5504,-3.5504,-3.5504,-3.5504,-3.5504,-3.5504,-3.5504,-3.5504,-3.5564,-3.5789,-3.6671,-3.7722,-3.8824,-4.0428,-4.1933,-4.3108,-4.3545,-4.3545,-4.297,-4.2847,-4.2867,-4.2844,-4.2334,-4.1884,-4.1527,-4.0516,-3.9737,-3.9424,-3.9634,-3.9843,-4.0068,-4.0083,-4.0382,-4.104,-4.1474,-4.2516,-4.4099,-4.518,-4.6189,-4.7155,-4.808,-4.8513,-4.8513,-4.8513,-4.8719,-3.119,-3.119,0.0,-3.119,-3.119,0.0,-2.9673,0.0,0.0,0.0,0.0,0.0,0.0,0.0,-2.3684,-2.2858,-2.2542,-2.2179,0.0,-2.1632,0.0,0.0,0.0,0.0,0.0,0.0,-2.1107,-2.0886,-2.0598,-2.0901,0.0,0.0,-2.2359,-2.3053,-2.3365,-2.4491,-2.6494,-2.7081,-2.8483,-3.0748,-3.0994,-3.13,-3.1482,-3.1482,-3.1482,-3.1482,-3.1482,-3.1482,-3.1482,-3.1482,-3.1482,-3.1482,-3.1482,-3.1482,-3.1482,-3.1482,-3.2093,-3.3051,-3.4382,-3.4846,-3.4921,-3.5355,-3.5504,-3.5504,-3.5504,-3.5504,-3.5504,-3.5504,-3.5504,-3.5504,-3.5504,-3.5504,-3.5504,-3.5504,-3.5733,-3.5894,-3.5894,-3.7155,-3.8531,-3.9392,-4.1146,-4.2707,-4.3621,-4.3948,-4.3948,-4.3366,-4.3306,-4.2986,-4.2125,-4.1997,-4.1674,-4.0811,-4.017,-3.9737,-3.9424,-3.9424,-3.9424,-3.9424,-3.9424,-3.9828,-4.0711,-4.1489,-4.2763,-4.4652,-4.6019,-4.7172,-4.808,-4.8719,-4.9001,-4.9001,-4.9001,-4.9001]}]]